[[{"header":{"parameterUnit":"m.s-1","parameterCategory":1,"la1":31.0,"la2":29.5877,"lo1":-88.7671,"lo2":-86.6584,"dy":0.0162,"dx":0.0185,"nx":115,"ny":88,"refTime":"2024-06-15T00:00:00:Z","depth":0,"parameterNumber":2,"parameterNumberName":"U-component_of_WINDS"},"data":[0.0,0.0,0.0,0.0,0.0,0.0,0.0,0.0,0.0,0.0,0.0,0.0,0.0,0.0,0.0,0.0,0.0,0.0,0.0,0.0,0.0,0.0,0.0,0.0,0.0,0.0,0.0,0.0,0.0,0.0,0.0,0.0,0.0,0.0,0.0,0.0,0.0,0.0,0.0,0.0,0.0,0.0,0.0,0.0,0.0,0.0,0.0,0.0,0.0,0.0,0.0,0.0,0.0,0.0,0.0,0.0,0.0,0.0,0.0,0.0,0.0,0.0,0.0,0.0,0.0,0.0,0.0,0.0,0.0,0.0,0.0,0.0,0.0,0.0,0.0,0.0,0.0,0.0,0.0,0.0,0.0,0.0,0.0,0.0,0.0,0.0,0.0,0.0,0.0,0.0,0.0,0.0,0.0,0.0,0.0,0.0,0.0,0.0,0.0,0.0,0.0,0.0,0.0,0.0,0.0,0.0,0.0,0.0,0.0,0.0,0.0,0.0,0.0,0.0,0.0,0.0,0.0,0.0,0.0,0.0,0.0,0.0,0.0,0.0,0.0,0.0,0.0,0.0,0.0,0.0,0.0,0.0,0.0,0.0,0.0,0.0,0.0,0.0,0.0,0.0,0.0,0.0,0.0,0.0,0.0,0.0,0.0,0.0,0.0,0.0,0.0,0.0,0.0,0.0,0.0,0.0,0.0,0.0,0.0,0.0,0.0,0.0,0.0,0.0,0.0,0.0,0.0,0.0,0.0,0.0,0.0,0.0,0.0,0.0,0.0,0.0,0.0,0.0,0.0,0.0,0.0,0.0,0.0,0.0,0.0,0.0,0.0,0.0,0.0,0.0,0.0,0.0,0.0,0.0,0.0,0.0,0.0,0.0,0.0,0.0,0.0,0.0,0.0,0.0,0.0,0.0,0.0,0.0,0.0,0.0,0.0,0.0,0.0,0.0,0.0,0.0,0.0,0.0,0.0,0.0,0.0,0.0,0.0,0.0,0.0,0.0,0.0,0.0,0.0,0.0,0.0,0.0,0.0,0.0,0.0,0.0,0.0,0.0,0.0,0.0,0.0,0.0,0.0,0.0,0.0,0.0,0.0,0.0,0.0,0.0,0.0,0.0,0.0,0.0,0.0,0.0,0.0,0.0,0.0,0.0,0.0,0.0,0.0,0.0,0.0,0.0,0.0,0.0,0.0,0.0,0.0,0.0,0.0,0.0,0.0,0.0,0.0,0.0,0.0,0.0,0.0,0.0,0.0,0.0,0.0,0.0,0.0,0.0,0.0,0.0,0.0,0.0,0.0,0.0,0.0,0.0,0.0,0.0,0.0,0.0,0.0,0.0,0.0,0.0,0.0,0.0,0.0,0.0,0.0,0.0,0.0,0.0,0.0,0.0,0.0,0.0,0.0,0.0,0.0,0.0,0.0,0.0,0.0,0.0,0.0,0.0,0.0,0.0,0.0,0.0,0.0,0.0,0.0,0.0,0.0,0.0,0.0,0.0,0.0,0.0,0.0,0.0,0.0,0.0,0.0,0.0,0.0,0.0,0.0,0.0,0.0,0.0,0.0,0.0,0.0,0.0,0.0,0.0,0.0,0.0,0.0,0.0,0.0,0.0,0.0,0.0,0.0,0.0,0.0,0.0,0.0,0.0,0.0,0.0,0.0,0.0,0.0,0.0,0.0,0.0,0.0,0.0,0.0,0.0,0.0,0.0,0.0,0.0,0.0,0.0,0.0,0.0,0.0,0.0,0.0,0.0,0.0,0.0,0.0,0.0,0.0,0.0,0.0,0.0,0.0,0.0,0.0,0.0,0.0,0.0,0.0,0.0,0.0,0.0,0.0,0.0,0.0,0.0,0.0,0.0,0.0,0.0,0.0,0.0,0.0,0.0,0.0,0.0,0.0,0.0,0.0,0.0,0.0,0.0,0.0,0.0,0.0,0.0,0.0,0.0,0.0,0.0,0.0,0.0,0.0,0.0,0.0,0.0,0.0,0.0,0.0,0.0,0.0,0.0,0.0,0.0,0.0,0.0,0.0,0.0,0.0,0.0,0.0,0.0,0.0,0.0,0.0,0.0,0.0,0.0,0.0,0.0,0.0,0.0,0.0,0.0,0.0,0.0,0.0,0.0,0.0,0.0,0.0,0.0,0.0,0.0,0.0,0.0,0.0,0.0,0.0,0.0,0.0,0.0,0.0,0.0,0.0,0.0,0.0,0.0,0.0,0.0,0.0,0.0,0.0,0.0,0.0,0.0,0.0,0.0,0.0,0.0,0.0,0.0,0.0,0.0,0.0,0.0,0.0,0.0,0.0,0.0,0.0,0.0,0.0,0.0,0.0,0.0,0.0,0.0,0.0,0.0,0.0,0.0,0.0,0.0,0.0,0.0,0.0,0.0,0.0,0.0,0.0,0.0,0.0,0.0,0.0,0.0,0.0,0.0,0.0,0.0,0.0,0.0,0.0,0.0,0.0,0.0,0.0,0.0,0.0,0.0,0.0,0.0,0.0,0.0,0.0,0.0,0.0,0.0,0.0,0.0,0.0,0.0,0.0,0.0,0.0,0.0,0.0,0.0,0.0,0.0,0.0,0.0,0.0,0.0,0.0,0.0,0.0,0.0,0.0,0.0,0.0,0.0,0.0,0.0,0.0,0.0,0.0,0.0,0.0,0.0,0.0,0.0,0.0,0.0,0.0,0.0,0.0,0.0,0.0,0.0,0.0,0.0,0.0,0.0,0.0,0.0,0.0,0.0,0.0,0.0,0.0,0.0,0.0,0.0,0.0,0.0,0.0,0.0,0.0,0.0,0.0,0.0,0.0,0.0,0.0,0.0,0.0,0.0,0.0,0.0,0.0,0.0,0.0,0.0,0.0,0.0,0.0,0.0,0.0,0.0,0.0,0.0,0.0,0.0,0.0,0.0,0.0,0.0,0.0,0.0,0.0,0.0,0.0,0.0,0.0,0.0,0.0,0.0,0.0,0.0,0.0,0.0,0.0,0.0,0.0,0.0,0.0,0.0,0.0,0.0,0.0,0.0,0.0,0.0,0.0,0.0,0.0,0.0,0.0,0.0,0.0,0.0,0.0,0.0,0.0,0.0,0.0,0.0,0.0,0.0,0.0,0.0,0.0,0.0,0.0,0.0,0.0,0.0,0.0,0.0,0.0,0.0,0.0,0.0,0.0,0.0,0.0,0.0,0.0,0.0,0.0,0.0,0.0,0.0,0.0,0.0,0.0,0.0,0.0,0.0,0.0,0.0,0.0,0.0,0.0,0.0,0.0,0.0,0.0,0.0,0.0,0.0,0.0,0.0,0.0,0.0,0.0,0.0,0.0,0.0,0.0,0.0,0.0,0.0,0.0,0.0,0.0,0.0,0.0,0.0,0.0,0.0,0.0,0.0,0.0,0.0,0.0,0.0,0.0,0.0,0.0,0.0,0.0,0.0,0.0,0.0,0.0,0.0,0.0,0.0,0.0,0.0,0.0,0.0,0.0,0.0,0.0,0.0,0.0,0.0,0.0,0.0,0.0,0.0,0.0,0.0,0.0,0.0,0.0,0.0,0.0,0.0,0.0,0.0,0.0,0.0,0.0,0.0,0.0,0.0,0.0,0.0,0.0,0.0,0.0,0.0,0.0,0.0,0.0,0.0,0.0,0.0,0.0,0.0,0.0,0.0,0.0,0.0,0.0,0.0,0.0,0.0,0.0,0.0,0.0,0.0,0.0,0.0,0.0,0.0,0.0,0.0,0.0,0.0,0.0,0.0,0.0,0.0,0.0,0.0,0.0,0.0,0.0,0.0,0.0,0.0,0.0,0.0,0.0,0.0,0.0,0.0,0.0,0.0,0.0,0.0,0.0,0.0,0.0,0.0,0.0,0.0,0.0,0.0,0.0,0.0,0.0,0.0,0.0,0.0,0.0,0.0,0.0,0.0,0.0,0.0,0.0,0.0,0.0,0.0,0.0,0.0,0.0,0.0,0.0,0.0,0.0,0.0,0.0,0.0,0.0,0.0,0.0,0.0,0.0,0.0,0.0,0.0,0.0,0.0,0.0,0.0,0.0,0.0,0.0,0.0,0.0,0.0,0.0,0.0,0.0,0.0,0.0,0.0,0.0,0.0,0.0,0.0,0.0,0.0,0.0,0.0,0.0,0.0,0.0,0.0,0.0,0.0,0.0,0.0,0.0,0.0,0.0,0.0,0.0,0.0,0.0,0.0,0.0,0.0,0.0,0.0,0.0,0.0,0.0,0.0,0.0,0.0,0.0,0.0,0.0,0.0,0.0,0.0,-0.2538,0.0,0.0,0.0,0.0,0.0,0.0,0.0,0.0,0.0,0.0,0.0,0.0,0.0,0.0,0.0,0.0,0.0,0.0,0.0,0.0,0.0,0.0,0.0,0.0,0.0,0.0,0.0,0.0,0.0,0.0,0.0,0.0,0.0,0.0,0.0,0.0,0.0,0.0,0.0,0.0,0.0,0.0,0.0,0.0,0.0,0.0,0.0,0.0,0.0,0.0,0.0,0.0,0.0,0.0,0.0,0.0,0.0,0.0,0.0,0.0,0.0,0.0,0.0,0.0,0.0,0.0,0.0,0.0,0.0,0.0,0.0,0.0,0.0,0.0,0.0,0.0,0.0,0.0,0.0,0.0,0.0,0.0,0.0,0.0,0.0,0.0,0.0,0.0,0.0,0.0,0.0,0.0,0.0,0.0,0.0,0.0,0.0,0.0,0.0,0.0,0.0,0.0,0.0,0.0,0.0,0.0,0.0,0.0,0.0,0.0,-0.0645,-0.1156,-0.1723,-0.2354,-0.307,0.0,0.0,0.0,0.0,0.0,0.0,0.0,0.0,0.0,0.0,0.0,0.0,0.0,0.0,0.0,0.0,0.0,0.0,0.0,0.0,0.0,0.0,0.0,0.0,0.0,0.0,0.0,0.0,0.0,0.0,0.0,0.0,0.0,0.0,0.0,0.0,0.0,0.0,0.0,0.0,0.0,0.0,0.0,0.0,0.0,0.0,0.0,0.0,0.0,0.0,0.0,0.0,0.0,0.0,0.0,0.0,0.0,0.0,0.0,0.0,0.0,0.0,0.0,0.0,0.0,0.0,0.0,0.0,0.0,0.0,0.0,0.0,0.0,0.0,0.0,0.0,0.0,0.0,0.0,0.0,0.0,0.0,0.0,0.0,0.0,0.0,0.0,0.0,0.0,0.0,0.0,0.0,0.0,0.0,0.0,0.0,0.0,0.0,0.0,0.0,0.0,0.0,0.0,0.0,0.0,0.0,0.0,0.0,0.0,0.0,0.0,0.0,-0.2237,-0.2905,-0.376,0.0,0.0,0.0,0.0,0.0,0.0,0.0,0.0,0.0,0.0,0.0,0.0,0.0,0.0,0.0,0.0,0.0,0.0,0.0,0.0,0.0,0.0,0.0,0.0,0.0,0.0,0.0,0.0,0.0,0.0,0.0,0.0,0.0,0.0,0.0,0.0,0.0,0.0,0.0,0.0,0.0,0.0,0.0,0.0,0.0,0.0,0.0,0.0,0.0,0.0,0.0,0.0,0.0,0.0,0.0,0.0,0.0,0.0,0.0,0.0,0.0,0.0,0.0,0.0,0.0,0.0,0.0,0.0,0.0,0.0,0.0,0.0,0.0,0.0,0.0,0.0,0.0,0.0,0.0,0.0,0.0,0.0,0.0,0.0,0.0,0.0,0.0,0.0,0.0,0.0,0.0,0.0,0.0,0.0,0.0,0.0,0.0,0.0,0.0,0.0,0.0,0.0,0.0,0.0,0.0,0.0,0.0,0.0,0.0,0.0,-0.1161,-0.1786,-0.2816,0.0,-0.463,0.0,0.0,0.0,0.0,0.0,0.0,0.0,0.0,0.0,0.0,0.0,0.0,0.0,0.0,0.0,0.0,0.0,0.0,0.0,0.0,0.0,0.0,0.0,0.0,0.0,0.0,0.0,0.0,0.0,0.0,0.0,0.0,0.0,0.0,0.0,0.0,0.0,0.0,0.0,0.0,0.0,0.0,0.0,0.0,0.0,0.0,0.0,0.0,0.0,0.0,0.0,0.0,0.0,0.0,0.0,0.0,0.0,0.0,0.0,0.0,0.0,0.0,0.0,0.0,0.0,0.0,0.0,0.0,0.0,0.0,0.0,0.0,0.0,0.0,0.0,0.0,0.0,0.0,0.0,0.0,0.0,0.0,0.0,0.0,0.0,0.0,0.0,0.0,0.0,0.0,0.0,0.0,0.0,0.0,0.0,0.0,0.0,0.0,0.0,0.0,0.0,0.0,0.0,0.0,0.0,0.0,0.0,0.0,0.0,0.0,-0.1523,-0.2311,-0.3247,-0.4073,0.0,0.0,0.0,0.0,0.0,0.0,0.0,0.0,0.0,0.0,0.0,0.0,0.0,0.0,0.0,0.0,0.0,0.0,0.0,0.0,0.0,0.0,0.0,0.0,0.0,0.0,0.0,0.0,0.0,0.0,0.0,0.0,0.0,0.0,0.0,0.0,0.0,0.0,0.0,0.0,0.0,0.0,0.0,0.0,0.0,0.0,0.0,0.0,0.0,0.0,0.0,0.0,0.0,0.0,0.0,0.0,0.0,0.0,0.0,0.0,0.0,0.0,0.0,0.0,0.0,0.0,0.0,0.0,0.0,0.0,0.0,0.0,0.0,0.0,0.0,0.0,0.0,0.0,0.0,0.0,0.0,0.0,0.0,0.0,0.0,0.0,0.0,0.0,0.0,0.0,0.0,0.0,0.0,0.0,0.0,0.0,0.0,0.0,0.0,0.0,0.0,0.0,0.0,0.0,0.0,0.0,0.0,0.0,0.0,0.0,-0.1294,0.0,-0.3002,-0.3686,-0.427,-0.4775,0.0,0.0,0.0,0.0,0.0,0.0,0.0,0.0,0.0,0.0,0.0,0.0,0.0,0.0,0.0,0.0,0.0,0.0,0.0,0.0,0.0,0.0,0.0,0.0,0.0,0.0,0.0,0.0,0.0,0.0,0.0,0.0,0.0,0.0,0.0,0.0,0.0,0.0,0.0,0.0,0.0,0.0,0.0,0.0,0.0,0.0,0.0,0.0,0.0,0.0,0.0,0.0,0.0,0.0,0.0,0.0,0.0,0.0,0.0,0.0,0.0,0.0,0.0,0.0,0.0,0.0,0.0,0.0,0.0,0.0,0.0,0.0,0.0,0.0,0.0,0.0,0.0,0.0,0.0,0.0,0.0,0.0,0.0,0.0,0.0,0.0,0.0,0.0,0.0,0.0,0.0,0.0,0.0,0.0,0.0,0.0,0.0,0.0,0.0,0.0,0.0,0.0,0.0,0.0,0.0,0.0,0.0,0.0,0.0,-0.1606,-0.2164,-0.3879,-0.4221,-0.4511,0.0,0.0,0.0,0.0,0.0,0.0,0.0,0.0,0.0,0.0,0.0,0.0,0.0,0.0,0.0,0.0,0.0,0.0,0.0,0.0,0.0,0.0,0.0,0.0,0.0,0.0,0.0,0.0,0.0,0.0,0.0,0.0,0.0,0.0,0.0,0.0,0.0,0.0,0.0,0.0,0.0,0.0,0.0,0.0,0.0,0.0,0.0,0.0,0.0,0.0,0.0,0.0,0.0,0.0,0.0,0.0,0.0,0.0,0.0,0.0,0.0,0.0,0.0,0.0,0.0,0.0,0.0,0.0,0.0,0.0,0.0,0.0,0.0,0.0,0.0,0.0,0.0,0.0,0.0,0.0,0.0,0.0,0.0,0.0,0.0,0.0,0.0,0.0,0.0,0.0,0.0,0.0,0.0,0.0,0.0,0.0,0.0,0.0,0.0,0.0,0.0,0.0,0.0,0.0,0.0,0.0,0.0,0.0,0.0,-0.1911,-0.2278,-0.3207,-0.4734,-0.4346,-0.4484,0.0,0.0,0.0,0.0,0.0,0.0,0.0,0.0,0.0,0.0,0.0,0.0,0.0,0.0,0.0,0.0,0.0,0.0,0.0,0.0,0.0,0.0,0.0,0.0,0.0,0.0,0.0,0.0,0.0,0.0,0.0,0.0,0.0,0.0,0.0,0.0,0.0,0.0,0.0,0.0,0.0,0.0,0.0,0.0,0.0,0.0,0.0,0.0,0.0,0.0,0.0,0.0,0.0,0.0,0.0,0.0,0.0,0.0,0.0,0.0,0.0,0.0,0.0,0.0,0.0,0.0,0.0,0.0,0.0,0.0,0.0,0.0,0.0,0.0,0.0,0.0,0.0,0.0,0.0,0.0,0.0,0.0,0.0,0.0,0.0,0.0,0.0,0.0,0.0,0.0,0.0,0.0,0.0,0.0,0.0,0.0,0.0,0.0,0.0,0.0,0.0,0.0,0.0,0.0,0.0,0.0,0.0,0.0,0.0,-0.2847,0.0,-0.4831,0.0,-0.5127,-0.5002,0.0,0.0,0.0,0.0,0.0,0.0,0.0,0.0,0.0,0.0,0.0,0.0,0.0,0.0,0.0,0.0,0.0,0.0,0.0,0.0,0.0,0.0,0.0,0.0,0.0,0.0,0.0,0.0,0.0,0.0,0.0,0.0,0.0,0.0,0.0,0.0,0.0,0.0,0.0,0.0,0.0,0.0,0.0,0.0,0.0,0.0,0.0,0.0,0.0,0.0,0.0,0.0,0.0,0.0,0.0,0.0,0.0,0.0,0.0,0.0,0.0,0.0,0.0,0.0,0.0,0.0,0.0,0.0,0.0,0.0,0.0,0.0,0.0,0.0,0.0,0.0,0.0,0.0,0.0,0.0,0.0,0.0,0.0,0.0,0.0,0.0,0.0,0.0,0.0,0.0,0.0,0.0,0.0,0.0,0.0,0.0,0.0,0.0,0.0,0.0,0.0,0.0,0.0,0.0,0.0,0.0,0.0,0.0,-0.3237,-0.506,-0.6466,-0.6991,-0.6492,-0.6675,-0.6154,0.0,0.0,0.0,0.0,0.0,0.0,0.0,0.0,0.0,0.0,0.0,0.0,0.0,0.0,0.0,0.0,0.0,0.0,0.0,0.0,0.0,0.0,0.0,0.0,0.0,0.0,0.0,0.0,0.0,0.0,0.0,0.0,0.0,0.0,0.0,0.0,0.0,0.0,0.0,0.0,0.0,0.0,0.0,0.0,0.0,0.0,0.0,0.0,0.0,0.0,0.0,0.0,0.0,0.0,0.0,0.0,0.0,0.0,0.0,0.0,0.0,0.0,0.0,0.0,0.0,0.0,0.0,0.0,0.0,0.0,0.0,0.0,0.0,0.0,0.0,0.0,0.0,0.0,0.0,0.0,0.0,0.0,0.0,0.0,0.0,0.0,0.0,0.0,0.0,0.0,0.0,0.0,0.0,0.0,0.0,0.0,0.0,0.0,0.0,0.0,0.0,0.0,0.0,0.0,0.0,0.0,0.0,0.0,0.0,-0.6205,-0.8371,-0.9486,-0.9338,-0.8142,-0.7505,0.0,0.0,0.0,0.0,0.0,0.0,0.0,0.0,0.0,0.0,0.0,0.0,0.0,0.0,0.0,0.0,0.0,0.0,0.0,0.0,0.0,0.0,0.0,0.0,0.0,0.0,0.0,0.0,0.0,0.0,0.0,0.0,0.0,0.0,0.0,0.0,0.0,0.0,0.0,0.0,0.0,0.0,0.0,0.0,0.0,0.0,0.0,0.0,0.0,0.0,0.0,0.0,0.0,0.0,0.0,0.0,0.0,0.0,0.0,0.0,0.0,0.0,0.0,0.0,0.0,0.0,0.0,0.0,0.0,0.0,0.0,0.0,0.0,0.0,0.0,0.0,0.0,0.0,0.0,0.0,0.0,0.0,0.0,0.0,0.0,0.0,0.0,0.0,0.0,0.0,0.0,0.0,0.0,0.0,0.0,0.0,0.0,0.0,0.0,0.0,0.0,0.0,0.0,0.0,0.0,0.0,0.0,0.0,0.0,-0.9751,-1.1493,-1.2255,-1.1745,-1.021,-0.9118,-0.8566,0.0,0.0,0.0,0.0,0.0,0.0,0.0,0.0,0.0,0.0,0.0,0.0,0.0,0.0,0.0,0.0,0.0,0.0,0.0,0.0,0.0,0.0,0.0,0.0,0.0,0.0,0.0,0.0,0.0,0.0,0.0,0.0,0.0,0.0,0.0,0.0,0.0,0.0,0.0,0.0,0.0,0.0,0.0,0.0,0.0,0.0,0.0,0.0,0.0,0.0,0.0,0.0,0.0,0.0,0.0,0.0,0.0,0.0,0.0,0.0,0.0,0.0,0.0,0.0,0.0,0.0,0.0,0.0,0.0,0.0,0.0,0.0,0.0,0.0,0.0,0.0,0.0,0.0,0.0,0.0,0.0,0.0,0.0,0.0,0.0,0.0,0.0,0.0,0.0,0.0,0.0,0.0,0.0,0.0,0.0,0.0,0.0,0.0,0.0,0.0,0.0,0.0,0.0,0.0,0.0,0.0,0.0,0.0,-1.4839,-1.5579,-1.5264,-1.3824,-1.2688,-1.0977,0.0,0.0,0.0,0.0,0.0,0.0,0.0,0.0,0.0,0.0,0.0,0.0,0.0,0.0,0.0,0.0,0.0,0.0,0.0,0.0,0.0,0.0,0.0,0.0,0.0,0.0,0.0,0.0,0.0,0.0,0.0,0.0,0.0,0.0,0.0,0.0,0.0,0.0,0.0,0.0,0.0,0.0,0.0,0.0,0.0,0.0,0.0,0.0,0.0,0.0,0.0,0.0,0.0,0.0,0.0,0.0,0.0,0.0,0.0,0.0,0.0,0.0,0.0,0.0,0.0,0.0,0.0,0.0,0.0,0.0,0.0,0.0,0.0,0.0,0.0,0.0,0.0,0.0,0.0,0.0,0.0,0.0,0.0,0.0,0.0,0.0,0.0,0.0,0.0,0.0,0.0,0.0,0.0,0.0,0.0,0.0,0.0,0.0,0.0,0.0,0.0,0.0,0.0,0.0,0.0,0.0,0.0,0.0,0.0,-1.6693,-1.8243,-1.8516,-1.7258,-1.4705,-1.2879,0.0,0.0,0.0,0.0,0.0,0.0,0.0,0.0,0.0,0.0,0.0,0.0,0.0,0.0,0.0,0.0,0.0,0.0,0.0,0.0,0.0,0.0,0.0,0.0,0.0,0.0,0.0,0.0,0.0,0.0,0.0,0.0,0.0,0.0,0.0,0.0,0.0,0.0,0.0,0.0,0.0,0.0,0.0,0.0,0.0,0.0,0.0,0.0,0.0,0.0,0.0,0.0,0.0,0.0,0.0,0.0,0.0,0.0,0.0,0.0,0.0,0.0,0.0,0.0,0.0,0.0,0.0,0.0,0.0,0.0,0.0,0.0,0.0,0.0,0.0,0.0,0.0,0.0,0.0,0.0,0.0,0.0,0.0,0.0,0.0,0.0,0.0,0.0,0.0,0.0,0.0,0.0,0.0,0.0,0.0,0.0,0.0,0.0,0.0,0.0,0.0,0.0,0.0,0.0,0.0,0.0,0.0,0.0,-1.6957,-1.9193,-1.9955,-2.0235,-2.0079,-1.6954,-1.4589,0.0,0.0,0.0,0.0,0.0,0.0,0.0,0.0,0.0,0.0,0.0,0.0,0.0,0.0,0.0,0.0,0.0,0.0,0.0,0.0,0.0,0.0,0.0,0.0,0.0,0.0,0.0,0.0,0.0,0.0,0.0,0.0,0.0,0.0,0.0,0.0,0.0,0.0,0.0,0.0,0.0,0.0,0.0,0.0,0.0,0.0,0.0,0.0,0.0,0.0,0.0,0.0,0.0,0.0,0.0,0.0,0.0,0.0,0.0,0.0,0.0,0.0,0.0,0.0,0.0,0.0,0.0,0.0,0.0,0.0,0.0,0.0,0.0,0.0,0.0,0.0,0.0,0.0,0.0,0.0,0.0,0.0,0.0,0.0,0.0,0.0,0.0,0.0,0.0,0.0,0.0,0.0,0.0,0.0,0.0,0.0,0.0,0.0,0.0,0.0,0.0,0.0,0.0,0.0,0.0,0.0,0.0,0.0,-1.8645,-2.1702,-2.1021,-2.1055,-2.1968,-1.9034,-1.6105,0.0,0.0,0.0,0.0,0.0,0.0,0.0,0.0,0.0,0.0,0.0,0.0,0.0,0.0,0.0,0.0,0.0,0.0,0.0,0.0,0.0,0.0,0.0,0.0,0.0,0.0,0.0,0.0,0.0,0.0,0.0,0.0,0.0,0.0,0.0,0.0,0.0,0.0,0.0,0.0,0.0,0.0,0.0,0.0,0.0,0.0,0.0,0.0,0.0,0.0,0.0,0.0,0.0,0.0,0.0,0.0,0.0,0.0,0.0,0.0,0.0,0.0,0.0,0.0,0.0,0.0,0.0,0.0,0.0,0.0,0.0,0.0,0.0,0.0,0.0,0.0,0.0,0.0,0.0,0.0,0.0,0.0,0.0,0.0,0.0,0.0,0.0,0.0,0.0,0.0,0.0,0.0,0.0,0.0,0.0,0.0,0.0,0.0,0.0,0.0,0.0,0.0,0.0,0.0,0.0,0.0,0.0,0.0,-1.9655,-2.1733,-2.2262,-2.2378,-2.2114,-1.939,-1.7018,0.0,0.0,0.0,0.0,0.0,0.0,0.0,0.0,0.0,0.0,0.0,0.0,0.0,0.0,0.0,0.0,0.0,0.0,0.0,0.0,0.0,0.0,0.0,0.0,0.0,0.0,0.0,0.0,0.0,0.0,0.0,0.0,0.0,0.0,0.0,0.0,0.0,0.0,0.0,0.0,0.0,0.0,0.0,0.0,0.0,0.0,0.0,0.0,-0.1924,0.0,0.0,0.0,0.0,0.0,0.0,0.0,0.0,0.0,0.0,0.0,0.0,0.0,0.0,0.0,0.0,0.0,0.0,0.0,0.0,0.0,0.0,0.0,0.0,0.0,0.0,0.0,0.0,0.0,0.0,0.0,0.0,0.0,0.0,0.0,0.0,0.0,0.0,0.0,0.0,0.0,0.0,0.0,0.0,0.0,0.0,0.0,0.0,0.0,0.0,0.0,0.0,0.0,0.0,0.0,0.0,0.0,0.0,0.0,-2.1019,-2.2989,-2.3093,-2.2928,-2.2546,-2.0475,-1.7966,0.0,0.0,0.0,0.0,0.0,0.0,0.0,0.0,0.0,0.0,0.0,0.0,0.0,0.0,0.0,0.0,0.0,0.0,0.0,0.0,0.0,0.0,0.0,0.0,0.0,0.0,0.0,0.0,0.0,0.0,0.0,0.0,0.0,0.0,0.0,0.0,0.0,0.0,0.0,0.0,0.0,0.0,0.0,0.0,0.0,0.0,0.0,0.0,0.0,0.0,0.0,0.0,0.0,0.0,0.0,0.0,0.0,0.0,0.0,0.0,0.0,0.0,0.0,0.0,0.0,0.0,0.0,0.0,0.0,0.0,0.0,0.0,0.0,0.0,0.0,0.0,0.0,0.0,0.0,0.0,0.0,0.0,0.0,0.0,0.0,0.0,0.0,0.0,0.0,0.0,0.0,0.0,0.0,0.0,0.0,0.0,0.0,0.0,0.0,0.0,0.0,0.0,0.0,0.0,0.0,0.0,0.0,-1.9391,-2.2158,-2.436,-2.3866,-2.3451,-2.3208,-2.1756,-1.8858,-1.4475,0.0,0.0,0.0,0.0,0.0,0.0,0.0,0.0,0.0,0.0,0.0,0.0,0.0,0.0,0.0,0.0,0.0,0.0,0.0,0.0,0.0,0.0,0.0,0.0,0.0,0.0,0.0,0.0,0.0,0.0,0.0,0.0,0.0,0.0,0.0,0.0,0.0,0.0,-0.4722,-0.5712,0.0,0.0,0.0,0.0,0.0,0.0,0.0,0.0,-0.3812,0.0,0.0,0.0,0.0,0.0,0.0,0.0,0.0,0.0,0.0,0.0,0.0,0.0,0.0,0.0,0.0,0.0,0.0,0.0,0.0,0.0,0.0,0.0,0.0,0.0,0.0,0.0,0.0,0.0,0.0,0.0,0.0,0.0,0.0,0.0,0.0,0.0,0.0,0.0,0.0,0.0,0.0,0.0,0.0,0.0,0.0,0.0,0.0,0.0,0.0,0.0,0.0,0.0,0.0,0.0,0.0,-1.8382,-1.9941,-2.1905,-2.4441,-2.5195,-2.4775,-2.3258,-2.2509,-1.9656,-1.4607,0.0,0.0,0.0,0.0,0.0,0.0,0.0,0.0,0.0,0.0,0.0,0.0,0.0,0.0,0.0,0.0,0.0,0.0,0.0,0.0,0.0,0.0,0.0,0.0,0.0,0.0,0.0,0.0,0.0,0.0,0.0,0.0,0.0,0.0,0.0,0.0,0.0,0.0,0.0,-0.73,-0.8064,0.0,0.0,0.0,0.0,0.0,0.0,0.0,0.0,-0.596,0.0,0.0,0.0,0.0,0.0,0.0,0.0,0.0,0.0,0.0,0.0,0.0,0.0,0.0,0.0,0.0,0.0,0.0,0.0,0.0,0.0,0.0,0.0,0.0,0.0,0.0,0.0,0.0,0.0,0.0,0.0,0.0,0.0,0.0,0.0,0.0,0.0,0.0,0.0,0.0,0.0,0.0,0.0,0.0,0.0,0.0,0.0,0.0,0.0,0.0,0.0,0.0,0.0,0.0,0.0,-1.7898,-2.0814,-2.3015,-2.446,-2.5479,-2.5109,-2.3242,-2.202,-1.9159,0.0,0.0,0.0,0.0,0.0,0.0,0.0,0.0,0.0,0.0,0.0,0.0,0.0,0.0,0.0,0.0,0.0,0.0,0.0,0.0,0.0,0.0,0.0,0.0,0.0,0.0,0.0,0.0,0.0,0.0,0.0,0.0,0.0,0.0,0.0,0.0,0.0,0.0,0.0,0.0,-0.9254,-0.9975,-1.0069,0.0,0.0,0.0,0.0,0.0,0.0,-0.7115,-0.8266,0.0,0.0,0.0,0.0,0.0,0.0,0.0,0.0,0.0,0.0,0.0,0.0,0.0,0.0,0.0,0.0,0.0,0.0,0.0,0.0,0.0,0.0,0.0,0.0,0.0,0.0,0.0,0.0,0.0,0.0,0.0,0.0,0.0,0.0,0.0,0.0,0.0,0.0,0.0,0.0,0.0,0.0,0.0,0.0,0.0,0.0,0.0,0.0,0.0,0.0,0.0,0.0,0.0,0.0,0.0,-1.7295,-2.1427,-2.3944,-2.4713,-2.5647,-2.5216,-2.3275,-2.1811,-1.8949,0.0,0.0,0.0,0.0,0.0,0.0,0.0,0.0,0.0,0.0,0.0,0.0,0.0,0.0,0.0,0.0,0.0,0.0,0.0,0.0,0.0,0.0,0.0,0.0,0.0,0.0,0.0,0.0,0.0,0.0,0.0,0.0,0.0,0.0,0.0,0.0,0.0,0.0,0.0,0.0,0.0,-1.2268,-1.2521,-1.1618,0.0,0.0,0.0,0.0,-1.0374,-1.0595,0.0,0.0,0.0,0.0,0.0,0.0,0.0,0.0,0.0,0.0,0.0,0.0,0.0,0.0,0.0,0.0,0.0,0.0,0.0,0.0,0.0,0.0,0.0,0.0,0.0,0.0,0.0,0.0,0.0,0.0,0.0,0.0,0.0,0.0,0.0,0.0,0.0,0.0,0.0,0.0,0.0,0.0,0.0,0.0,0.0,0.0,0.0,0.0,0.0,0.0,0.0,0.0,0.0,0.0,0.0,0.0,-1.8023,-2.0958,-2.3467,-2.539,-2.6202,-2.5529,-2.3293,-2.2996,-2.0338,0.0,0.0,0.0,0.0,0.0,0.0,0.0,0.0,0.0,0.0,0.0,0.0,0.0,0.0,0.0,0.0,0.0,0.0,0.0,0.0,0.0,0.0,0.0,0.0,0.0,0.0,0.0,0.0,0.0,0.0,0.0,0.0,0.0,0.0,0.0,0.0,0.0,0.0,0.0,0.0,0.0,-1.5318,-1.3986,-1.415,-1.4394,0.0,0.0,-1.4335,-1.5488,-1.4309,0.0,0.0,0.0,0.0,0.0,0.0,0.0,0.0,0.0,0.0,0.0,0.0,0.0,0.0,0.0,0.0,0.0,0.0,0.0,0.0,0.0,0.0,0.0,0.0,0.0,0.0,0.0,0.0,0.0,0.0,0.0,0.0,0.0,0.0,0.0,0.0,0.0,0.0,0.0,0.0,0.0,0.0,0.0,0.0,0.0,0.0,0.0,0.0,0.0,0.0,0.0,0.0,0.0,0.0,0.0,-1.5664,-1.8703,-2.1903,-2.4222,-2.5542,-2.6319,-2.558,-2.3243,-2.2472,-1.9781,0.0,0.0,0.0,0.0,0.0,0.0,0.0,0.0,0.0,0.0,0.0,0.0,0.0,0.0,0.0,0.0,0.0,0.0,0.0,0.0,0.0,0.0,0.0,0.0,0.0,0.0,0.0,0.0,0.0,0.0,0.0,0.0,0.0,0.0,0.0,0.0,0.0,0.0,0.0,0.0,0.0,0.0,-1.6066,-1.6197,0.0,0.0,0.0,-1.6921,-1.6595,0.0,0.0,0.0,0.0,0.0,0.0,0.0,0.0,0.0,0.0,0.0,0.0,0.0,0.0,0.0,0.0,0.0,0.0,0.0,0.0,0.0,0.0,0.0,0.0,0.0,0.0,0.0,0.0,0.0,0.0,0.0,0.0,0.0,0.0,0.0,0.0,0.0,0.0,0.0,0.0,0.0,0.0,0.0,0.0,0.0,0.0,0.0,0.0,0.0,0.0,0.0,0.0,0.0,0.0,0.0,0.0,0.0,-1.9394,-2.2772,-2.4948,-2.5845,-2.642,-2.5631,-2.3431,-2.228,0.0,0.0,0.0,0.0,0.0,0.0,0.0,0.0,0.0,0.0,0.0,0.0,0.0,0.0,0.0,0.0,0.0,0.0,0.0,0.0,0.0,0.0,0.0,0.0,0.0,0.0,0.0,-0.2391,0.0,0.0,0.0,0.0,0.0,0.0,0.0,0.0,0.0,0.0,0.0,0.0,0.0,0.0,-1.751,-1.7772,-1.8133,-1.8584,0.0,0.0,-1.9245,-1.7773,-1.773,-1.7017,0.0,0.0,0.0,0.0,0.0,0.0,0.0,0.0,0.0,0.0,0.0,0.0,0.0,0.0,0.0,0.0,0.0,0.0,0.0,0.0,0.0,0.0,0.0,0.0,0.0,0.0,0.0,0.0,0.0,0.0,0.0,0.0,0.0,0.0,0.0,0.0,0.0,0.0,0.0,0.0,0.0,0.0,0.0,0.0,0.0,0.0,0.0,0.0,0.0,0.0,0.0,0.0,0.0,0.0,0.0,-2.0165,-2.3055,-2.5185,-2.6556,-2.6674,-2.5782,-2.3918,-2.3336,-2.0667,0.0,0.0,0.0,0.0,0.0,0.0,0.0,0.0,0.0,0.0,0.0,0.0,0.0,0.0,0.0,0.0,0.0,0.0,0.0,0.0,0.0,0.0,0.0,0.0,0.0,0.0,0.0,0.0,0.0,0.0,0.0,0.0,0.0,0.0,0.0,0.0,0.0,0.0,0.0,0.0,0.0,-1.9894,-1.854,-2.0106,-2.1242,0.0,-2.1237,-2.1281,-2.0508,-1.9615,-1.8213,-1.5938,0.0,0.0,0.0,0.0,0.0,0.0,0.0,0.0,0.0,0.0,0.0,0.0,0.0,0.0,0.0,0.0,0.0,0.0,0.0,0.0,0.0,0.0,0.0,0.0,0.0,0.0,0.0,0.0,0.0,0.0,0.0,0.0,0.0,0.0,0.0,0.0,0.0,0.0,0.0,0.0,0.0,0.0,0.0,0.0,0.0,0.0,0.0,0.0,0.0,0.0,0.0,0.0,0.0,-1.7407,-2.0804,-2.3274,-2.5218,-2.6623,-2.6708,-2.6017,-2.4629,-2.3694,-2.1255,0.0,0.0,0.0,0.0,0.0,0.0,0.0,0.0,0.0,0.0,0.0,0.0,0.0,0.0,0.0,0.0,0.0,0.0,0.0,0.0,0.0,0.0,0.0,0.0,0.0,0.0,0.0,0.0,-0.4709,-0.4783,-0.4955,0.0,0.0,0.0,0.0,0.0,0.0,0.0,0.0,0.0,0.0,-2.0243,-2.0741,-2.1325,0.0,0.0,-2.2104,-2.2104,-2.1425,-2.0828,-1.9725,-1.7633,-1.6214,0.0,0.0,0.0,0.0,0.0,0.0,0.0,0.0,0.0,0.0,0.0,0.0,0.0,0.0,0.0,0.0,0.0,0.0,0.0,0.0,0.0,0.0,0.0,0.0,0.0,0.0,0.0,0.0,0.0,0.0,0.0,0.0,0.0,0.0,0.0,0.0,0.0,0.0,0.0,0.0,0.0,0.0,0.0,0.0,0.0,0.0,0.0,0.0,0.0,0.0,0.0,0.0,-1.8,-2.1163,-2.381,-2.5659,-2.6657,-2.6911,-2.6438,-2.5213,-2.3893,-2.1721,0.0,0.0,0.0,0.0,0.0,0.0,0.0,0.0,0.0,0.0,0.0,0.0,0.0,0.0,0.0,0.0,0.0,0.0,0.0,0.0,0.0,0.0,0.0,0.0,0.0,0.0,0.0,0.0,-0.6368,-0.635,-0.615,0.0,0.0,0.0,0.0,0.0,0.0,0.0,0.0,0.0,0.0,-2.1186,-2.2149,-2.2263,-2.2368,-2.2652,-2.2853,-2.2652,-2.1829,-2.1476,-2.0684,-1.8825,0.0,0.0,0.0,0.0,0.0,0.0,0.0,0.0,0.0,0.0,0.0,0.0,0.0,0.0,0.0,0.0,0.0,0.0,0.0,0.0,0.0,0.0,0.0,0.0,0.0,0.0,0.0,-0.7031,0.0,0.0,-0.7338,0.0,0.0,0.0,0.0,0.0,0.0,0.0,0.0,0.0,0.0,0.0,0.0,0.0,0.0,0.0,0.0,0.0,0.0,0.0,0.0,0.0,0.0,-1.8531,-2.1211,-2.4779,-2.6674,-2.6742,-2.7401,-2.708,-2.5644,-2.4063,-2.2096,-1.9672,0.0,0.0,0.0,0.0,0.0,0.0,0.0,0.0,0.0,0.0,0.0,0.0,0.0,0.0,0.0,0.0,0.0,0.0,0.0,0.0,0.0,0.0,0.0,0.0,0.0,0.0,-0.7846,-0.8075,-0.7999,0.0,0.0,0.0,0.0,0.0,0.0,0.0,0.0,0.0,0.0,-2.1155,-2.3067,-2.2435,-2.3011,-2.355,-2.358,-2.3595,-2.3176,-2.1979,-2.1505,-2.0817,0.0,0.0,0.0,0.0,0.0,0.0,0.0,0.0,0.0,0.0,0.0,0.0,0.0,0.0,0.0,0.0,0.0,0.0,0.0,0.0,0.0,0.0,0.0,0.0,0.0,0.0,0.0,-1.0964,-1.0198,0.0,0.0,0.0,0.0,0.0,0.0,0.0,0.0,0.0,0.0,0.0,-1.9905,-2.0574,0.0,0.0,0.0,0.0,0.0,0.0,0.0,0.0,0.0,0.0,0.0,0.0,-1.9832,-2.2572,-2.5297,-2.7199,-2.8197,-2.7942,-2.757,-2.7063,-2.5327,-2.278,-1.9338,0.0,0.0,0.0,0.0,0.0,0.0,0.0,0.0,0.0,0.0,0.0,0.0,0.0,0.0,0.0,0.0,0.0,0.0,0.0,0.0,0.0,0.0,0.0,0.0,0.0,-0.8344,0.0,0.0,0.0,0.0,0.0,0.0,0.0,0.0,0.0,0.0,0.0,-1.9869,-2.1447,-2.2393,-2.3151,-2.3729,-2.4081,-2.4425,0.0,0.0,0.0,0.0,0.0,0.0,0.0,0.0,0.0,0.0,0.0,0.0,0.0,0.0,-2.0729,-1.7102,-1.5822,-1.5692,-1.6803,0.0,0.0,0.0,0.0,0.0,0.0,0.0,0.0,0.0,0.0,0.0,0.0,0.0,0.0,-1.4844,-1.4187,-1.3401,0.0,0.0,0.0,0.0,0.0,0.0,0.0,0.0,-2.0705,-2.2227,-2.3086,-2.3991,-2.4275,0.0,-2.2697,-2.0228,0.0,0.0,0.0,0.0,0.0,0.0,0.0,0.0,-2.1054,-2.3337,-2.613,-2.7945,-2.8632,-2.863,-2.8348,-2.7789,-2.5807,-2.2998,-1.9341,-1.7503,-1.5667,0.0,0.0,0.0,0.0,0.0,0.0,0.0,0.0,0.0,0.0,0.0,0.0,0.0,0.0,0.0,0.0,0.0,0.0,0.0,0.0,0.0,0.0,0.0,-0.9942,0.0,0.0,0.0,0.0,0.0,0.0,0.0,0.0,0.0,-2.3231,-2.2644,-2.2548,-2.4249,-2.4385,-2.4542,-2.5197,0.0,0.0,0.0,0.0,0.0,0.0,0.0,-2.3879,-2.45,-2.4582,-2.4403,-2.4029,-2.4148,-2.4373,-2.456,0.0,0.0,-2.0518,-1.9473,-1.9428,-2.0259,-2.0814,-2.1186,-2.1345,-2.2015,-2.2441,0.0,0.0,0.0,0.0,0.0,0.0,0.0,0.0,-1.8655,-1.8902,0.0,-1.7634,0.0,0.0,0.0,0.0,-1.626,-1.8964,0.0,0.0,-2.4648,-2.6288,-2.5809,-2.7001,-2.7315,-2.6707,-2.6626,-2.557,-2.3498,-1.9235,0.0,0.0,0.0,0.0,0.0,0.0,-2.2201,-2.36,-2.7215,-2.882,-2.8241,-2.9379,-2.9272,-2.7735,-2.5417,-2.2807,-1.9963,-1.9124,-1.7721,-1.5566,-1.3648,0.0,0.0,0.0,0.0,0.0,0.0,0.0,0.0,0.0,0.0,0.0,0.0,0.0,0.0,0.0,0.0,0.0,0.0,0.0,0.0,-1.044,0.0,0.0,0.0,0.0,0.0,0.0,0.0,0.0,0.0,0.0,-2.4439,-2.5466,-2.6254,-2.6489,0.0,0.0,0.0,0.0,-2.5944,-2.6632,-2.6153,-2.5779,-2.5779,-2.6078,-2.6012,-2.4978,0.0,0.0,-2.4978,-2.5277,-2.557,-2.4903,-2.5442,-2.5734,-2.5636,-2.4328,-2.3723,-2.4365,-2.4551,-2.4731,-2.4599,-2.5015,-2.5479,-2.4796,0.0,0.0,0.0,0.0,-2.1843,-2.2637,-2.4081,-2.4236,-2.3635,-2.2461,-2.1733,0.0,0.0,0.0,0.0,0.0,0.0,-2.3412,-2.4827,-2.6518,-2.744,-2.7784,-2.8633,-2.8933,-2.8738,-2.8274,-2.7724,-2.7081,-2.4881,-2.1784,-1.7971,0.0,0.0,0.0,0.0,-2.3767,-2.559,-2.7556,-2.871,-2.9033,-2.8897,-2.8115,-2.6698,-2.469,-2.3004,-2.1652,-2.0657,-1.9176,-1.7141,-1.592,0.0,0.0,0.0,0.0,0.0,0.0,0.0,0.0,0.0,0.0,0.0,0.0,0.0,0.0,0.0,0.0,0.0,0.0,0.0,-1.1903,-1.2456,-1.3386,0.0,0.0,0.0,0.0,0.0,0.0,0.0,0.0,0.0,-2.7777,-2.7807,-2.7663,0.0,0.0,-2.8015,-2.7394,-2.7545,-2.7964,-2.8622,-2.8588,0.0,-2.8442,-2.8184,-2.7993,-2.8143,-2.8468,-2.8543,-2.8218,-2.8038,-2.8019,-2.8098,-2.8577,-2.87,-2.7949,-2.6117,-2.5024,-2.5601,-2.5832,-2.5728,-2.5409,-2.5564,-2.5799,-2.9953,-2.7938,-2.5601,-2.5224,-2.615,-2.6021,-2.6797,-2.8143,-2.8143,-2.7552,-2.6539,-2.5967,-2.4646,-2.2731,-2.2214,0.0,0.0,0.0,-2.5974,-2.744,-2.8323,-2.8978,-2.9385,-3.0028,-3.0357,-3.0313,-2.9684,-2.9355,-2.934,-2.8278,-2.5899,-2.2323,0.0,0.0,-2.171,-2.339,-2.5007,-2.6528,-2.7748,-2.8609,-2.9042,-2.8548,-2.7678,-2.6351,-2.4926,-2.3674,-2.2554,-2.1601,-2.0404,-1.8954,-1.7629,-1.6052,0.0,0.0,0.0,0.0,0.0,0.0,0.0,0.0,0.0,0.0,0.0,-0.7904,-0.7129,0.0,0.0,0.0,-1.0881,-1.329,-1.4398,-1.528,0.0,0.0,0.0,0.0,0.0,0.0,0.0,-2.3549,-2.5522,-2.7831,-3.0487,-3.0683,-3.0551,-3.0451,-3.0264,-2.9911,-2.9261,0.0,-2.952,-2.9903,-2.9744,-2.9639,-2.9804,-2.9355,-2.9131,-2.952,-2.9621,-2.9621,-2.9606,-2.9367,-2.9292,-2.9562,-2.9804,-2.9789,-2.9277,-2.7854,-2.6881,-2.7255,-2.748,-2.7555,-2.7546,-2.7736,-2.782,-3.3649,-3.3395,-3.0402,-2.9086,-2.9101,-3.0193,-3.0687,-3.0746,-3.0746,-3.0717,-3.0612,-3.0073,-2.9127,-2.7839,-2.6632,0.0,-2.7081,-2.772,-2.8378,-2.9041,-3.0208,-3.0746,-3.0776,-3.1376,-3.166,-3.166,-3.1001,-3.0657,-3.0642,-3.0056,-2.9071,-2.7794,-2.5989,-2.5008,-2.4889,-2.551,-2.6168,-2.6851,-2.7941,-2.8477,-2.8439,-2.825,-2.7608,-2.645,-2.5666,-2.4416,-2.2714,-2.1984,-2.1306,-2.0617,-1.885,-1.7997,-1.8175,0.0,0.0,0.0,0.0,0.0,0.0,0.0,0.0,0.0,0.0,0.0,0.0,0.0,0.0,0.0,-1.3754,0.0,-1.6732,-1.8608,0.0,0.0,0.0,-2.3309,-2.4431,-2.5983,-2.6991,-2.7062,0.0,0.0,-3.2714,-3.3829,-3.433,-3.3826,-3.3145,-3.2436,-3.1774,-3.1192,-3.082,-3.0837,-3.0268,-3.0003,-3.0476,-3.0111,-2.9819,-2.9849,-2.9756,-2.9819,-2.9819,-2.9789,-2.9759,-2.9819,-2.9771,-2.9801,-2.9786,-2.9684,-2.9636,-2.9172,-2.9427,-2.9858,-3.0068,-3.0485,-3.0391,-3.5026,-3.4966,-3.4188,-3.3275,-3.2332,-3.2123,-3.2332,-3.2781,-3.2766,-3.2497,-3.2018,-3.1884,-3.136,-3.0539,-3.024,-3.0464,-3.1106,-3.1255,-3.1704,-3.2332,-3.2647,-3.2781,-3.2796,-3.2961,-3.3036,-3.2991,-3.2362,-3.2033,-3.1974,-3.1346,-3.0599,-2.9819,-2.9325,-2.8353,-2.6971,-2.7545,-2.8218,-2.8888,-2.8673,-2.8339,-2.781,-2.7306,-2.6623,-2.5832,-2.4648,-2.3369,-2.1999,-2.1306,-2.0647,-1.9959,-1.9498,-1.8721,-1.7609,-1.5242,0.0,0.0,0.0,0.0,0.0,0.0,0.0,0.0,0.0,-1.3099,-1.0959,0.0,-1.4114,0.0,-1.6671,-2.1208,-2.0973,-2.1424,0.0,0.0,-2.5848,-2.6989,-2.9231,-2.9866,-3.0118,-3.0123,-3.1611,-3.322,-3.4737,-3.6124,-3.676,-3.6097,-3.4908,-3.3712,-3.2572,-3.2692,-3.2879,-3.2804,-3.2264,-3.199,-3.2048,-3.1569,-3.1002,-3.1047,-3.1032,-3.1076,-3.1061,-3.1032,-3.1047,-3.1076,-3.1061,-3.1047,-3.1002,-3.1032,-3.1002,-3.0898,-3.0972,-3.0775,-3.0033,-2.9966,-3.0066,-3.5489,-3.5489,-3.5489,-3.5085,-3.4367,-3.3993,-3.4053,-3.4397,-3.4382,-3.4008,-3.3365,-3.308,-3.2751,-3.2378,-3.2407,-3.2572,-3.2946,-3.2946,-3.3155,-3.3484,-3.3499,-3.3499,-3.3499,-3.3499,-3.3499,-3.3484,-3.3125,-3.2946,-3.2931,-3.2587,-3.2034,-3.1405,-3.1405,-3.0702,-2.9385,-2.9146,-2.9205,-2.9606,-2.8936,-2.8427,-2.8049,-2.739,-2.6611,-2.5606,-2.4896,-2.3744,-2.2188,-2.15,-2.0842,-2.0168,-1.9857,-1.9155,-1.7973,-1.655,-1.5212,0.0,0.0,0.0,0.0,0.0,0.0,0.0,0.0,0.0,0.0,0.0,-1.9161,-1.6874,-2.2216,-2.546,-2.4744,-2.5444,-2.6698,-2.8492,-2.9468,-3.0432,-3.1579,-3.2256,-3.2544,-3.2222,-3.3863,-3.5453,-3.6495,-3.7567,-3.799,-3.7364,-3.6592,-3.5669,-3.475,-3.4785,-3.4829,-3.4204,-3.3698,-3.3075,-3.2428,-3.1838,-3.1496,-3.1496,-3.1496,-3.1496,-3.1496,-3.1496,-3.1496,-3.1496,-3.1496,-3.1496,-3.1496,-3.1496,-3.1496,-3.1496,-3.1496,-3.1227,-3.0612,-3.0724,-3.1025,-3.5489,-3.5489,-3.5489,-3.5489,-3.5489,-3.5489,-3.5489,-3.5489,-3.5489,-3.516,-3.4608,-3.4039,-3.3754,-3.3754,-3.3754,-3.3754,-3.3754,-3.3739,-3.3754,-3.3754,-3.3754,-3.3754,-3.3754,-3.3769,-3.3754,-3.3754,-3.3649,-3.3619,-3.3619,-3.3544,-3.3215,-3.2647,-3.2527,-3.2198,-3.16,-3.0432,-2.9789,-2.9726,-2.9131,-2.8816,-2.8712,-2.8079,-2.7066,-2.5809,-2.557,-2.4552,-2.2658,-2.2009,-2.1395,-2.0733,-2.0228,-1.9663,-1.8969,-1.8174,-1.7176,0.0,-1.5847,0.0,0.0,0.0,0.0,0.0,0.0,0.0,0.0,-2.1532,-2.3275,-2.5967,-2.8261,-2.9166,-2.82,-2.965,-3.0701,-3.0954,-3.2501,-3.3355,-3.297,-3.402,-3.4506,-3.3778,-3.5808,-3.7499,-3.8108,-3.8565,-3.8633,-3.8159,-3.8101,-3.7891,-3.7344,-3.6977,-3.6412,-3.524,-3.4771,-3.3891,-3.2287,-3.1794,-3.1824,-3.1795,-3.1735,-3.163,-3.1675,-3.157,-3.1496,-3.1496,-3.1496,-3.1496,-3.1496,-3.1496,-3.1496,-3.1496,-3.1496,-3.1509,-3.1607,-3.2025,-3.2439,-3.5489,-3.5489,-3.5489,-3.5489,-3.5489,-3.5489,-3.5489,-3.5489,-3.5489,-3.5429,-3.531,-3.5175,-3.513,-3.5115,-3.513,-3.513,-3.513,-3.5115,-3.513,-3.513,-3.513,-3.513,-3.5115,-3.513,-3.513,-3.51,-3.4562,-3.4324,-3.4309,-3.3739,-3.3425,-3.3305,-3.2781,-3.2422,-3.2273,0.0,0.0,0.0,-3.0208,-2.9894,-2.9427,-2.8742,-2.7769,-2.6437,-2.5352,0.0,-2.2009,-2.1754,-2.138,-2.0763,-2.1096,0.0,0.0,0.0,0.0,0.0,0.0,0.0,0.0,0.0,0.0,0.0,-2.4338,-2.335,-2.2134,-2.2599,-2.4337,-2.7571,-3.07,-3.2246,-3.1479,-3.1705,-3.2424,-3.3604,-3.4074,-3.4714,-3.578,-3.6203,-3.6045,-3.5312,-3.7026,-3.865,-3.9486,-3.9774,-3.9554,-3.892,-3.9292,-3.9589,-3.943,-3.8403,-3.7614,-3.7241,-3.6261,-3.4738,-3.2865,-3.2871,-3.311,-3.3066,-3.2632,-3.2333,-3.2273,-3.1854,-3.154,-3.1555,-3.1496,-3.1525,-3.1525,-3.1496,-3.157,-3.1511,-3.1525,-3.1697,-3.2244,-3.2492,-3.2875,-3.5804,-3.5504,-3.5489,-3.5489,0.0,-3.5489,-3.5489,-3.5489,-3.5489,-3.5489,-3.5489,-3.5489,-3.5489,-3.5489,-3.5489,-3.5489,-3.5489,-3.5489,-3.5489,-3.5489,-3.5489,-3.5489,-3.5489,-3.5489,-3.5489,-3.5489,-3.5145,-3.4981,-3.4966,-3.4651,-3.4322,-3.4009,-3.3649,-3.332,-3.2991,-3.2347,-3.166,-3.1002,-3.0687,-3.0357,-3.0028,-2.9415,-2.8442,-2.7151,-2.6422,0.0,0.0,0.0,0.0,0.0,0.0,0.0,0.0,0.0,0.0,-2.1579,-2.2318,-2.3161,-2.3934,-2.4614,-2.5664,-2.7114,-2.7926,-2.7583,-2.5778,-2.5906,-2.7256,-3.0037,-3.2862,-3.4184,-3.3495,-3.3694,-3.437,-3.5492,-3.596,-3.6518,-3.7195,-3.7347,-3.728,-3.7205,-3.8091,-3.9123,-3.9994,-4.0113,-3.996,-3.9622,-3.9859,-4.0113,-4.0045,-3.9486,-3.9005,-3.8937,-3.7719,-3.6166,-3.4649,-3.4332,-3.4219,-3.3649,-3.3215,-3.3021,-3.2991,-3.2527,-3.2198,-3.2392,-3.2303,-3.2198,-3.2407,-3.2303,-3.2198,-3.2467,-3.2662,-3.296,-3.3426,-3.3067,-3.2761,-3.6327,-3.5848,-3.5848,-3.5848,-3.5848,-3.5833,-3.5774,-3.5669,0.0,0.0,0.0,-3.5489,-3.5489,-3.5489,-3.5489,-3.5489,-3.5489,-3.5489,-3.5489,-3.5489,-3.5489,-3.5489,-3.5489,-3.5489,-3.5489,-3.5489,-3.5489,-3.5489,-3.5489,-3.5489,-3.522,-3.4728,-3.4563,-3.4143,-3.3499,-3.2961,-3.2333,-3.1675,-3.1002,-3.0687,-3.0672,-3.0073,-2.9187,-2.7974,-2.7806,-2.6567,-2.4073,-2.4048,-2.3592,-2.2445,-2.2491,-2.2551,-2.258,-2.3725,-2.4353,-2.4309,-2.5886,-2.6845,-2.6838,-2.7999,-2.8767,-2.8786,-3.0649,-3.1207,-2.989,-2.9788,-3.0584,-3.253,-3.4709,-3.5707,-3.4979,-3.5571,-3.6265,-3.6924,-3.7533,-3.7922,-3.8075,-3.8108,-3.8278,-3.8768,-3.9039,-3.9394,-4.0011,-4.0113,-4.0113,-4.0096,-4.0079,-4.0113,-4.0113,-4.0045,-3.996,-3.9859,-3.8937,-3.7811,-3.6582,-3.6012,-3.5472,-3.4668,-3.4152,-3.3864,-3.3803,-3.3351,-3.314,-3.3335,-3.332,-3.3364,-3.3455,-3.3245,-3.3155,-3.344,-3.3858,-3.4224,-3.4208,-3.3506,-3.2996,-3.721,-3.7135,-3.7135,-3.715,-3.7135,-3.7135,-3.6836,-3.6312,-3.5759,-3.5504,-3.5489,-3.5489,-3.5489,-3.5489,-3.5489,-3.5489,-3.5489,-3.5489,-3.5489,-3.5489,-3.5489,-3.5489,-3.5489,-3.5489,-3.5489,-3.5489,-3.5489,-3.5489,-3.5489,-3.5489,-3.5459,-3.5295,-3.4771,-3.4189,-3.3544,-3.341,-3.3036,-3.2348,-3.1705,-3.1361,-3.1346,-3.0731,-3.0028,-2.9349,-2.8717,-2.7437,-2.5428,-2.5794,-2.5756,-2.505,-2.5524,-2.5795,-2.5759,-2.686,-2.7301,-2.6831,-2.7916,-2.8878,-2.9507,-3.0319,-3.1317,-3.2506,-3.3508,-3.3677,-3.2882,-3.278,-3.3186,-3.4167,-3.6214,-3.728,-3.6643,-3.711,-3.7601,-3.7719,-3.7855,-3.8142,-3.8751,-3.8836,-3.9114,-3.974,-3.9926,-3.9926,-4.0062,-4.0113,-4.0113,-4.0113,-4.0113,-4.0113,-4.0113,-4.0113,-4.0113,-4.0113,-3.996,-3.9333,-3.8253,-3.778,-3.7329,-3.7263,-3.6032,-3.529,-3.5199,-3.4273,-3.3605,-3.3529,-3.4307,-3.4562,-3.3844,-3.3799,-3.3858,-3.3754,-3.4023,-3.4206,-3.3954,-3.3653,-3.4032,-3.7734,-3.7419,-3.7404,-3.7404,-3.7404,-3.7404,-3.7255,-3.6971,-3.6671,-3.6148,-3.5519,-3.5489,-3.5489,-3.5489,-3.5489,-3.5489,-3.5489,-3.5489,-3.5489,-3.5489,-3.5489,-3.5489,-3.5489,-3.5489,-3.5489,-3.5489,-3.5489,-3.5489,-3.5489,-3.5489,-3.5489,-3.5474,-3.5175,-3.4696,-3.4083,-3.4038,-3.3694,-3.3066,-3.2392,-3.1869,-3.1511,-3.1197,-3.0718,-3.0103,-2.9739,-2.8843,-2.73,-2.7134,-2.6933,-2.6588,-2.6516,-2.6628,-2.6969,-2.8502,-2.9261,-2.9016,-3.0482,-3.1529,-3.1884,-3.2205,-3.2848,-3.3897,-3.4303,-3.4539,-3.4607,-3.4607,-3.4928,-3.5712,-3.7094,-3.7787,-3.7449,-3.8058,-3.8497,-3.8497,-3.8819,-3.9233,-3.9537,-3.9605,-3.974,-4.0045,-4.0113,-4.0113,-4.0113,-4.0113,-4.0113,-4.0113,-4.0113,-4.0113,-4.0113,-4.0113,-4.0113,-4.0113,-4.0096,-3.9705,-3.8968,-3.8968,-3.8695,-3.7994,-3.7261,-3.6644,-3.6225,-3.52,-3.4686,-3.4592,-3.513,-3.522,-3.4638,-3.4741,-3.4756,-3.4696,-3.4726,-3.4771,-3.4653,-3.5171,-3.6101,-3.8332,-3.7868,-3.7834,-3.7853,-3.7853,-3.7853,-3.7793,-3.7629,-3.7614,-3.7,-3.6013,-3.5789,-3.5729,-3.5714,-3.5579,-3.5489,-3.5489,-3.5489,-3.5489,-3.5489,-3.5489,-3.5489,-3.5489,-3.5489,-3.5489,-3.5489,-3.5489,-3.5489,-3.5489,-3.5489,-3.5489,-3.5489,-3.5489,-3.5235,-3.4726,-3.4743,-3.4414,-3.3739,-3.3215,-3.2572,-3.175,-3.16,-3.1241,-3.0791,-3.0719,-3.0177,-2.9082,-2.8523,-2.8256,-2.817,-2.769,-2.7733,-2.8527,-2.9981,-3.0919,-3.1183,-3.2522,-3.3453,-3.3626,-3.3643,-3.3964,-3.4692,-3.4912,-3.5267,-3.5774,-3.5701,-3.5926,-3.6761,-3.7787,-3.8379,-3.8278,-3.8802,-3.9266,-3.9276,-3.9757,-4.0028,-4.0096,-4.0113,-4.0113,-4.0113,-4.0113,-4.0113,-4.0113,-4.0113,-4.0113,-4.0113,-4.0113,-4.0113,-4.0113,-4.0113,-4.0113,-4.0113,-4.0113,-3.9901,-3.9315,-3.961,-3.9506,-3.843,-3.8145,-3.7767,-3.7154,-3.6306,-3.5784,-3.5835,-3.6055,-3.6134,-3.6038,-3.6039,-3.604,-3.6058,-3.6105,-3.604,-3.6089,-3.6811,-3.7696,-3.9239,-3.9209,-3.9149,-3.9194,-3.9149,-3.9149,-3.8856,-3.8347,-3.8287,-3.7913,-3.7225,-3.6641,-3.6417,-3.6312,-3.5789,-3.5534,-3.5534,-3.5504,-3.5489,-3.5489,-3.5489,-3.5489,-3.5489,-3.5489,-3.5489,-3.5489,-3.5489,-3.5489,-3.5489,-3.5489,-3.5489,-3.5489,-3.5489,-3.5474,-3.54,-3.5385,-3.5055,-3.4444,-3.4322,-3.3694,-3.2482,-3.1809,-3.1466,-3.1406,-3.136,-3.1006,-3.0295,-3.0258,-3.0238,-3.0211,-3.0113,-3.0637,-3.1714,-3.2114,-3.247,-3.3039,-3.3313,-3.3694,-3.432,-3.4387,-3.4759,-3.5447,-3.6163,-3.6552,-3.666,-3.6062,-3.5938,-3.6958,-3.8708,-3.9486,-3.9039,-3.9554,-3.9926,-3.991,-4.0028,-4.0113,-4.0113,-4.0113,-4.0113,-4.0113,-4.0113,-4.0113,-4.0113,-4.0113,-4.0113,-4.0113,-4.0113,-4.0113,-4.0113,-4.0113,-4.0113,-4.0113,-4.0113,-4.007,-3.9927,-4.002,-3.9927,-3.9731,-3.9236,-3.8728,-3.8185,-3.707,-3.5878,-3.6965,-3.7573,-3.7589,-3.7442,-3.7589,-3.7472,-3.7265,-3.7324,-3.7501,-3.7589,-3.7735,-3.8036,-3.9388,-3.9388,-3.9388,-3.9388,-3.9388,-3.9388,-3.926,-3.9005,-3.899,-3.8841,-3.8527,-3.7898,-3.7389,-3.7,-3.6372,-3.6073,-3.6058,-3.5684,-3.5489,-3.5489,-3.5489,-3.5489,-3.5489,-3.5489,-3.5489,-3.5489,-3.5489,-3.5489,-3.5489,-3.5489,-3.5489,-3.5489,-3.5489,-3.5489,-3.5489,-3.5489,-3.5355,-3.5085,-3.4698,-3.4234,-3.3619,-3.2647,-3.2079,-3.2048,-3.1692,-3.1358,-3.1059,-3.0724,-3.067,-3.0953,-3.0706,-3.0905,-3.1764,-3.2609,-3.3178,-3.3467,-3.4258,-3.5047,-3.5814,-3.5864,-3.6186,-3.6901,-3.7263,-3.7449,-3.7432,-3.7144,-3.728,-3.8108,-3.9334,-3.996,-3.9706,-3.9943,-4.0113,-4.0113,-4.0113,-4.0113,-4.0113,-4.0113,-4.0113,-4.0113,-4.0113,-4.0113,-4.0113,-4.0113,-4.0113,-4.0113,-4.0113,-4.0113,-4.0113,-4.0113,-4.0113,-4.0113,-4.0113,-4.0113,-4.0113,-4.0113,-4.0113,-4.0045,-3.985,-3.9558,-3.8881,-3.8827,-3.8274,-3.7966,-3.853,-3.8613,-3.7806,-3.7851,-3.7822,-3.7879,-3.7863,-3.7892,-3.8358,-3.8442,-3.8772,-3.9642,-3.9649,-3.9514,-3.9388,-3.9388,-3.9388,-3.9388,-3.9388,-3.9388,-3.9388,-3.9328,-3.8886,-3.8407,-3.7883,-3.712,-3.6746,-3.6656,-3.6073,-3.5774,-3.5744,-3.5594,-3.5489,-3.5489,-3.5489,-3.5489,-3.5489,-3.5489,-3.5489,-3.5489,-3.5489,-3.5489,-3.5489,-3.5489,-3.5489,-3.5489,-3.5489,-3.5489,-3.5459,-3.4996,-3.4756,-3.4607,-3.3649,-3.2976,-3.2766,-3.2288,-3.1974,-3.1765,-3.1301,-3.1166,-3.1423,-3.0991,-3.1073,-3.1713,-3.2707,-3.3502,-3.4107,-3.5028,-3.6064,-3.7043,-3.7094,-3.733,-3.7855,-3.8058,-3.821,-3.8244,-3.8379,-3.8717,-3.9233,-3.9808,-4.0096,-4.0113,-4.0113,-4.0113,-4.0113,-4.0113,-4.0113,-4.0113,-4.0113,-4.0113,-4.0113,-4.0113,-4.0113,-4.0113,-4.0113,-4.0113,-4.0113,-4.0113,-4.0113,-4.0113,-4.0113,-4.0113,-4.0113,-4.0113,-4.0113,-4.0113,-4.0113,-4.0113,-4.0113,-4.0045,-3.985,-3.9342,-3.9808,-3.9978,-3.9022,-3.9705,-3.9782,-3.9022,-3.8613,-3.8418,-3.8446,-3.843,-3.8569,-3.9129,-3.9209,-3.9463,-4.0367,-4.0277,-3.9679,-3.9433,-3.9403,-3.9388,-3.9388,-3.9388,-3.9388,-3.9388,-3.9388,-3.9328,-3.9313,-3.9119,-3.7973,-3.7389,-3.7285,-3.6731,-3.6432,-3.6387,-3.5863,-3.5534,-3.5489,-3.5489,-3.5519,-3.5504,-3.5489,-3.5489,-3.5489,-3.5489,-3.5489,-3.5489,-3.5489,-3.5489,-3.5489,-3.5489,-3.5489,-3.5474,-3.5415,-3.5415,-3.5355,-3.4726,-3.4068,-3.3559,-3.3395,-3.3036,-3.2557,-3.2407,-3.2167,-3.1538,-3.1522,-3.1819,-3.2454,-3.2648,-3.3599,-3.5317,-3.5646,-3.6338,-3.7535,-3.7807,-3.7898,-3.8017,-3.8592,-3.8937,-3.8988,-3.9445,-3.9825,-4.0028,-4.0045,-4.0113,-4.0113,-4.0113,-4.0113,-4.0113,-4.0113,-4.0113,-4.0113,-4.0113,-4.0113,-4.0113,-4.0113,-4.0113,-4.0113,-4.0113,-4.0113,-4.0113,-4.0113,-4.0113,-4.0113,-4.0113,-4.0113,-4.0113,-4.0113,-4.0113,-4.0113,-4.0113,-4.0113,-4.0113,-4.0096,-4.007,-4.0096,-4.007,-3.9978,-3.9927,-4.002,-4.0045,-3.9995,-3.9901,-3.9773,-3.9705,-3.9653,-3.9825,-3.9731,-3.9927,-4.0045,-4.104,-4.098,-4.0322,-4.0053,-4.0008,-3.9604,-3.9388,-3.9388,-3.9388,-3.9388,-3.9388,-3.9388,-3.9388,-3.9343,-3.888,-3.8452,-3.7988,-3.7375,-3.7075,-3.7045,-3.6821,-3.6522,-3.6148,-3.6133,-3.5893,-3.5549,-3.5489,-3.5489,-3.5489,-3.5489,-3.5489,-3.5489,-3.5489,-3.5489,-3.5489,-3.5489,-3.5489,-3.5489,-3.5489,-3.5489,-3.5489,-3.525,-3.4996,-3.4741,-3.3933,-3.3395,-3.3155,-3.3155,-3.3021,-3.2796,-3.2751,-3.2901,-3.3167,-3.3587,-3.4561,-3.6093,-3.6329,-3.6582,-3.7134,-3.8079,-3.8588,-3.8594,-3.9253,-3.964,-3.974,-3.9943,-4.0113,-4.007,-4.0096,-4.0113,-4.0113,-4.0113,-4.0113,-4.0113,-4.0113,-4.0113,-4.0113,-4.0113,-4.0113,-4.0113,-4.0113,-4.0113,-4.0113,-4.0113,-4.0113,-4.0113,-4.0113,-4.0113,-4.0113,-4.0113,-4.0113,-4.0113,-4.0113,-4.0113,-4.0113,-4.0113,-4.0113,-4.0113,-4.0096,-4.0096,-4.0113,-4.0113,-4.002,-4.0003,-4.007,-4.0113,-4.0045,-4.0045,-4.0113,-4.0113,-4.0113,-4.0113,-4.0096,-4.0113,-4.0113,-4.1617,-4.1362,-4.0905,-4.0591,-4.0352,-3.9933,-3.9619,-3.9418,-3.9388,-3.9388,-3.9388,-3.9388,-3.9388,-3.9388,-3.9388,-3.92,-3.8676,-3.8033,-3.7734,-3.7704,-3.7509,-3.718,-3.6851,-3.6776,-3.6462,-3.5863,-3.5594,-3.5489,-3.5489,-3.5489,-3.5489,-3.5489,-3.5489,-3.5489,-3.5489,-3.5489,-3.5489,-3.5489,-3.5489,-3.5489,-3.5489,-3.5489,-3.5489,-3.5385,-3.4607,-3.4023,-3.3829,-3.3814,-3.3694,-3.3544,-3.3499,-3.3499,-3.3546,-3.3924,-3.4836,-3.613,-3.6325,-3.6702,-3.736,-3.8173,-3.8669,-3.8885,-3.9113,-3.9375,-3.9358,-3.9799,-3.9944,-3.9773,-3.9969,-4.0113,-4.0113,-4.0113,-4.0113,-4.0113,-4.0113,-4.0113,-4.0113,-4.0113,-4.0113,-4.0113,-4.0113,-4.0113,-4.0113,-4.0113,-4.0113,-4.0113,-4.0113,-4.0113,-4.0113,-4.0113,-4.0113,-4.0113,-4.0113,-4.0113,-4.0113,-4.0113,-4.0113,-4.0113,-4.0113,-4.0113,-4.0113,-4.0113,-4.0113,-4.0113,-4.0113,-4.0113,-4.0113,-4.0113,-4.007,-4.007,-4.0113,-4.0113,-4.0113,-4.0113,-4.0113,-4.2051,-4.1519,-4.1422,-4.107,-4.0606,-4.0457,-4.0053,-3.9597,-3.9514,-3.9529,-3.9523,-3.9418,-3.9388,-3.9388,-3.9388,-3.9358,-3.9215,-3.8661,-3.8407,-3.8362,-3.7838,-3.7539,-3.7419,-3.7419,-3.7045,-3.6387,-3.5818,-3.5519,-3.5504,-3.5489,-3.5489,-3.5489,-3.5489,-3.5489,-3.5489,-3.5489,-3.5489,-3.5489,-3.5489,-3.5489,-3.5489,-3.5489,-3.5489,-3.5489,-3.5385,-3.507,-3.4533,-3.4518,-3.4247,-3.3724,-3.3634,-3.3529,-3.3756,-3.3787,-3.4273,-3.5514,-3.5711,-3.6682,-3.8235,-3.808,-3.8205,-3.8453,-3.8234,-3.808,-3.8306,-3.9092,-3.948,-3.8974,-3.9428,-3.9995,-3.9995,-4.007,-4.0113,-4.0113,-4.0113,-4.0113,-4.0113,-4.0113,-4.0113,-4.0113,-4.0113,-4.0113,-4.0113,-4.0113,-4.0113,-4.0113,-4.0113,-4.0113,-4.0113,-4.0113,-4.0113,-4.0113,-4.0113,-4.0113,-4.0113,-4.0113,-4.0113,-4.0113,-4.0113,-4.0113,-4.0113,-4.0113,-4.0113,-4.0113,-4.0113,-4.0113,-4.0045,-4.002,-3.9808,-3.9808,-3.9927,-3.9901,-3.9833,-3.9808,-4.0045,-4.2895,-4.2671,-4.2237,-4.1991,-4.1722,-4.1302,-4.0973,-4.0711,-4.0307,-4.0098,-4.0008,-3.9619,-3.9388,-3.9388,-3.9388,-3.9388,-3.9373,-3.9185,-3.9095,-3.9035,-3.8871,-3.8497,-3.8153,-3.8063,-3.7524,-3.6611,-3.6297,-3.5938,-3.5579,-3.5519,-3.5489,-3.5489,-3.5489,-3.5489,-3.5489,-3.5489,-3.5489,-3.5489,-3.5489,-3.5489,-3.5489,-3.5489,-3.5489,-3.5489,-3.5489,-3.5385,-3.519,-3.519,-3.5085,-3.4831,-3.4876,-3.51,-3.5399,-3.5163,-3.5333,-3.6137,-3.629,-3.6184,-3.6538,-3.7338,-3.7573,-3.7483,-3.7587,-3.7793,-3.7764,-3.7876,-3.8048,-3.8023,-3.8668,-3.9092,-3.9332,-3.9825,-4.002,-4.0113,-4.0113,-4.0113,-4.0113,-4.0113,-4.0113,-4.0113,-4.0113,-4.0113,-4.0113,-4.0113,-4.0113,-4.0163,-4.0146,-4.0146,-4.0146,-4.0248,-4.0113,-4.0113,-4.0113,-4.013,-4.0113,-4.0113,-4.0113,-4.002,-3.9952,-3.9876,-3.9901,-3.9927,-3.9952,-4.0113,-4.0113,-4.002,-3.9969,-3.9782,-3.9542,-3.9315,-3.9209,-3.9236,-3.9315,-3.9516,-3.9756,-4.3305,-4.326,-4.2895,-4.262,-4.2366,-4.1931,-4.1647,-4.1339,-4.095,-4.0771,-4.0681,-4.0352,-3.9993,-3.9828,-3.9783,-3.9634,-3.9418,-3.9388,-3.9388,-3.9388,-3.9388,-3.9155,-3.8736,-3.8482,-3.8033,-3.7285,-3.6941,-3.6492,-3.5893,-3.5863,-3.5744,-3.5549,-3.5489,-3.5489,-3.5489,-3.5489,-3.5489,-3.5489,-3.5489,-3.5489,-3.5489,-3.5489,-3.5489,-3.5489,-3.5489,-3.5489,-3.5489,-3.5489,-3.5489,-3.5489,-3.5489,-3.575,-3.6102,-3.5735,-3.5701,-3.6054,-3.6196,-3.6086,-3.5975,-3.6554,-3.6905,-3.6707,-3.6814,-3.692,-3.689,-3.66,-3.6738,-3.7442,-3.7806,-3.8206,-3.875,-3.8995,-3.9332,-3.9636,-3.9944,-4.007,-4.0113,-4.0113,-4.0113,-4.0113,-4.0113,-4.0113,-4.0113,-4.0113,-4.0248,-4.0417,-4.0519,-4.0587,-4.0671,-4.0874,-4.0705,-4.0519,-4.0468,-4.0383,-4.0146,-4.0113,-4.0113,-3.9927,-3.9756,-3.9584,-3.9463,-3.9463,-3.9489,-3.9952,-4.0113,-3.9756,-3.9636,-3.9315,-3.9043,-3.8799,-3.858,-3.8707,-3.887,-3.9209,-3.9516,-4.3305,-4.3305,-4.329,-4.297,-4.253,-4.2455,-4.2117,-4.1609,-4.1444,-4.1429,-4.1467,-4.1287,-4.095,-4.0531,-4.0367,-4.0023,-3.9523,-3.9388,-3.9388,-3.9388,-3.9388,-3.9313,-3.9209,-3.8796,-3.8437,-3.8167,-3.7704,-3.7135,-3.6567,-3.6522,-3.6207,-3.5699,-3.5654,-3.5534,-3.5519,-3.5489,-3.5489,-3.5489,-3.5489,-3.5489,-3.5489,-3.5489,-3.5489,-3.5489,-3.5489,-3.5489,-3.5489,-3.5489,-3.5489,-3.5489,-3.5489,-3.5522,-3.5522,-3.5489,-3.5537,-3.5619,-3.5537,-3.5863,-3.6165,-3.599,-3.5926,-3.6337,-3.5975,-3.5489,-3.5701,-3.5782,-3.599,-3.6738,-3.6995,-3.7427,-3.808,-3.8222,-3.8322,-3.8882,-3.9651,-4.0062,-4.0113,-4.0113,-4.0113,-4.0113,-4.0113,-4.0231,-4.04,-4.0434,-4.0722,-4.1052,-4.1271,-4.1373,-4.1627,-4.1694,-4.15,-4.1348,-4.1238,-4.1035,-4.0942,-4.0925,-4.0899,-4.0796,-4.0385,-3.9897,-3.9491,-3.9401,-3.9032,-3.9506,-4.0045,-3.9662,-3.9193,-3.8908,-3.8553,-3.8218,-3.8161,-3.8262,-3.8414,-3.869,-3.9129,-4.3305,-4.3305,-4.3305,-4.32,-4.309,-4.3075,-4.2946,-4.2761,-4.2282,-4.2141,-4.2066,-4.1579,-4.1339,-4.1085,-4.0636,-4.0292,-4.0068,-3.9649,-3.9388,-3.9388,-3.9388,-3.9388,-3.9424,-3.923,-3.8871,-3.8452,-3.8242,-3.7808,-3.721,-3.7165,-3.6821,-3.6252,-3.6222,-3.5998,-3.5594,-3.5549,-3.5489,-3.5489,-3.5504,-3.5489,-3.5489,-3.5489,-3.5489,-3.5489,-3.5489,-3.5489,-3.5489,-3.5489,-3.5489,-3.5489,-3.5489,-3.5489,-3.5489,-3.5489,-3.5489,-3.5489,-3.5489,-3.5587,-3.5733,-3.5651,-3.5604,-3.575,-3.5653,-3.5489,-3.5489,-3.5489,-3.5636,-3.599,-3.6352,-3.6828,-3.7174,-3.7546,-3.8088,-3.8807,-3.9657,-4.0155,-4.0147,-4.0113,-4.0113,-4.0146,-4.0544,-4.1068,-4.1585,-4.1653,-4.1737,-4.1914,-4.2033,-4.2202,-4.254,-4.2506,-4.2313,-4.2371,-4.2286,-4.2016,-4.183,-4.1813,-4.1786,-4.1741,-4.1275,-4.0615,-4.0141,-3.9746,-3.9109,-3.8723,-3.9799,-3.9808,-3.9086,-3.8525,-3.8133,-3.7892,-3.7587,-3.7616,-3.7716,-3.7917,-3.8469,-4.2845,-4.3305,-4.3305,-4.3305,-4.3305,-4.3305,-4.3305,-4.323,-4.2955,-4.2776,-4.2686,-4.2402,-4.2043,-4.1796,-4.1437,-4.1055,-4.0741,-4.0127,-3.9858,-3.9783,-3.9559,-3.9403,-3.9388,-3.9373,-3.92,-3.8886,-3.8811,-3.8437,-3.7928,-3.7823,-3.7464,-3.6985,-3.6881,-3.6671,-3.6402,-3.6013,-3.5908,-3.5878,-3.5684,-3.5489,-3.5489,-3.5489,-3.5489,-3.5489,-3.5489,-3.5489,-3.5489,-3.5489,-3.5489,-3.5489,-3.5489,-3.5489,-3.5489,-3.5489,-3.5489,-3.5489,-3.5489,-3.5604,-3.5831,-3.5733,-3.5668,-3.5799,-3.5718,-3.5522,-3.5489,-3.5489,-3.5522,-3.6038,-3.6384,-3.6554,-3.6723,-3.7275,-3.8171,-3.9161,-3.9994,-4.0478,-4.0495,-4.0853,-4.0671,-4.0587,-4.1001,-4.21,-4.3041,-4.2753,-4.2557,-4.2658,-4.276,-4.3132,-4.3521,-4.3328,-4.3125,-4.3081,-4.3014,-4.2726,-4.2371,-4.2269,-4.2337,-4.2341,-4.226,-4.1542,-4.0959,-4.0376,-3.9537,-3.9133,-3.9752,-3.9901,-3.9241,-3.8632,-3.8274,-3.7933,-3.7381,-3.7399,-3.7767,-3.8049,-3.846,-4.2249,-4.3305,-4.3305,-4.3305,-4.3305,-4.3305,-4.3305,-4.3305,-4.3245,-4.3245,-4.3215,-4.3275,-4.288,-4.2485,-4.2246,-4.2036,-4.1482,-4.0801,-4.0472,-4.0202,-3.9858,-3.9523,-3.9388,-3.9388,-3.9358,-3.9305,-3.9373,-3.905,-3.8616,-3.8497,-3.8138,-3.7659,-3.7509,-3.7434,-3.715,-3.6791,-3.6611,-3.6477,-3.5998,-3.5744,-3.5684,-3.5594,-3.5489,-3.5489,-3.5489,-3.5489,-3.5489,-3.5489,-3.5489,-3.5489,-3.5489,-3.5489,-3.5489,-3.5489,-3.5489,-3.5489,-3.5522,-3.5799,-3.6306,-3.5894,-3.5894,-3.6399,-3.607,-3.5619,-3.5701,-3.575,-3.594,-3.6394,-3.6647,-3.6955,-3.7311,-3.7623,-3.8466,-3.9714,-4.0639,-4.0951,-4.1337,-4.1877,-4.1788,-4.0629,-4.161,-4.298,-4.3673,-4.3555,-4.2794,-4.347,-4.3555,-4.3775,-4.4107,-4.4056,-4.3768,-4.3504,-4.3436,-4.3335,-4.2997,-4.2692,-4.2794,-4.2868,-4.2987,-4.2593,-4.1927,-4.1239,-4.0299,-4.0001,-4.0679,-4.0511,-3.9747,-3.917,-3.8872,-3.859,-3.8427,-3.8556,-3.8763,-3.8888,-3.9215,-4.2249,-4.3305,-4.3305,-4.3305,-4.3305,-4.3305,-4.3305,-4.3305,-4.3305,-4.3305,-4.3305,-4.3305,-4.3215,-4.306,-4.2665,-4.2291,-4.2126,-4.1474,-4.0935,-4.0397,-4.0292,-3.9873,-3.9538,-3.9529,-3.9418,-3.9403,-3.9388,-3.9298,-3.9149,-3.9065,-3.8856,-3.8272,-3.8153,-3.7928,-3.7494,-3.7375,-3.721,-3.7105,-3.6596,-3.6297,-3.6148,-3.5789,-3.5549,-3.5519,-3.5489,-3.5489,-3.5489,-3.5489,-3.5489,-3.5489,-3.5489,-3.5489,-3.5489,-3.5489,-3.5489,-3.5489,-3.5537,-3.5831,-3.6306,-3.6023,-3.6085,-3.7115,-3.6631,-3.6353,-3.6353,-3.629,-3.6345,-3.6647,-3.7103,-3.7982,-3.8975,-3.8733,-3.9377,-4.0479,-4.1042,-4.1571,-4.2436,-4.2557,-4.2243,-4.2151,-4.2591,-4.3538,-4.4445,-4.4361,-4.409,-4.4299,-4.4333,-4.4429,-4.4513,-4.4581,-4.4344,-4.3944,-4.3944,-4.3876,-4.3775,-4.3515,-4.3515,-4.3532,-4.3599,-4.3623,-4.2965,-4.2484,-4.166,-4.1438,-4.1594,-4.1161,-4.0503,-4.053,-4.0402,-3.9981,-3.9592,-3.9683,-3.9783,-3.9852,-3.9996,-4.229,-4.329,-4.3305,-4.3305,-4.3305,-4.3305,-4.3305,-4.3305,-4.3305,-4.3305,-4.3305,-4.3305,-4.3305,-4.3275,-4.2985,-4.2821,-4.2656,-4.2132,-4.1489,-4.0995,-4.0861,-4.0666,-4.0442,-4.0247,-4.0113,-3.9553,-3.9388,-3.9388,-3.9388,-3.9373,-3.9215,-3.8916,-3.8856,-3.8751,-3.8317,-3.8033,-3.7883,-3.7749,-3.724,-3.6911,-3.6806,-3.6297,-3.5744,-3.5564,-3.5489,-3.5489,-3.5489,-3.5489,-3.5489,-3.5504,-3.5504,-3.5504,-3.5489,-3.5489,-3.5489,-3.5489,-3.5489,-3.5863,-3.6212,-3.6023,-3.599,-3.7145,-3.6523,-3.6411,-3.633,-3.6299,-3.6459,-3.7008,-3.8027,-3.9314,-4.0758,-4.0273,-4.0609,-4.1667,-4.2077,-4.2624,-4.3506,-4.3569,-4.3379,-4.3447,-4.3707,-4.4079,-4.4462,-4.4564,-4.4581,-4.4462,-4.4462,-4.453,-4.453,-4.4598,-4.4598,-4.4429,-4.4479,-4.4496,-4.4496,-4.4395,-4.431,-4.4276,-4.4225,-4.4259,-4.3974,-4.362,-4.3272,-4.2953,-4.2551,-4.212,-4.1607,-4.1738,-4.1755,-4.1383,-4.1061,-4.0904,-4.0915,-4.1155,-4.123,-4.229,-4.3305,-4.3305,-4.3305,-4.3305,-4.3305,-4.3305,-4.3305,-4.3305,-4.3305,-4.3305,-4.3305,-4.3305,-4.329,-4.3275,-4.329,-4.3125,-4.2791,-4.2147,-4.1632,-4.1572,-4.1369,-4.1235,-4.1085,-4.0771,-3.9768,-3.9679,-3.9634,-3.9433,-3.9388,-3.9343,-3.9343,-3.9358,-3.9224,-3.9164,-3.8886,-3.8556,-3.8467,-3.7898,-3.7554,-3.7449,-3.6956,-3.6372,-3.6073,-3.5968,-3.5983,-3.5998,-3.5968,-3.5878,-3.5789,-3.5789,-3.5669,-3.5504,-3.5489,-3.5489,-3.5489,-3.5489,-3.5863,-3.6321,-3.6113,-3.609,-3.6755,-3.6485,-3.6371,-3.6688,-3.662,-3.6808,-3.7782,-3.9056,-4.0814,-4.2246,-4.1827,-4.212,-4.3015,-4.338,-4.3726,-4.4355,-4.4598,-4.4429,-4.4445,-4.4327,-4.4445,-4.453,-4.4598,-4.4598,-4.4598,-4.4598,-4.4598,-4.4598,-4.4598,-4.4598,-4.4598,-4.4598,-4.4598,-4.4598,-4.4598,-4.4598,-4.4598,-4.4598,-4.4598,-4.4598,-4.4305,-4.3867,-4.3652,-4.3253,-4.2926,-4.278,-4.289,-4.285,-4.2642,-4.2601,-4.254,-4.2534,-4.2547,-4.2483,-4.2249,-4.3305,-4.3305,-4.3305,-4.3305,-4.3305,-4.3305,-4.3305,-4.3305,-4.3305,-4.3305,-4.3305,-4.3305,-4.3305,-4.3305,-4.3305,-4.323,-4.3035,-4.2776,-4.2321,-4.2216,-4.2013,-4.1654,-4.1639,-4.1324,-4.0995,-4.0576,-4.0083,-3.9589,-3.9388,-3.9463,-3.9418,-3.9388,-3.9388,-3.9373,-3.9254,-3.9155,-3.905,-3.8542,-3.8257,-3.8093,-3.7614,-3.715,-3.6911,-3.6866,-3.6911,-3.6985,-3.7045,-3.709,-3.7105,-3.709,-3.6507,-3.5923,-3.5669,-3.5639,-3.5669,-3.5684,-3.6056,-3.6519,-3.6503,-3.7088,-3.795,-3.8012,-3.8015,-3.814,-3.7941,-3.7829,-3.8785,-4.0376,-4.2276,-4.3949,-4.3293,-4.3376,-4.3931,-4.386,-4.3726,-4.4355,-4.4598,-4.4598,-4.4598,-4.4598,-4.4598,-4.4598,-4.4598,-4.4598,-4.4598,-4.4598,-4.4598,-4.4598,-4.4598,-4.4598,-4.4598,-4.4598,-4.4598,-4.4598,-4.4598,-4.4598,-4.4598,-4.4598,-4.4598,-4.4598,-4.4598,-4.4395,-4.4079,-4.4062,-4.3995,-4.3978,-4.3955,-4.3904,-4.3684,-4.3904,-4.4124,-4.3775,-4.3436,-4.3555,-4.2805,-4.3305,-4.3305,-4.3305,-4.3305,-4.3305,-4.3305,-4.3305,-4.3305,-4.3305,-4.3305,-4.3305,-4.3305,-4.3305,-4.3305,-4.3305,-4.3305,-4.329,-4.311,-4.288,-4.2836,-4.2746,-4.2357,-4.2357,-4.2147,-4.1946,-4.1557,-4.0846,-4.0008,-3.9948,-3.9753,-3.9433,-3.9388,-3.9388,-3.9388,-3.9373,-3.9388,-3.932,-3.9095,-3.8901,-3.8841,-3.8257,-3.7823,-3.7494,-3.7434,-3.7404,-3.7404,-3.7404,-3.7389,-3.7375,-3.7389,-3.718,-3.6896,-3.6626,-3.6492,-3.6492,-3.6447,-3.6613,-3.693,-3.7026,-3.7514,-3.8481,-3.8729,-3.9121,-3.9199,-3.8848,-3.8692,-4.0233,-4.1422,-4.3152,-4.4378,-4.4138,-4.4224,-4.4412,-4.4196,-4.4196,-4.444,-4.457,-4.4598,-4.4598,-4.4649,-4.4649,-4.4598,-4.4598,-4.4598,-4.4598,-4.4598,-4.4598,-4.4598,-4.4598,-4.4598,-4.4598,-4.4598,-4.4598,-4.4598,-4.4598,-4.4598,-4.4598,-4.4598,-4.4598,-4.4598,-4.4598,-4.4598,-4.4479,-4.4581,-4.4598,-4.453,-4.4293,-4.4479,-4.4598,-4.4462,-4.4378,-4.4429,-4.4412,-4.4361,-4.3195,-4.3305,-4.3305,-4.3305,-4.3305,-4.3305,-4.3305,-4.3305,-4.3305,-4.3305,-4.3305,-4.3305,-4.3305,-4.3305,-4.3305,-4.3305,-4.3305,-4.3305,-4.326,-4.3245,-4.323,-4.326,-4.329,-4.3245,-4.2985,-4.2596,-4.2491,-4.1901,-4.0816,-4.0591,-4.0217,-3.9873,-3.9612,-3.9478,-3.9469,-3.9388,-3.9388,-3.9388,-3.9388,-3.9388,-3.9275,-3.8871,-3.8362,-3.7883,-3.7774,-3.7849,-3.7938,-3.7953,-3.7973,-3.7923,-3.7958,-3.8003,-3.8242,-3.7983,-3.7823,-3.7778,-3.7569,-3.7488,-3.7681,-3.7899,-3.8433,-3.9345,-3.939,-4.0087,-4.0356,-3.9888,-3.9493,-4.19,-4.2738,-4.3515,-4.4384,-4.457,-4.457,-4.457,-4.457,-4.457,-4.457,-4.4598,-4.4598,-4.4632,-4.4671,-4.4739,-4.4784,-4.4598,-4.4598,-4.4598,-4.4598,-4.4598,-4.4598,-4.4598,-4.4598,-4.4598,-4.4598,-4.4598,-4.4598,-4.4598,-4.4598,-4.4598,-4.4598,-4.4598,-4.4598,-4.4598,-4.4615,-4.4666,-4.4598,-4.4598,-4.4598,-4.4598,-4.4598,-4.4598,-4.4598,-4.4581,-4.4547,-4.453,-4.4496,-4.2802,-4.3305,-4.3305,-4.3305,-4.3305,-4.3305,-4.3305,-4.3305,-4.3305,-4.3305,-4.3305,-4.3305,-4.3305,-4.3305,-4.3305,-4.3305,-4.3305,-4.3305,-4.3305,-4.3305,-4.3305,-4.3305,-4.3305,-4.3305,-4.3245,-4.3075,-4.3135,-4.2462,-4.1609,-4.1339,-4.092,-4.0412,-4.0247,-4.0068,-3.9723,-3.9738,-3.9388,-3.9418,-3.9403,-3.9388,-3.9373,-3.9275,-3.9155,-3.9095,-3.9065,-3.897,-3.8895,-3.888,-3.894,-3.9,-3.9059,-3.9149,-3.9209,-3.9209,-3.9149,-3.8826,-3.8267,-3.7729,-3.8499,-3.9016,-3.9774,-4.0579,-4.1135,-4.1614,-4.1693,-4.1534,-4.1613,-4.3884,-4.3588,-4.3582,-4.4473,-4.4637,-4.4632,-4.4767,-4.4936,-4.4869,-4.4801,-4.5179,-4.5111,-4.5043,-4.5263,-4.5111,-4.5055,-4.4801,-4.4598,-4.4598,-4.4615,-4.4699,-4.4818,-4.5004,-4.5055,-4.5173,-4.501,-4.4959,-4.5196,-4.5094,-4.501,-4.4919,-4.4919,-4.4919,-4.5038,-4.5106,-4.475,-4.4767,-4.4699,-4.4615,-4.4598,-4.4598,-4.4598,-4.4598,-4.4598,-4.4598,-4.4598,-4.4598,-4.4598,-4.2984,-4.3813,-4.3439,-4.3305,-4.3305,-4.3305,-4.3305,-4.3305,-4.3305,-4.3305,-4.3305,-4.3305,-4.3305,-4.3305,-4.3305,-4.3305,-4.3305,-4.3305,-4.3305,-4.3305,-4.3305,-4.3305,-4.3305,-4.3305,-4.3305,-4.3305,-4.3275,-4.311,-4.2476,-4.2028,-4.1647,-4.104,-4.095,-4.0876,-4.0412,-4.0502,-4.0292,-4.0023,-3.9627,-3.9403,-3.9388,-3.9403,-3.9403,-3.9388,-3.9403,-3.9388,-3.9388,-3.9388,-3.9388,-3.9388,-3.9388,-3.9388,-3.9388,-3.9373,-3.9358,-3.9313,-3.8931,-3.9011,-3.9732,-4.0086,-4.0973,-4.1974,-4.2621,-4.2904,-4.3229,-4.3259,-4.3243,-4.4412,-4.415,-4.4335,-4.4997,-4.5213,-4.5483,-4.5618,-4.5602,-4.5652,-4.5669,-4.5788,-4.5957,-4.5889,-4.5872,-4.5923,-4.5974,-4.5957,-4.5805,-4.5635,-4.5686,-4.5771,-4.5889,-4.6087,-4.6058,-4.6007,-4.5771,-4.55,-4.5855,-4.6024,-4.5957,-4.5889,-4.594,-4.5923,-4.5855,-4.5754,-4.5348,-4.4993,-4.4874,-4.4801,-4.4699,-4.4598,-4.4598,-4.4598,-4.4598,-4.4598,-4.4598,-4.4598,-4.4598,-4.3979,-4.4725,-4.4067,-4.3693,-4.3544,-4.3529,-4.3439,-4.3305,-4.3305,-4.3305,-4.3305,-4.3305,-4.3305,-4.3305,-4.3305,-4.3305,-4.3305,-4.3305,-4.3305,-4.3305,-4.3305,-4.3305,-4.3305,-4.3305,-4.3305,-4.3305,-4.3305,-4.3215,-4.3095,-4.2806,-4.2306,-4.1677,-4.1677,-4.1512,-4.1422,-4.1272,-4.0995,-4.0666,-4.0262,-4.0068,-3.9993,-3.9798,-3.9687,-3.9634,-3.9529,-3.9388,-3.9388,-3.9388,-3.9388,-3.9388,-3.9388,-3.9388,-3.9388,-3.9388,-3.9388,-3.9373,-3.9194,-3.9823,-4.0538,-4.1203,-4.1981,-4.297,-4.3651,-4.3844,-4.4281,-4.4615,-4.4801,-4.4908,-4.5201,-4.546,-4.5805,-4.5974,-4.6143,-4.6413,-4.6599,-4.6735,-4.6786,-4.6667,-4.6566,-4.6447,-4.6633,-4.7293,-4.7344,-4.7394,-4.7208,-4.6819,-4.6786,-4.6836,-4.6748,-4.6722,-4.6528,-4.633,-4.6524,-4.622,-4.6363,-4.665,-4.6684,-4.6802,-4.6853,-4.6752,-4.6549,-4.6278,-4.5889,-4.5551,-4.5348,-4.5399,-4.5551,-4.5072,-4.4598,-4.4598,-4.4598,-4.4598,-4.4598,-4.4598,-4.4598,-4.6092,-4.6085,-4.5454,-4.4796,-4.4201,-4.4257,-4.3898,-4.3379,-4.3319,-4.3305,-4.3305,-4.3305,-4.3305,-4.3305,-4.3305,-4.3305,-4.3305,-4.3305,-4.3305,-4.3305,-4.3305,-4.3305,-4.3305,-4.3305,-4.3305,-4.3305,-4.3305,-4.3305,-4.329,-4.3185,-4.2791,-4.241,-4.2351,-4.1946,-4.1707,-4.1647,-4.1519,-4.1294,-4.1055,-4.1025,-4.0876,-4.0651,-4.0337,-4.0202,-3.9798,-3.9439,-3.9418,-3.9568,-3.9642,-3.9642,-3.9687,-3.9709,-3.9798,-3.9753,-3.9768,-3.9768,-3.9753,-4.0446,-4.1406,-4.1962,-4.2881,-4.3906,-4.4592,-4.4704,-4.4976,-4.4699,-4.4902,-4.5602,-4.6177,-4.6566,-4.6735,-4.6752,-4.6853,-4.7141,-4.7361,-4.7344,-4.7327,-4.7208,-4.709,-4.6972,-4.7327,-4.797,-4.8257,-4.8206,-4.7986,-4.7597,-4.7368,-4.7389,-4.6884,-4.6742,-4.6478,-4.6455,-4.6999,-4.7038,-4.6921,-4.7107,-4.7496,-4.753,-4.7513,-4.7276,-4.7022,-4.6735,-4.6786,-4.6566,-4.6464,-4.6447,-4.6278,-4.572,-4.5224,-4.4784,-4.4598,-4.4598,-4.4598,-4.4598,-4.4598,-4.6211,-4.6905,-4.6636,-4.5903,-4.4885,-4.4481,-4.4167,-4.3898,-4.3469,-4.3305,-4.3334,-4.3305,-4.3305,-4.3305,-4.3305,-4.3305,-4.3305,-4.3305,-4.3305,-4.3305,-4.3305,-4.3305,-4.3305,-4.3305,-4.3305,-4.3305,-4.3305,-4.3305,-4.3305,-4.3305,-4.32,-4.3,-4.2895,-4.2865,-4.2566,-4.2147,-4.2051,-4.1901,-4.1662,-4.1452,-4.1324,-4.1205,-4.0995,-4.095,-4.0861,-4.0636,-4.0666,-4.0636,-4.0621,-4.0576,-4.0561,-4.0516,-4.0502,-4.0502,-4.0502,-4.0502,-4.0487,-4.1157,-4.211,-4.2679,-4.3663,-4.5458,-4.5957,-4.5901,-4.5703,-4.5207,-4.5382,-4.6194,-4.7394,-4.7817,-4.753,-4.7513,-4.7631,-4.797,-4.8071,-4.8003,-4.7936,-4.7834,-4.7851,-4.7834,-4.8139,-4.8629,-4.8815,-4.89,-4.8629,-4.8325,-4.8115,-4.7779,-4.7128,-4.6775,-4.6573,-4.6504,-4.6999,-4.7796,-4.7764,-4.8044,-4.8376,-4.8257,-4.8122,-4.7953,-4.7784,-4.8139,-4.8122,-4.7851,-4.753,-4.7428,-4.7073,-4.6397,-4.5872,-4.5466,-4.4987,-4.4598,-4.4598,-4.4733,-4.4801,-4.6491,-4.7266,-4.7309,-4.6651,-4.5589,-4.511,-4.4796,-4.4541,-4.4152,-4.3913,-4.3898,-4.3708,-4.3589,-4.3559,-4.3349,-4.3305,-4.3305,-4.3305,-4.3305,-4.3305,-4.3305,-4.3305,-4.3305,-4.3305,-4.3305,-4.3305,-4.3305,-4.3305,-4.3305,-4.3305,-4.326,-4.3245,-4.329,-4.323,-4.314,-4.294,-4.2656,-4.2506,-4.2282,-4.1968,-4.1998,-4.1773,-4.1707,-4.1647,-4.1414,-4.125,-4.1257,-4.1227,-4.1272,-4.1287,-4.1317,-4.1362,-4.1392,-4.1422,-4.1422,-4.1437,-4.1498,-4.1805,-4.254,-4.3606,-4.4493,-4.5821,-4.6545,-4.6638,-4.6498,-4.5884,-4.6092,-4.7005,-4.8206,-4.8781,-4.8223,-4.8257,-4.8325,-4.8578,-4.8646,-4.8612,-4.8646,-4.8595,-4.868,-4.8748,-4.8968,-4.8934,-4.8951,-4.897,-4.8555,-4.8226,-4.7938,-4.7471,-4.673,-4.6545,-4.6729,-4.6731,-4.6945,-4.7816,-4.8652,-4.8658,-4.8663,-4.8697,-4.8612,-4.8731,-4.8765,-4.9018,-4.8984,-4.8511,-4.8274,-4.8308,-4.8037,-4.7564,-4.6887,-4.6194,-4.5737,-4.5359,-4.5529,-4.5686,-4.5399,-4.7251,-4.7309,-4.7309,-4.6905,-4.6307,-4.6234,-4.5858,-4.5304,-4.5125,-4.5065,-4.4975,-4.4541,-4.4287,-4.4182,-4.3798,-4.3663,-4.3618,-4.3544,-4.3529,-4.3604,-4.3544,-4.3409,-4.3349,-4.3364,-4.3305,-4.3305,-4.3305,-4.3305,-4.3305,-4.3305,-4.3305,-4.3305,-4.3305,-4.3305,-4.3305,-4.329,-4.326,-4.3245,-4.314,-4.3065,-4.2955,-4.2566,-4.2425,-4.2276,-4.1968,-4.1788,-4.1788,-4.1773,-4.1803,-4.1788,-4.1758,-4.1743,-4.1713,-4.1683,-4.1669,-4.1624,-4.1579,-4.1941,-4.2685,-4.4344,-4.5276,-4.5967,-4.6868,-4.7208,-4.6989,-4.6836,-4.6972,-4.7902,-4.8578,-4.8951,-4.8934,-4.8934,-4.8934,-4.8951,-4.9001,-4.9018,-4.9018,-4.9018,-4.9018,-4.9018,-4.9018,-4.9001,-4.9001,-4.8909,-4.845,-4.8079,-4.7754,-4.7172,-4.647,-4.6314,-4.6558,-4.6627,-4.6747,-4.744,-4.8257,-4.8781,-4.8951,-4.9001,-4.9018,-4.9018,-4.9018,-4.9018,-4.8968,-4.89,-4.8815,-4.8663,-4.8798,-4.8866,-4.8037,-4.7242,-4.6752,-4.6447,-4.6616,-4.6549,-4.6194,-4.7309,-4.7309,-4.7309,-4.7189,-4.692,-4.6486,-4.6172,-4.5918,-4.5529,-4.5304,-4.5259,-4.502,-4.4975,-4.487,-4.4751,-4.4541,-4.4571,-4.4631,-4.4631,-4.4541,-4.4197,-4.4032,-4.3873,-4.3618,-4.3379,-4.3305,-4.3305,-4.3349,-4.3305,-4.3305,-4.3305,-4.3305,-4.3305,-4.3305,-4.3305,-4.3305,-4.329,-4.329,-4.3275,-4.3275,-4.3275,-4.3105,-4.297,-4.2955,-4.2686,-4.2566,-4.2536,-4.2491,-4.2506,-4.2506,-4.2506,-4.2536,-4.2536,-4.2551,-4.2596,-4.2626,-4.2641,-4.2734,-4.332,-4.4341,-4.5621,-4.6553,-4.7452,-4.7966,-4.8223,-4.8274,-4.8443,-4.8511,-4.8781,-4.9018,-4.8984,-4.8984,-4.8984,-4.8984,-4.9018,-4.9018,-4.9018,-4.9018,-4.9018,-4.9018,-4.9018,-4.9018,-4.9018,-4.9004,-4.8627,-4.8537,-4.8344,-4.7322,-4.6504,-4.6295,-4.6349,-4.6349,-4.6504,-4.7104,-4.7737,-4.8545,-4.897,-4.9001,-4.9018,-4.9018,-4.9018,-4.9018,-4.9001,-4.8951,-4.8984,-4.9018,-4.9018,-4.8984,-4.8832,-4.8325,-4.7682,-4.7175,-4.7073,-4.6989,-4.6786,-4.7309,-4.7309,-4.7309,-4.7309,-4.7234,-4.6845,-4.6666,-4.6591,-4.6187,-4.5992,-4.5963,-4.5798,-4.5648,-4.5589,-4.5409,-4.5289,-4.5289,-4.5274,-4.5274,-4.5229,-4.4885,-4.4691,-4.4481,-4.4157,-4.3977,-4.3738,-4.3604,-4.3589,-4.3319,-4.3305,-4.3305,-4.3305,-4.3319,-4.3305,-4.3305,-4.3305,-4.3305,-4.3305,-4.3305,-4.3305,-4.329,-4.326,-4.326,-4.326,-4.3215,-4.323,-4.3275,-4.3305,-4.3305,-4.3305,-4.3305,-4.3305,-4.3305,-4.3305,-4.3305,-4.3305,-4.329,-4.326,-4.35,-4.4228,-4.5496,-4.6738,-4.7982,-4.8608,-4.8892,-4.8849,-4.8883,-4.8934,-4.9018,-4.9018,-4.9018,-4.9018,-4.9018,-4.9018,-4.9052,-4.9052,-4.9086,-4.9086,-4.9171,-4.9154,-4.9154,-4.912,-4.912,-4.9007,-4.8899,-4.894,-4.8979,-4.7886,-4.6842,-4.6601,-4.6601,-4.6759,-4.6779,-4.7306,-4.7933,-4.8608,-4.8923,-4.9001,-4.9018,-4.9018,-4.9018,-4.9018,-4.9018,-4.9018,-4.9018,-4.9018,-4.9018,-4.8951,-4.8883,-4.8714,-4.8325,-4.7902,-4.7581,-4.7513,-4.7496,-4.7309,-4.7309,-4.7309,-4.7309,-4.7294,-4.7249,-4.7249,-4.7279,-4.7249,-4.7204,-4.7204,-4.6531,-4.6352,-4.6217,-4.5708,-4.5529,-4.5574,-4.5544,-4.5574,-4.5484,-4.5424,-4.5349,-4.5289,-4.514,-4.4706,-4.4451,-4.4317,-4.4097,-4.3484,-4.3678,-4.3648,-4.3499,-4.3559,-4.3529,-4.3499,-4.3364,-4.3334,-4.3305,-4.3305,-4.3305,-4.3305,-4.3305,-4.3305,-4.3305,-4.3305,-4.3305,-4.3305,-4.3305,-4.3305,-4.3305,-4.3305,-4.3305,-4.3305,-4.3305,-4.3305,-4.3305,-4.3305,-4.3305,-4.3409,-4.422,-4.5174,-4.6314,-4.7088,-4.7933,-4.8688,-4.9018,-4.9018,-4.9018,-4.9018,-4.9018,-4.9018,-4.9018,-4.9018,-4.9069,-4.9137,-4.9154,-4.9187,-4.9255,-4.9357,-4.9407,-4.9441,-4.9458,-4.956,-4.9478,-4.9615,-4.982,-4.9813,-4.9191,-4.8145,-4.7137,-4.7293,-4.7819,-4.7803,-4.7704,-4.8257,-4.888,-4.8923,-4.9001,-4.9018,-4.9018,-4.9018,-4.9035,-4.9018,-4.9018,-4.9018,-4.9018,-4.9018,-4.9018,-4.9001,-4.8798,-4.8629,-4.8578,-4.8257,-4.8443,-4.8511,-4.7309,-4.7309,-4.7309,-4.7309,-4.7309,-4.7309,-4.7309,-4.7309,-4.7309,-4.7309,-4.7294,-4.7115,-4.695,-4.698,-4.6815,-4.6711,-4.6681,-4.6726,-4.6756,-4.6576,-4.6172,-4.6067,-4.5888,-4.5633,-4.5259,-4.5095,-4.4975,-4.4885,-4.4736,-4.4661,-4.4631,-4.4721,-4.4212,-4.4037,-4.3828,-4.3544,-4.3469,-4.3409,-4.3439,-4.3394,-4.3379,-4.3379,-4.3349,-4.3319,-4.3305,-4.3305,-4.3305,-4.3305,-4.3305,-4.3305,-4.3305,-4.3305,-4.3305,-4.3305,-4.3305,-4.3305,-4.3305,-4.3305,-4.3369,-4.3591,-4.4419,-4.5742,-4.6467,-4.7506,-4.8401,-4.8973,-4.899,-4.912,-4.9289,-4.9407,-4.9424,-4.9407,-4.939,-4.9441,-4.9576,-4.9763,-4.983,-5.0033,-5.0118,-5.0202,-5.0171,-5.0253,-5.0287,-5.0338,-5.0509,-5.0745,-5.07,-5.0223,-4.961,-4.8642,-4.8245,-4.8795,-4.8711,-4.8579,-4.8651,-4.9156,-4.9055,-4.9018,-4.9204,-4.9306,-4.9272,-4.9272,-4.9086,-4.9154,-4.9373,-4.9238,-4.9018,-4.9069,-4.9221,-4.9035,-4.8883,-4.8951,-4.9018,-4.9018,-4.9018,-4.7309,-4.7309,-4.7309,-4.7309,-4.7309,-4.7309,-4.7309,-4.7309,-4.7309,-4.7309,-4.7309,-4.7294,-4.7309,-4.7279,-4.7249,-4.7234,-4.7234,-4.7174,-4.7189,-4.707,-4.689,-4.6785,-4.6501,-4.6262,-4.6007,-4.5828,-4.5648,-4.5514,-4.5454,-4.5304,-4.5244,-4.5185,-4.4811,-4.4751,-4.4601,-4.4407,-4.4242,-4.4092,-4.3943,-4.3763,-4.3718,-4.3703,-4.3559,-4.3379,-4.3364,-4.3364,-4.3364,-4.3364,-4.3334,-4.3305,-4.3305,-4.3305,-4.3305,-4.3305,-4.3305,-4.3305,-4.3305,-4.3305,-4.3344,-4.3305,-4.4266,-4.5216,-4.5959,-4.6834,-4.7835,-4.8588,-4.9056,-4.9441,-4.9729,-4.9949,-4.9932,-4.9898,-4.9915,-4.9949,-5.0219,-5.0507,-5.0727,-5.0914,-5.1033,-5.1117,-5.1168,-5.1234,-5.1285,-5.1302,-5.1369,-5.1555,-5.1758,-5.1779,-5.121,-5.0476,-5.0026,-5.0136,-4.9772,-4.9424,-4.9527,-4.9678,-4.983,-4.9965,-5.0152,-5.0152,-4.9847,-4.9746,-4.9813,-4.9847,-4.9898,-4.9746,-4.961,-4.9475,-4.9509,-4.934,-4.9171,-4.9103,-4.9086,-4.9018,-4.9018,-4.7207,-4.7309,-4.7309,-4.7309,-4.7309,-4.7309,-4.7309,-4.7309,-4.7309,-4.7309,-4.7309,-4.7309,-4.7309,-4.7309,-4.7309,-4.7309,-4.7309,-4.7309,-4.7309,-4.7309,-4.7219,-4.7145,-4.7174,-4.7234,-4.6726,-4.6501,-4.6352,-4.6202,-4.5708,-4.5708,-4.5798,-4.5439,-4.5394,-4.5379,-4.5334,-4.5095,-4.5005,-4.5125,-4.484,-4.4586,-4.4436,-4.4317,-4.4082,-4.3648,-4.3574,-4.3574,-4.3559,-4.3499,-4.3439,-4.3469,-4.3424,-4.3454,-4.3305,-4.3305,-4.3305,-4.3305,-4.3305,-4.3439,-4.3499,-4.3559,-4.4191,-4.4957,-4.5494,-4.6534,-4.761,-4.8543,-4.9116,-4.9964,-5.0354,-5.0715,-5.0828,-5.0676,-5.0608,-5.0727,-5.0963,-5.1183,-5.1369,-5.1657,-5.1978,-5.2063,-5.2147,-5.2164,-5.2063,-5.208,-5.2198,-5.2334,-5.2486,-5.2739,-5.252,-5.1914,-5.1559,-5.1286,-5.0686,-5.0288,-5.05,-5.0659,-5.0879,-5.0999,-5.1033,-5.0898,-5.0591,-5.0526,-5.0593,-5.0779,-5.0997,-5.0591,-5.0388,-5.0253,-5.005,-4.9779,-4.9576,-4.9306,-4.9204,-4.9306,-4.9069,-4.6432,-4.7294,-4.7309,-4.7309,-4.7309,-4.7309,-4.7309,-4.7309,-4.7309,-4.7309,-4.7309,-4.7309,-4.7309,-4.7309,-4.7309,-4.7309,-4.7309,-4.7309,-4.7309,-4.7309,-4.7309,-4.7309,-4.7309,-4.7294,-4.716,-4.713,-4.7025,-4.689,-4.6666,-4.6681,-4.6756,-4.6711,-4.6396,-4.6082,-4.6037,-4.5768,-4.5678,-4.6007,-4.5888,-4.5484,-4.52,-4.5095,-4.4915,-4.4766,-4.4736,-4.4661,-4.4676,-4.4721,-4.4766,-4.4796,-4.4302,-4.3883,-4.3349,-4.3349,-4.3319,-4.3305,-4.3454,-4.3693,-4.3932,-4.4163,-4.4679,-4.5607,-4.6354,-4.7031,-4.779,-4.8547,-4.936,-5.0259,-5.1062,-5.1494,-5.1708,-5.1505,-5.1403,-5.1572,-5.1725,-5.1894,-5.2046,-5.2401,-5.2807,-5.2909,-5.301,-5.2959,-5.2841,-5.2875,-5.3044,-5.3129,-5.3196,-5.3298,-5.3247,-5.2842,-5.2436,-5.2064,-5.1422,-5.1137,-5.1403,-5.1555,-5.1725,-5.1606,-5.1522,-5.1371,-5.1336,-5.1403,-5.1539,-5.1995,-5.2147,-5.1623,-5.1183,-5.1014,-5.0777,-5.0388,-5.0168,-4.9965,-5.0084,-5.0202,-4.9627,-4.5298,-4.6447,-4.7062,-4.7309,-4.7309,-4.7309,-4.7309,-4.7309,-4.7309,-4.7309,-4.7309,-4.7309,-4.7309,-4.7309,-4.7309,-4.7309,-4.7309,-4.7309,-4.7309,-4.7309,-4.7309,-4.7309,-4.7309,-4.7309,-4.7294,-4.7294,-4.7294,-4.7264,-4.7309,-4.7279,-4.7219,-4.7249,-4.6875,-4.6726,-4.6681,-4.6381,-4.6307,-4.6698,-4.6726,-4.6486,-4.6037,-4.5918,-4.5544,-4.5454,-4.5304,-4.5334,-4.5289,-4.5289,-4.5274,-4.5244,-4.4885,-4.4706,-4.4377,-4.4332,-4.4272,-4.4272,-4.4291,-4.4362,-4.4631,-4.4892,-4.5202,-4.5966,-4.6483,-4.6862,-4.6985,-4.7755,-4.9053,-5.0111,-5.2067,-5.2706,-5.2672,-5.2553,-5.2536,-5.2638,-5.2706,-5.279,-5.2858,-5.3027,-5.3213,-5.3247,-5.3315,-5.3298,-5.3213,-5.3213,-5.3331,-5.3331,-5.3484,-5.3484,-5.3501,-5.3518,-5.3179,-5.2875,-5.2232,-5.2164,-5.2486,-5.2536,-5.252,-5.2334,-5.2046,-5.2283,-5.2435,-5.2367,-5.2469,-5.2739,-5.2773,-5.2384,-5.2012,-5.1792,-5.1386,-5.0963,-5.0811,-5.0693,-5.0879,-5.1031,-5.0591,-4.3975,-4.5267,-4.6506,-4.7019,-4.7047,-4.7019,-4.7164,-4.7309,-4.7309,-4.7309,-4.7309,-4.7309,-4.7309,-4.7309,-4.7309,-4.7309,-4.7309,-4.7309,-4.7309,-4.7309,-4.7309,-4.7309,-4.7309,-4.7309,-4.7309,-4.7309,-4.7309,-4.7309,-4.7309,-4.7309,-4.7309,-4.7309,-4.7309,-4.7294,-4.7309,-4.7279,-4.7204,-4.7174,-4.7174,-4.7234,-4.7025,-4.6785,-4.6232,-4.5798,-4.5559,-4.5544,-4.5559,-4.5559,-4.5574,-4.5529,-4.5544,-4.5259,-4.511,-4.499,-4.5035,-4.5005,-4.4975,-4.514,-4.5394,-4.5439,-4.5585,-4.5837,-4.6145,-4.6426,-4.6659,-4.733,-4.867,-5.0279,-5.2198,-5.3416,-5.3365,-5.3382,-5.3382,-5.3382,-5.3416,-5.3433,-5.345,-5.3484,-5.3501,-5.3518,-5.3518,-5.3518,-5.3518,-5.3518,-5.3518,-5.3518,-5.3518,-5.3518,-5.3518,-5.3518,-5.3365,-5.3281,-5.301,-5.3129,-5.3348,-5.323,-5.3027,-5.3061,-5.2875,-5.3247,-5.3433,-5.3095,-5.2993,-5.323,-5.3162,-5.2858,-5.2706,-5.2503,-5.2063,-5.1674,-5.1471,-5.1454,-5.1742,-5.1843,-5.1623,-4.2703,-4.3962,-4.5252,-4.5779,-4.5779,-4.5779,-4.6358,-4.7207,-4.7266,-4.7309,-4.7309,-4.7309,-4.7309,-4.7309,-4.7309,-4.7309,-4.7309,-4.7309,-4.7309,-4.7309,-4.7309,-4.7309,-4.7309,-4.7309,-4.7309,-4.7309,-4.7309,-4.7309,-4.7309,-4.7309,-4.7309,-4.7309,-4.7309,-4.7309,-4.7309,-4.7309,-4.7309,-4.7309,-4.7309,-4.7309,-4.7309,-4.7145,-4.713,-4.695,-4.6935,-4.692,-4.692,-4.692,-4.692,-4.6785,-4.6396,-4.5933,-4.5678,-4.5544,-4.5559,-4.5633,-4.5603,-4.5783,-4.5963,-4.6097,-4.6217,-4.6606,-4.6935,-4.698,-4.7083,-4.7126,-4.8476,-4.9817,-5.1634,-5.3179,-5.3467,-5.3467,-5.3467,-5.3467,-5.3484,-5.3484,-5.3501,-5.3501,-5.3501,-5.3518,-5.3518,-5.3518,-5.3518,-5.3518,-5.3518,-5.3518,-5.3518,-5.3518,-5.3518,-5.3518,-5.3518,-5.3518,-5.3518,-5.3501,-5.3467,-5.345,-5.3348,-5.3467,-5.3518,-5.3518,-5.3518,-5.3518,-5.3518,-5.3518,-5.3518,-5.3315,-5.3196,-5.301,-5.3027,-5.2672,-5.23,-5.2215,-5.252,-5.2604,-5.2367]},{"header":{"parameterUnit":"m.s-1","parameterCategory":1,"la1":31.0,"la2":29.5877,"lo1":-88.7671,"lo2":-86.6584,"dy":0.0162,"dx":0.0185,"nx":115,"ny":88,"refTime":"2024-06-15T00:00:00:Z","depth":0,"parameterNumber":3,"parameterNumberName":"V-component_of_WINDS"},"data":[0.0,0.0,0.0,0.0,0.0,0.0,0.0,0.0,0.0,0.0,0.0,0.0,0.0,0.0,0.0,0.0,0.0,0.0,0.0,0.0,0.0,0.0,0.0,0.0,0.0,0.0,0.0,0.0,0.0,0.0,0.0,0.0,0.0,0.0,0.0,0.0,0.0,0.0,0.0,0.0,0.0,0.0,0.0,0.0,0.0,0.0,0.0,0.0,0.0,0.0,0.0,0.0,0.0,0.0,0.0,0.0,0.0,0.0,0.0,0.0,0.0,0.0,0.0,0.0,0.0,0.0,0.0,0.0,0.0,0.0,0.0,0.0,0.0,0.0,0.0,0.0,0.0,0.0,0.0,0.0,0.0,0.0,0.0,0.0,0.0,0.0,0.0,0.0,0.0,0.0,0.0,0.0,0.0,0.0,0.0,0.0,0.0,0.0,0.0,0.0,0.0,0.0,0.0,0.0,0.0,0.0,0.0,0.0,0.0,0.0,0.0,0.0,0.0,0.0,0.0,0.0,0.0,0.0,0.0,0.0,0.0,0.0,0.0,0.0,0.0,0.0,0.0,0.0,0.0,0.0,0.0,0.0,0.0,0.0,0.0,0.0,0.0,0.0,0.0,0.0,0.0,0.0,0.0,0.0,0.0,0.0,0.0,0.0,0.0,0.0,0.0,0.0,0.0,0.0,0.0,0.0,0.0,0.0,0.0,0.0,0.0,0.0,0.0,0.0,0.0,0.0,0.0,0.0,0.0,0.0,0.0,0.0,0.0,0.0,0.0,0.0,0.0,0.0,0.0,0.0,0.0,0.0,0.0,0.0,0.0,0.0,0.0,0.0,0.0,0.0,0.0,0.0,0.0,0.0,0.0,0.0,0.0,0.0,0.0,0.0,0.0,0.0,0.0,0.0,0.0,0.0,0.0,0.0,0.0,0.0,0.0,0.0,0.0,0.0,0.0,0.0,0.0,0.0,0.0,0.0,0.0,0.0,0.0,0.0,0.0,0.0,0.0,0.0,0.0,0.0,0.0,0.0,0.0,0.0,0.0,0.0,0.0,0.0,0.0,0.0,0.0,0.0,0.0,0.0,0.0,0.0,0.0,0.0,0.0,0.0,0.0,0.0,0.0,0.0,0.0,0.0,0.0,0.0,0.0,0.0,0.0,0.0,0.0,0.0,0.0,0.0,0.0,0.0,0.0,0.0,0.0,0.0,0.0,0.0,0.0,0.0,0.0,0.0,0.0,0.0,0.0,0.0,0.0,0.0,0.0,0.0,0.0,0.0,0.0,0.0,0.0,0.0,0.0,0.0,0.0,0.0,0.0,0.0,0.0,0.0,0.0,0.0,0.0,0.0,0.0,0.0,0.0,0.0,0.0,0.0,0.0,0.0,0.0,0.0,0.0,0.0,0.0,0.0,0.0,0.0,0.0,0.0,0.0,0.0,0.0,0.0,0.0,0.0,0.0,0.0,0.0,0.0,0.0,0.0,0.0,0.0,0.0,0.0,0.0,0.0,0.0,0.0,0.0,0.0,0.0,0.0,0.0,0.0,0.0,0.0,0.0,0.0,0.0,0.0,0.0,0.0,0.0,0.0,0.0,0.0,0.0,0.0,0.0,0.0,0.0,0.0,0.0,0.0,0.0,0.0,0.0,0.0,0.0,0.0,0.0,0.0,0.0,0.0,0.0,0.0,0.0,0.0,0.0,0.0,0.0,0.0,0.0,0.0,0.0,0.0,0.0,0.0,0.0,0.0,0.0,0.0,0.0,0.0,0.0,0.0,0.0,0.0,0.0,0.0,0.0,0.0,0.0,0.0,0.0,0.0,0.0,0.0,0.0,0.0,0.0,0.0,0.0,0.0,0.0,0.0,0.0,0.0,0.0,0.0,0.0,0.0,0.0,0.0,0.0,0.0,0.0,0.0,0.0,0.0,0.0,0.0,0.0,0.0,0.0,0.0,0.0,0.0,0.0,0.0,0.0,0.0,0.0,0.0,0.0,0.0,0.0,0.0,0.0,0.0,0.0,0.0,0.0,0.0,0.0,0.0,0.0,0.0,0.0,0.0,0.0,0.0,0.0,0.0,0.0,0.0,0.0,0.0,0.0,0.0,0.0,0.0,0.0,0.0,0.0,0.0,0.0,0.0,0.0,0.0,0.0,0.0,0.0,0.0,0.0,0.0,0.0,0.0,0.0,0.0,0.0,0.0,0.0,0.0,0.0,0.0,0.0,0.0,0.0,0.0,0.0,0.0,0.0,0.0,0.0,0.0,0.0,0.0,0.0,0.0,0.0,0.0,0.0,0.0,0.0,0.0,0.0,0.0,0.0,0.0,0.0,0.0,0.0,0.0,0.0,0.0,0.0,0.0,0.0,0.0,0.0,0.0,0.0,0.0,0.0,0.0,0.0,0.0,0.0,0.0,0.0,0.0,0.0,0.0,0.0,0.0,0.0,0.0,0.0,0.0,0.0,0.0,0.0,0.0,0.0,0.0,0.0,0.0,0.0,0.0,0.0,0.0,0.0,0.0,0.0,0.0,0.0,0.0,0.0,0.0,0.0,0.0,0.0,0.0,0.0,0.0,0.0,0.0,0.0,0.0,0.0,0.0,0.0,0.0,0.0,0.0,0.0,0.0,0.0,0.0,0.0,0.0,0.0,0.0,0.0,0.0,0.0,0.0,0.0,0.0,0.0,0.0,0.0,0.0,0.0,0.0,0.0,0.0,0.0,0.0,0.0,0.0,0.0,0.0,0.0,0.0,0.0,0.0,0.0,0.0,0.0,0.0,0.0,0.0,0.0,0.0,0.0,0.0,0.0,0.0,0.0,0.0,0.0,0.0,0.0,0.0,0.0,0.0,0.0,0.0,0.0,0.0,0.0,0.0,0.0,0.0,0.0,0.0,0.0,0.0,0.0,0.0,0.0,0.0,0.0,0.0,0.0,0.0,0.0,0.0,0.0,0.0,0.0,0.0,0.0,0.0,0.0,0.0,0.0,0.0,0.0,0.0,0.0,0.0,0.0,0.0,0.0,0.0,0.0,0.0,0.0,0.0,0.0,0.0,0.0,0.0,0.0,0.0,0.0,0.0,0.0,0.0,0.0,0.0,0.0,0.0,0.0,0.0,0.0,0.0,0.0,0.0,0.0,0.0,0.0,0.0,0.0,0.0,0.0,0.0,0.0,0.0,0.0,0.0,0.0,0.0,0.0,0.0,0.0,0.0,0.0,0.0,0.0,0.0,0.0,0.0,0.0,0.0,0.0,0.0,0.0,0.0,0.0,0.0,0.0,0.0,0.0,0.0,0.0,0.0,0.0,0.0,0.0,0.0,0.0,0.0,0.0,0.0,0.0,0.0,0.0,0.0,0.0,0.0,0.0,0.0,0.0,0.0,0.0,0.0,0.0,0.0,0.0,0.0,0.0,0.0,0.0,0.0,0.0,0.0,0.0,0.0,0.0,0.0,0.0,0.0,0.0,0.0,0.0,0.0,0.0,0.0,0.0,0.0,0.0,0.0,0.0,0.0,0.0,0.0,0.0,0.0,0.0,0.0,0.0,0.0,0.0,0.0,0.0,0.0,0.0,0.0,0.0,0.0,0.0,0.0,0.0,0.0,0.0,0.0,0.0,0.0,0.0,0.0,0.0,0.0,0.0,0.0,0.0,0.0,0.0,0.0,0.0,0.0,0.0,0.0,0.0,0.0,0.0,0.0,0.0,0.0,0.0,0.0,0.0,0.0,0.0,0.0,0.0,0.0,0.0,0.0,0.0,0.0,0.0,0.0,0.0,0.0,0.0,0.0,0.0,0.0,0.0,0.0,0.0,0.0,0.0,0.0,0.0,0.0,0.0,0.0,0.0,0.0,0.0,0.0,0.0,0.0,0.0,0.0,0.0,0.0,0.0,0.0,0.0,0.0,0.0,0.0,0.0,0.0,0.0,0.0,0.0,0.0,0.0,0.0,0.0,0.0,0.0,0.0,0.0,0.0,0.0,0.0,0.0,0.0,0.0,0.0,0.0,0.0,0.0,0.0,0.0,0.0,0.0,0.0,0.0,0.0,0.0,0.0,0.0,0.0,0.0,0.0,0.0,0.0,0.0,0.0,0.0,0.0,0.0,0.0,0.0,0.0,0.0,0.0,0.0,0.0,0.0,0.0,0.0,0.0,0.0,0.0,0.0,0.0,0.0,0.0,0.0,0.0,0.0,0.0,0.0,0.0,0.0,0.0,0.0,0.0,0.0,0.0,0.0,0.0,0.0,0.0,0.0,0.0,0.0,0.0,0.0,0.0,0.0,0.0,0.9814,0.0,0.0,0.0,0.0,0.0,0.0,0.0,0.0,0.0,0.0,0.0,0.0,0.0,0.0,0.0,0.0,0.0,0.0,0.0,0.0,0.0,0.0,0.0,0.0,0.0,0.0,0.0,0.0,0.0,0.0,0.0,0.0,0.0,0.0,0.0,0.0,0.0,0.0,0.0,0.0,0.0,0.0,0.0,0.0,0.0,0.0,0.0,0.0,0.0,0.0,0.0,0.0,0.0,0.0,0.0,0.0,0.0,0.0,0.0,0.0,0.0,0.0,0.0,0.0,0.0,0.0,0.0,0.0,0.0,0.0,0.0,0.0,0.0,0.0,0.0,0.0,0.0,0.0,0.0,0.0,0.0,0.0,0.0,0.0,0.0,0.0,0.0,0.0,0.0,0.0,0.0,0.0,0.0,0.0,0.0,0.0,0.0,0.0,0.0,0.0,0.0,0.0,0.0,0.0,0.0,0.0,0.0,0.0,0.0,0.0,1.0175,1.0149,1.0029,0.99,0.9701,0.0,0.0,0.0,0.0,0.0,0.0,0.0,0.0,0.0,0.0,0.0,0.0,0.0,0.0,0.0,0.0,0.0,0.0,0.0,0.0,0.0,0.0,0.0,0.0,0.0,0.0,0.0,0.0,0.0,0.0,0.0,0.0,0.0,0.0,0.0,0.0,0.0,0.0,0.0,0.0,0.0,0.0,0.0,0.0,0.0,0.0,0.0,0.0,0.0,0.0,0.0,0.0,0.0,0.0,0.0,0.0,0.0,0.0,0.0,0.0,0.0,0.0,0.0,0.0,0.0,0.0,0.0,0.0,0.0,0.0,0.0,0.0,0.0,0.0,0.0,0.0,0.0,0.0,0.0,0.0,0.0,0.0,0.0,0.0,0.0,0.0,0.0,0.0,0.0,0.0,0.0,0.0,0.0,0.0,0.0,0.0,0.0,0.0,0.0,0.0,0.0,0.0,0.0,0.0,0.0,0.0,0.0,0.0,0.0,0.0,0.0,0.0,1.0527,1.0342,1.0125,0.0,0.0,0.0,0.0,0.0,0.0,0.0,0.0,0.0,0.0,0.0,0.0,0.0,0.0,0.0,0.0,0.0,0.0,0.0,0.0,0.0,0.0,0.0,0.0,0.0,0.0,0.0,0.0,0.0,0.0,0.0,0.0,0.0,0.0,0.0,0.0,0.0,0.0,0.0,0.0,0.0,0.0,0.0,0.0,0.0,0.0,0.0,0.0,0.0,0.0,0.0,0.0,0.0,0.0,0.0,0.0,0.0,0.0,0.0,0.0,0.0,0.0,0.0,0.0,0.0,0.0,0.0,0.0,0.0,0.0,0.0,0.0,0.0,0.0,0.0,0.0,0.0,0.0,0.0,0.0,0.0,0.0,0.0,0.0,0.0,0.0,0.0,0.0,0.0,0.0,0.0,0.0,0.0,0.0,0.0,0.0,0.0,0.0,0.0,0.0,0.0,0.0,0.0,0.0,0.0,0.0,0.0,0.0,0.0,0.0,1.0935,1.2411,1.2199,0.0,1.1716,0.0,0.0,0.0,0.0,0.0,0.0,0.0,0.0,0.0,0.0,0.0,0.0,0.0,0.0,0.0,0.0,0.0,0.0,0.0,0.0,0.0,0.0,0.0,0.0,0.0,0.0,0.0,0.0,0.0,0.0,0.0,0.0,0.0,0.0,0.0,0.0,0.0,0.0,0.0,0.0,0.0,0.0,0.0,0.0,0.0,0.0,0.0,0.0,0.0,0.0,0.0,0.0,0.0,0.0,0.0,0.0,0.0,0.0,0.0,0.0,0.0,0.0,0.0,0.0,0.0,0.0,0.0,0.0,0.0,0.0,0.0,0.0,0.0,0.0,0.0,0.0,0.0,0.0,0.0,0.0,0.0,0.0,0.0,0.0,0.0,0.0,0.0,0.0,0.0,0.0,0.0,0.0,0.0,0.0,0.0,0.0,0.0,0.0,0.0,0.0,0.0,0.0,0.0,0.0,0.0,0.0,0.0,0.0,0.0,0.0,1.1974,1.2622,1.2334,1.2086,0.0,0.0,0.0,0.0,0.0,0.0,0.0,0.0,0.0,0.0,0.0,0.0,0.0,0.0,0.0,0.0,0.0,0.0,0.0,0.0,0.0,0.0,0.0,0.0,0.0,0.0,0.0,0.0,0.0,0.0,0.0,0.0,0.0,0.0,0.0,0.0,0.0,0.0,0.0,0.0,0.0,0.0,0.0,0.0,0.0,0.0,0.0,0.0,0.0,0.0,0.0,0.0,0.0,0.0,0.0,0.0,0.0,0.0,0.0,0.0,0.0,0.0,0.0,0.0,0.0,0.0,0.0,0.0,0.0,0.0,0.0,0.0,0.0,0.0,0.0,0.0,0.0,0.0,0.0,0.0,0.0,0.0,0.0,0.0,0.0,0.0,0.0,0.0,0.0,0.0,0.0,0.0,0.0,0.0,0.0,0.0,0.0,0.0,0.0,0.0,0.0,0.0,0.0,0.0,0.0,0.0,0.0,0.0,0.0,0.0,1.2315,0.0,1.3198,1.2963,1.2535,1.1931,0.0,0.0,0.0,0.0,0.0,0.0,0.0,0.0,0.0,0.0,0.0,0.0,0.0,0.0,0.0,0.0,0.0,0.0,0.0,0.0,0.0,0.0,0.0,0.0,0.0,0.0,0.0,0.0,0.0,0.0,0.0,0.0,0.0,0.0,0.0,0.0,0.0,0.0,0.0,0.0,0.0,0.0,0.0,0.0,0.0,0.0,0.0,0.0,0.0,0.0,0.0,0.0,0.0,0.0,0.0,0.0,0.0,0.0,0.0,0.0,0.0,0.0,0.0,0.0,0.0,0.0,0.0,0.0,0.0,0.0,0.0,0.0,0.0,0.0,0.0,0.0,0.0,0.0,0.0,0.0,0.0,0.0,0.0,0.0,0.0,0.0,0.0,0.0,0.0,0.0,0.0,0.0,0.0,0.0,0.0,0.0,0.0,0.0,0.0,0.0,0.0,0.0,0.0,0.0,0.0,0.0,0.0,0.0,0.0,1.344,1.3381,1.4732,1.4658,1.3731,0.0,0.0,0.0,0.0,0.0,0.0,0.0,0.0,0.0,0.0,0.0,0.0,0.0,0.0,0.0,0.0,0.0,0.0,0.0,0.0,0.0,0.0,0.0,0.0,0.0,0.0,0.0,0.0,0.0,0.0,0.0,0.0,0.0,0.0,0.0,0.0,0.0,0.0,0.0,0.0,0.0,0.0,0.0,0.0,0.0,0.0,0.0,0.0,0.0,0.0,0.0,0.0,0.0,0.0,0.0,0.0,0.0,0.0,0.0,0.0,0.0,0.0,0.0,0.0,0.0,0.0,0.0,0.0,0.0,0.0,0.0,0.0,0.0,0.0,0.0,0.0,0.0,0.0,0.0,0.0,0.0,0.0,0.0,0.0,0.0,0.0,0.0,0.0,0.0,0.0,0.0,0.0,0.0,0.0,0.0,0.0,0.0,0.0,0.0,0.0,0.0,0.0,0.0,0.0,0.0,0.0,0.0,0.0,0.0,1.1898,1.2291,1.3752,1.6177,1.4214,1.3163,0.0,0.0,0.0,0.0,0.0,0.0,0.0,0.0,0.0,0.0,0.0,0.0,0.0,0.0,0.0,0.0,0.0,0.0,0.0,0.0,0.0,0.0,0.0,0.0,0.0,0.0,0.0,0.0,0.0,0.0,0.0,0.0,0.0,0.0,0.0,0.0,0.0,0.0,0.0,0.0,0.0,0.0,0.0,0.0,0.0,0.0,0.0,0.0,0.0,0.0,0.0,0.0,0.0,0.0,0.0,0.0,0.0,0.0,0.0,0.0,0.0,0.0,0.0,0.0,0.0,0.0,0.0,0.0,0.0,0.0,0.0,0.0,0.0,0.0,0.0,0.0,0.0,0.0,0.0,0.0,0.0,0.0,0.0,0.0,0.0,0.0,0.0,0.0,0.0,0.0,0.0,0.0,0.0,0.0,0.0,0.0,0.0,0.0,0.0,0.0,0.0,0.0,0.0,0.0,0.0,0.0,0.0,0.0,0.0,1.1368,0.0,1.4386,0.0,1.3805,1.2577,0.0,0.0,0.0,0.0,0.0,0.0,0.0,0.0,0.0,0.0,0.0,0.0,0.0,0.0,0.0,0.0,0.0,0.0,0.0,0.0,0.0,0.0,0.0,0.0,0.0,0.0,0.0,0.0,0.0,0.0,0.0,0.0,0.0,0.0,0.0,0.0,0.0,0.0,0.0,0.0,0.0,0.0,0.0,0.0,0.0,0.0,0.0,0.0,0.0,0.0,0.0,0.0,0.0,0.0,0.0,0.0,0.0,0.0,0.0,0.0,0.0,0.0,0.0,0.0,0.0,0.0,0.0,0.0,0.0,0.0,0.0,0.0,0.0,0.0,0.0,0.0,0.0,0.0,0.0,0.0,0.0,0.0,0.0,0.0,0.0,0.0,0.0,0.0,0.0,0.0,0.0,0.0,0.0,0.0,0.0,0.0,0.0,0.0,0.0,0.0,0.0,0.0,0.0,0.0,0.0,0.0,0.0,0.0,1.1242,1.3809,1.5142,1.5122,1.3804,1.3498,1.2077,0.0,0.0,0.0,0.0,0.0,0.0,0.0,0.0,0.0,0.0,0.0,0.0,0.0,0.0,0.0,0.0,0.0,0.0,0.0,0.0,0.0,0.0,0.0,0.0,0.0,0.0,0.0,0.0,0.0,0.0,0.0,0.0,0.0,0.0,0.0,0.0,0.0,0.0,0.0,0.0,0.0,0.0,0.0,0.0,0.0,0.0,0.0,0.0,0.0,0.0,0.0,0.0,0.0,0.0,0.0,0.0,0.0,0.0,0.0,0.0,0.0,0.0,0.0,0.0,0.0,0.0,0.0,0.0,0.0,0.0,0.0,0.0,0.0,0.0,0.0,0.0,0.0,0.0,0.0,0.0,0.0,0.0,0.0,0.0,0.0,0.0,0.0,0.0,0.0,0.0,0.0,0.0,0.0,0.0,0.0,0.0,0.0,0.0,0.0,0.0,0.0,0.0,0.0,0.0,0.0,0.0,0.0,0.0,0.0,1.161,1.2798,1.3933,1.48,1.2388,1.1474,0.0,0.0,0.0,0.0,0.0,0.0,0.0,0.0,0.0,0.0,0.0,0.0,0.0,0.0,0.0,0.0,0.0,0.0,0.0,0.0,0.0,0.0,0.0,0.0,0.0,0.0,0.0,0.0,0.0,0.0,0.0,0.0,0.0,0.0,0.0,0.0,0.0,0.0,0.0,0.0,0.0,0.0,0.0,0.0,0.0,0.0,0.0,0.0,0.0,0.0,0.0,0.0,0.0,0.0,0.0,0.0,0.0,0.0,0.0,0.0,0.0,0.0,0.0,0.0,0.0,0.0,0.0,0.0,0.0,0.0,0.0,0.0,0.0,0.0,0.0,0.0,0.0,0.0,0.0,0.0,0.0,0.0,0.0,0.0,0.0,0.0,0.0,0.0,0.0,0.0,0.0,0.0,0.0,0.0,0.0,0.0,0.0,0.0,0.0,0.0,0.0,0.0,0.0,0.0,0.0,0.0,0.0,0.0,0.0,1.1217,1.2963,1.4191,1.4766,1.2441,1.154,1.229,0.0,0.0,0.0,0.0,0.0,0.0,0.0,0.0,0.0,0.0,0.0,0.0,0.0,0.0,0.0,0.0,0.0,0.0,0.0,0.0,0.0,0.0,0.0,0.0,0.0,0.0,0.0,0.0,0.0,0.0,0.0,0.0,0.0,0.0,0.0,0.0,0.0,0.0,0.0,0.0,0.0,0.0,0.0,0.0,0.0,0.0,0.0,0.0,0.0,0.0,0.0,0.0,0.0,0.0,0.0,0.0,0.0,0.0,0.0,0.0,0.0,0.0,0.0,0.0,0.0,0.0,0.0,0.0,0.0,0.0,0.0,0.0,0.0,0.0,0.0,0.0,0.0,0.0,0.0,0.0,0.0,0.0,0.0,0.0,0.0,0.0,0.0,0.0,0.0,0.0,0.0,0.0,0.0,0.0,0.0,0.0,0.0,0.0,0.0,0.0,0.0,0.0,0.0,0.0,0.0,0.0,0.0,0.0,1.2151,1.5077,1.5669,1.3824,1.3458,1.2245,0.0,0.0,0.0,0.0,0.0,0.0,0.0,0.0,0.0,0.0,0.0,0.0,0.0,0.0,0.0,0.0,0.0,0.0,0.0,0.0,0.0,0.0,0.0,0.0,0.0,0.0,0.0,0.0,0.0,0.0,0.0,0.0,0.0,0.0,0.0,0.0,0.0,0.0,0.0,0.0,0.0,0.0,0.0,0.0,0.0,0.0,0.0,0.0,0.0,0.0,0.0,0.0,0.0,0.0,0.0,0.0,0.0,0.0,0.0,0.0,0.0,0.0,0.0,0.0,0.0,0.0,0.0,0.0,0.0,0.0,0.0,0.0,0.0,0.0,0.0,0.0,0.0,0.0,0.0,0.0,0.0,0.0,0.0,0.0,0.0,0.0,0.0,0.0,0.0,0.0,0.0,0.0,0.0,0.0,0.0,0.0,0.0,0.0,0.0,0.0,0.0,0.0,0.0,0.0,0.0,0.0,0.0,0.0,0.0,1.2896,1.4839,1.5641,1.5068,1.3985,1.3221,0.0,0.0,0.0,0.0,0.0,0.0,0.0,0.0,0.0,0.0,0.0,0.0,0.0,0.0,0.0,0.0,0.0,0.0,0.0,0.0,0.0,0.0,0.0,0.0,0.0,0.0,0.0,0.0,0.0,0.0,0.0,0.0,0.0,0.0,0.0,0.0,0.0,0.0,0.0,0.0,0.0,0.0,0.0,0.0,0.0,0.0,0.0,0.0,0.0,0.0,0.0,0.0,0.0,0.0,0.0,0.0,0.0,0.0,0.0,0.0,0.0,0.0,0.0,0.0,0.0,0.0,0.0,0.0,0.0,0.0,0.0,0.0,0.0,0.0,0.0,0.0,0.0,0.0,0.0,0.0,0.0,0.0,0.0,0.0,0.0,0.0,0.0,0.0,0.0,0.0,0.0,0.0,0.0,0.0,0.0,0.0,0.0,0.0,0.0,0.0,0.0,0.0,0.0,0.0,0.0,0.0,0.0,0.0,1.2807,1.3315,1.4799,1.5562,1.5477,1.4673,1.3936,0.0,0.0,0.0,0.0,0.0,0.0,0.0,0.0,0.0,0.0,0.0,0.0,0.0,0.0,0.0,0.0,0.0,0.0,0.0,0.0,0.0,0.0,0.0,0.0,0.0,0.0,0.0,0.0,0.0,0.0,0.0,0.0,0.0,0.0,0.0,0.0,0.0,0.0,0.0,0.0,0.0,0.0,0.0,0.0,0.0,0.0,0.0,0.0,0.0,0.0,0.0,0.0,0.0,0.0,0.0,0.0,0.0,0.0,0.0,0.0,0.0,0.0,0.0,0.0,0.0,0.0,0.0,0.0,0.0,0.0,0.0,0.0,0.0,0.0,0.0,0.0,0.0,0.0,0.0,0.0,0.0,0.0,0.0,0.0,0.0,0.0,0.0,0.0,0.0,0.0,0.0,0.0,0.0,0.0,0.0,0.0,0.0,0.0,0.0,0.0,0.0,0.0,0.0,0.0,0.0,0.0,0.0,0.0,1.3547,1.3627,1.496,1.5545,1.5311,1.5413,1.4629,0.0,0.0,0.0,0.0,0.0,0.0,0.0,0.0,0.0,0.0,0.0,0.0,0.0,0.0,0.0,0.0,0.0,0.0,0.0,0.0,0.0,0.0,0.0,0.0,0.0,0.0,0.0,0.0,0.0,0.0,0.0,0.0,0.0,0.0,0.0,0.0,0.0,0.0,0.0,0.0,0.0,0.0,0.0,0.0,0.0,0.0,0.0,0.0,0.0,0.0,0.0,0.0,0.0,0.0,0.0,0.0,0.0,0.0,0.0,0.0,0.0,0.0,0.0,0.0,0.0,0.0,0.0,0.0,0.0,0.0,0.0,0.0,0.0,0.0,0.0,0.0,0.0,0.0,0.0,0.0,0.0,0.0,0.0,0.0,0.0,0.0,0.0,0.0,0.0,0.0,0.0,0.0,0.0,0.0,0.0,0.0,0.0,0.0,0.0,0.0,0.0,0.0,0.0,0.0,0.0,0.0,0.0,0.0,1.3227,1.3613,1.5229,1.5815,1.5306,1.5842,1.5628,0.0,0.0,0.0,0.0,0.0,0.0,0.0,0.0,0.0,0.0,0.0,0.0,0.0,0.0,0.0,0.0,0.0,0.0,0.0,0.0,0.0,0.0,0.0,0.0,0.0,0.0,0.0,0.0,0.0,0.0,0.0,0.0,0.0,0.0,0.0,0.0,0.0,0.0,0.0,0.0,0.0,0.0,0.0,0.0,0.0,0.0,0.0,0.0,1.1421,0.0,0.0,0.0,0.0,0.0,0.0,0.0,0.0,0.0,0.0,0.0,0.0,0.0,0.0,0.0,0.0,0.0,0.0,0.0,0.0,0.0,0.0,0.0,0.0,0.0,0.0,0.0,0.0,0.0,0.0,0.0,0.0,0.0,0.0,0.0,0.0,0.0,0.0,0.0,0.0,0.0,0.0,0.0,0.0,0.0,0.0,0.0,0.0,0.0,0.0,0.0,0.0,0.0,0.0,0.0,0.0,0.0,0.0,0.0,1.3715,1.3882,1.5394,1.6017,1.5677,1.6396,1.6212,0.0,0.0,0.0,0.0,0.0,0.0,0.0,0.0,0.0,0.0,0.0,0.0,0.0,0.0,0.0,0.0,0.0,0.0,0.0,0.0,0.0,0.0,0.0,0.0,0.0,0.0,0.0,0.0,0.0,0.0,0.0,0.0,0.0,0.0,0.0,0.0,0.0,0.0,0.0,0.0,0.0,0.0,0.0,0.0,0.0,0.0,0.0,0.0,0.0,0.0,0.0,0.0,0.0,0.0,0.0,0.0,0.0,0.0,0.0,0.0,0.0,0.0,0.0,0.0,0.0,0.0,0.0,0.0,0.0,0.0,0.0,0.0,0.0,0.0,0.0,0.0,0.0,0.0,0.0,0.0,0.0,0.0,0.0,0.0,0.0,0.0,0.0,0.0,0.0,0.0,0.0,0.0,0.0,0.0,0.0,0.0,0.0,0.0,0.0,0.0,0.0,0.0,0.0,0.0,0.0,0.0,0.0,1.3234,1.4219,1.4135,1.5499,1.6155,1.6025,1.6884,1.6502,1.4665,0.0,0.0,0.0,0.0,0.0,0.0,0.0,0.0,0.0,0.0,0.0,0.0,0.0,0.0,0.0,0.0,0.0,0.0,0.0,0.0,0.0,0.0,0.0,0.0,0.0,0.0,0.0,0.0,0.0,0.0,0.0,0.0,0.0,0.0,0.0,0.0,0.0,0.0,1.1023,1.3021,0.0,0.0,0.0,0.0,0.0,0.0,0.0,0.0,1.4164,0.0,0.0,0.0,0.0,0.0,0.0,0.0,0.0,0.0,0.0,0.0,0.0,0.0,0.0,0.0,0.0,0.0,0.0,0.0,0.0,0.0,0.0,0.0,0.0,0.0,0.0,0.0,0.0,0.0,0.0,0.0,0.0,0.0,0.0,0.0,0.0,0.0,0.0,0.0,0.0,0.0,0.0,0.0,0.0,0.0,0.0,0.0,0.0,0.0,0.0,0.0,0.0,0.0,0.0,0.0,0.0,1.2633,1.3043,1.3522,1.4111,1.5629,1.6321,1.6022,1.6732,1.6348,1.4671,0.0,0.0,0.0,0.0,0.0,0.0,0.0,0.0,0.0,0.0,0.0,0.0,0.0,0.0,0.0,0.0,0.0,0.0,0.0,0.0,0.0,0.0,0.0,0.0,0.0,0.0,0.0,0.0,0.0,0.0,0.0,0.0,0.0,0.0,0.0,0.0,0.0,0.0,0.0,1.4562,1.5531,0.0,0.0,0.0,0.0,0.0,0.0,0.0,0.0,1.4126,0.0,0.0,0.0,0.0,0.0,0.0,0.0,0.0,0.0,0.0,0.0,0.0,0.0,0.0,0.0,0.0,0.0,0.0,0.0,0.0,0.0,0.0,0.0,0.0,0.0,0.0,0.0,0.0,0.0,0.0,0.0,0.0,0.0,0.0,0.0,0.0,0.0,0.0,0.0,0.0,0.0,0.0,0.0,0.0,0.0,0.0,0.0,0.0,0.0,0.0,0.0,0.0,0.0,0.0,0.0,1.2129,1.342,1.4103,1.4158,1.5652,1.6345,1.6011,1.6145,1.5723,0.0,0.0,0.0,0.0,0.0,0.0,0.0,0.0,0.0,0.0,0.0,0.0,0.0,0.0,0.0,0.0,0.0,0.0,0.0,0.0,0.0,0.0,0.0,0.0,0.0,0.0,0.0,0.0,0.0,0.0,0.0,0.0,0.0,0.0,0.0,0.0,0.0,0.0,0.0,0.0,1.5516,1.6519,1.7009,0.0,0.0,0.0,0.0,0.0,0.0,1.5259,1.4913,0.0,0.0,0.0,0.0,0.0,0.0,0.0,0.0,0.0,0.0,0.0,0.0,0.0,0.0,0.0,0.0,0.0,0.0,0.0,0.0,0.0,0.0,0.0,0.0,0.0,0.0,0.0,0.0,0.0,0.0,0.0,0.0,0.0,0.0,0.0,0.0,0.0,0.0,0.0,0.0,0.0,0.0,0.0,0.0,0.0,0.0,0.0,0.0,0.0,0.0,0.0,0.0,0.0,0.0,0.0,1.1556,1.3585,1.453,1.4304,1.5563,1.6181,1.5997,1.5702,1.5208,0.0,0.0,0.0,0.0,0.0,0.0,0.0,0.0,0.0,0.0,0.0,0.0,0.0,0.0,0.0,0.0,0.0,0.0,0.0,0.0,0.0,0.0,0.0,0.0,0.0,0.0,0.0,0.0,0.0,0.0,0.0,0.0,0.0,0.0,0.0,0.0,0.0,0.0,0.0,0.0,0.0,1.7279,1.7554,1.7512,0.0,0.0,0.0,0.0,1.6363,1.6198,0.0,0.0,0.0,0.0,0.0,0.0,0.0,0.0,0.0,0.0,0.0,0.0,0.0,0.0,0.0,0.0,0.0,0.0,0.0,0.0,0.0,0.0,0.0,0.0,0.0,0.0,0.0,0.0,0.0,0.0,0.0,0.0,0.0,0.0,0.0,0.0,0.0,0.0,0.0,0.0,0.0,0.0,0.0,0.0,0.0,0.0,0.0,0.0,0.0,0.0,0.0,0.0,0.0,0.0,0.0,0.0,1.1873,1.2749,1.3651,1.4696,1.5242,1.5682,1.5971,1.5953,1.5395,0.0,0.0,0.0,0.0,0.0,0.0,0.0,0.0,0.0,0.0,0.0,0.0,0.0,0.0,0.0,0.0,0.0,0.0,0.0,0.0,0.0,0.0,0.0,0.0,0.0,0.0,0.0,0.0,0.0,0.0,0.0,0.0,0.0,0.0,0.0,0.0,0.0,0.0,0.0,0.0,0.0,1.7428,1.6667,1.6938,1.7192,0.0,0.0,1.6238,1.6829,1.6828,0.0,0.0,0.0,0.0,0.0,0.0,0.0,0.0,0.0,0.0,0.0,0.0,0.0,0.0,0.0,0.0,0.0,0.0,0.0,0.0,0.0,0.0,0.0,0.0,0.0,0.0,0.0,0.0,0.0,0.0,0.0,0.0,0.0,0.0,0.0,0.0,0.0,0.0,0.0,0.0,0.0,0.0,0.0,0.0,0.0,0.0,0.0,0.0,0.0,0.0,0.0,0.0,0.0,0.0,0.0,1.027,1.2438,1.3226,1.3984,1.4784,1.5195,1.5599,1.5974,1.5372,1.4771,0.0,0.0,0.0,0.0,0.0,0.0,0.0,0.0,0.0,0.0,0.0,0.0,0.0,0.0,0.0,0.0,0.0,0.0,0.0,0.0,0.0,0.0,0.0,0.0,0.0,0.0,0.0,0.0,0.0,0.0,0.0,0.0,0.0,0.0,0.0,0.0,0.0,0.0,0.0,0.0,0.0,0.0,1.7571,1.737,0.0,0.0,0.0,1.6665,1.6523,0.0,0.0,0.0,0.0,0.0,0.0,0.0,0.0,0.0,0.0,0.0,0.0,0.0,0.0,0.0,0.0,0.0,0.0,0.0,0.0,0.0,0.0,0.0,0.0,0.0,0.0,0.0,0.0,0.0,0.0,0.0,0.0,0.0,0.0,0.0,0.0,0.0,0.0,0.0,0.0,0.0,0.0,0.0,0.0,0.0,0.0,0.0,0.0,0.0,0.0,0.0,0.0,0.0,0.0,0.0,0.0,0.0,1.302,1.375,1.4367,1.4922,1.5254,1.5515,1.5767,1.5099,0.0,0.0,0.0,0.0,0.0,0.0,0.0,0.0,0.0,0.0,0.0,0.0,0.0,0.0,0.0,0.0,0.0,0.0,0.0,0.0,0.0,0.0,0.0,0.0,0.0,0.0,0.0,0.8964,0.0,0.0,0.0,0.0,0.0,0.0,0.0,0.0,0.0,0.0,0.0,0.0,0.0,0.0,1.6872,1.7694,1.7549,1.7444,0.0,0.0,1.7214,1.6538,1.7653,1.8208,0.0,0.0,0.0,0.0,0.0,0.0,0.0,0.0,0.0,0.0,0.0,0.0,0.0,0.0,0.0,0.0,0.0,0.0,0.0,0.0,0.0,0.0,0.0,0.0,0.0,0.0,0.0,0.0,0.0,0.0,0.0,0.0,0.0,0.0,0.0,0.0,0.0,0.0,0.0,0.0,0.0,0.0,0.0,0.0,0.0,0.0,0.0,0.0,0.0,0.0,0.0,0.0,0.0,0.0,0.0,1.3378,1.3887,1.4504,1.5332,1.54,1.5339,1.5164,1.5629,1.5084,0.0,0.0,0.0,0.0,0.0,0.0,0.0,0.0,0.0,0.0,0.0,0.0,0.0,0.0,0.0,0.0,0.0,0.0,0.0,0.0,0.0,0.0,0.0,0.0,0.0,0.0,0.0,0.0,0.0,0.0,0.0,0.0,0.0,0.0,0.0,0.0,0.0,0.0,0.0,0.0,0.0,1.6916,1.5764,1.7058,1.7983,0.0,1.7899,1.7937,1.74,1.8171,1.8413,1.6943,0.0,0.0,0.0,0.0,0.0,0.0,0.0,0.0,0.0,0.0,0.0,0.0,0.0,0.0,0.0,0.0,0.0,0.0,0.0,0.0,0.0,0.0,0.0,0.0,0.0,0.0,0.0,0.0,0.0,0.0,0.0,0.0,0.0,0.0,0.0,0.0,0.0,0.0,0.0,0.0,0.0,0.0,0.0,0.0,0.0,0.0,0.0,0.0,0.0,0.0,0.0,0.0,0.0,1.1494,1.3934,1.4053,1.4523,1.5371,1.542,1.5402,1.5465,1.5832,1.5337,0.0,0.0,0.0,0.0,0.0,0.0,0.0,0.0,0.0,0.0,0.0,0.0,0.0,0.0,0.0,0.0,0.0,0.0,0.0,0.0,0.0,0.0,0.0,0.0,0.0,0.0,0.0,0.0,1.0303,1.0527,1.0274,0.0,0.0,0.0,0.0,0.0,0.0,0.0,0.0,0.0,0.0,1.6986,1.7365,1.7854,0.0,0.0,1.8506,1.8506,1.7978,1.8754,1.8965,1.7556,1.7274,0.0,0.0,0.0,0.0,0.0,0.0,0.0,0.0,0.0,0.0,0.0,0.0,0.0,0.0,0.0,0.0,0.0,0.0,0.0,0.0,0.0,0.0,0.0,0.0,0.0,0.0,0.0,0.0,0.0,0.0,0.0,0.0,0.0,0.0,0.0,0.0,0.0,0.0,0.0,0.0,0.0,0.0,0.0,0.0,0.0,0.0,0.0,0.0,0.0,0.0,0.0,0.0,1.1942,1.4275,1.4413,1.4777,1.5391,1.5537,1.5534,1.545,1.5814,1.5458,0.0,0.0,0.0,0.0,0.0,0.0,0.0,0.0,0.0,0.0,0.0,0.0,0.0,0.0,0.0,0.0,0.0,0.0,0.0,0.0,0.0,0.0,0.0,0.0,0.0,0.0,0.0,0.0,1.0756,1.0971,1.0135,0.0,0.0,0.0,0.0,0.0,0.0,0.0,0.0,0.0,0.0,1.7348,1.8544,1.8681,1.8769,1.9007,1.9133,1.9007,1.8317,1.9084,1.9288,1.7786,0.0,0.0,0.0,0.0,0.0,0.0,0.0,0.0,0.0,0.0,0.0,0.0,0.0,0.0,0.0,0.0,0.0,0.0,0.0,0.0,0.0,0.0,0.0,0.0,0.0,0.0,0.0,1.0547,0.0,0.0,1.0312,0.0,0.0,0.0,0.0,0.0,0.0,0.0,0.0,0.0,0.0,0.0,0.0,0.0,0.0,0.0,0.0,0.0,0.0,0.0,0.0,0.0,0.0,1.2237,1.4273,1.4999,1.5362,1.5439,1.586,1.5674,1.4918,1.559,1.5436,1.426,0.0,0.0,0.0,0.0,0.0,0.0,0.0,0.0,0.0,0.0,0.0,0.0,0.0,0.0,0.0,0.0,0.0,0.0,0.0,0.0,0.0,0.0,0.0,0.0,0.0,0.0,0.9931,1.0863,1.1112,0.0,0.0,0.0,0.0,0.0,0.0,0.0,0.0,0.0,0.0,1.717,1.8062,1.8659,1.9309,1.9761,1.9786,1.9798,1.9447,1.8442,1.911,1.9201,0.0,0.0,0.0,0.0,0.0,0.0,0.0,0.0,0.0,0.0,0.0,0.0,0.0,0.0,0.0,0.0,0.0,0.0,0.0,0.0,0.0,0.0,0.0,0.0,0.0,0.0,0.0,1.2725,1.2399,0.0,0.0,0.0,0.0,0.0,0.0,0.0,0.0,0.0,0.0,0.0,1.6963,1.7533,0.0,0.0,0.0,0.0,0.0,0.0,0.0,0.0,0.0,0.0,0.0,0.0,1.3314,1.5189,1.535,1.5664,1.6239,1.6173,1.5958,1.5664,1.5749,1.5474,1.4839,0.0,0.0,0.0,0.0,0.0,0.0,0.0,0.0,0.0,0.0,0.0,0.0,0.0,0.0,0.0,0.0,0.0,0.0,0.0,0.0,0.0,0.0,0.0,0.0,0.0,1.0608,0.0,0.0,0.0,0.0,0.0,0.0,0.0,0.0,0.0,0.0,0.0,1.6306,1.7213,1.8093,1.8957,1.9911,2.0251,2.0541,0.0,0.0,0.0,0.0,0.0,0.0,0.0,0.0,0.0,0.0,0.0,0.0,0.0,0.0,1.8747,1.6479,1.5582,1.5353,1.5945,0.0,0.0,0.0,0.0,0.0,0.0,0.0,0.0,0.0,0.0,0.0,0.0,0.0,0.0,1.4876,1.4755,1.3938,0.0,0.0,0.0,0.0,0.0,0.0,0.0,0.0,1.8039,1.9026,1.9371,2.0086,2.0324,0.0,1.9045,1.7276,0.0,0.0,0.0,0.0,0.0,0.0,0.0,0.0,1.4879,1.6455,1.6527,1.6708,1.7119,1.6738,1.6408,1.6125,1.6087,1.5917,1.5592,1.4752,1.3831,0.0,0.0,0.0,0.0,0.0,0.0,0.0,0.0,0.0,0.0,0.0,0.0,0.0,0.0,0.0,0.0,0.0,0.0,0.0,0.0,0.0,0.0,0.0,1.097,0.0,0.0,0.0,0.0,0.0,0.0,0.0,0.0,0.0,1.5854,1.6115,1.6876,1.8481,1.8881,1.9565,2.1049,0.0,0.0,0.0,0.0,0.0,0.0,0.0,2.0037,2.0603,2.0627,2.0476,2.0162,2.0263,2.0451,2.0654,0.0,0.0,1.8193,1.7457,1.7302,1.7689,1.7582,1.7348,1.7246,1.7123,1.6758,0.0,0.0,0.0,0.0,0.0,0.0,0.0,0.0,1.7511,1.7704,0.0,1.6372,0.0,0.0,0.0,0.0,1.5296,1.7001,0.0,0.0,2.0912,2.2058,2.1656,2.2606,2.2869,2.241,2.2293,2.1455,1.9761,1.6212,0.0,0.0,0.0,0.0,0.0,0.0,1.6882,1.7946,1.84,1.8449,1.8121,1.7696,1.7071,1.6256,1.6625,1.6723,1.6529,1.6011,1.5069,1.3591,1.2075,0.0,0.0,0.0,0.0,0.0,0.0,0.0,0.0,0.0,0.0,0.0,0.0,0.0,0.0,0.0,0.0,0.0,0.0,0.0,0.0,0.9995,0.0,0.0,0.0,0.0,0.0,0.0,0.0,0.0,0.0,0.0,1.5871,1.6224,1.7377,1.9825,0.0,0.0,0.0,0.0,2.1769,2.2347,2.1945,2.1631,2.1631,2.1882,2.1779,2.1006,0.0,0.0,2.1006,2.1257,2.1455,2.0943,2.1395,2.1594,2.1559,2.0504,1.995,2.049,1.9398,1.8425,1.8536,1.7802,1.6744,2.146,0.0,0.0,0.0,0.0,1.9495,2.0072,2.0704,2.0883,2.0682,2.018,1.9354,0.0,0.0,0.0,0.0,0.0,0.0,1.9864,2.1064,2.23,2.3025,2.3314,2.3973,2.4224,2.4061,2.3672,2.3263,2.2723,2.0878,1.8279,1.5046,0.0,0.0,0.0,0.0,1.8114,1.9459,1.952,1.964,1.986,1.9399,1.8741,1.7839,1.7652,1.7374,1.6954,1.6915,1.6162,1.4575,1.3839,0.0,0.0,0.0,0.0,0.0,0.0,0.0,0.0,0.0,0.0,0.0,0.0,0.0,0.0,0.0,0.0,0.0,0.0,0.0,1.1148,1.1414,1.1662,0.0,0.0,0.0,0.0,0.0,0.0,0.0,0.0,0.0,1.6608,1.7124,1.8007,0.0,0.0,2.14,2.2683,2.3113,2.3464,2.4017,2.3935,0.0,2.3866,2.3597,2.3489,2.3615,2.3835,2.3898,2.3678,2.3527,2.3459,2.3577,2.3979,2.4136,2.3452,2.1866,2.0951,2.1387,2.12,2.0834,2.0668,2.0289,1.9797,2.5134,2.3495,2.1962,2.1591,2.204,2.2372,2.2937,2.3615,2.3615,2.3376,2.2968,2.2375,2.1424,2.0289,1.9871,0.0,0.0,0.0,2.1794,2.3025,2.3766,2.4261,2.4657,2.5197,2.5473,2.5435,2.4908,2.4632,2.4619,2.3728,2.1732,1.8731,0.0,0.0,1.8216,1.8941,1.9891,2.096,2.0815,2.0833,2.1101,2.0316,1.9652,1.9189,1.8783,1.8331,1.786,1.7767,1.7159,1.594,1.5057,1.3984,0.0,0.0,0.0,0.0,0.0,0.0,0.0,0.0,0.0,0.0,0.0,1.1132,0.9375,0.0,0.0,0.0,1.0857,1.2151,1.2907,1.2964,0.0,0.0,0.0,0.0,0.0,0.0,0.0,1.4502,1.6026,1.7307,1.778,1.8255,1.8998,2.0203,2.0897,2.1832,2.3328,0.0,2.4065,2.4981,2.4958,2.487,2.5008,2.4632,2.4443,2.477,2.48,2.48,2.4788,2.4587,2.4525,2.475,2.5008,2.4996,2.4512,2.3321,2.2506,2.2819,2.3007,2.2917,2.2406,2.2013,2.1589,2.8235,2.8021,2.5511,2.4406,2.4418,2.5335,2.5749,2.5799,2.5799,2.5774,2.5686,2.5234,2.4387,2.3308,2.2347,0.0,2.2723,2.3208,2.376,2.4368,2.5347,2.5799,2.5824,2.6386,2.6625,2.6625,2.6013,2.5724,2.5711,2.5164,2.4393,2.3271,2.1807,2.1031,2.093,2.1405,2.1958,2.2481,2.2226,2.2049,2.197,2.0761,2.0151,2.0296,1.9873,1.9378,1.8933,1.8406,1.7877,1.73,1.5852,1.5135,1.5318,0.0,0.0,0.0,0.0,0.0,0.0,0.0,0.0,0.0,0.0,0.0,0.0,0.0,0.0,0.0,1.2714,0.0,1.4481,1.4473,0.0,0.0,0.0,1.5029,1.5155,1.6793,1.732,1.5782,0.0,0.0,1.9078,1.9531,2.0222,2.124,2.0964,2.152,2.3781,2.3612,2.3809,2.5139,2.5062,2.4953,2.5178,2.5098,2.5021,2.5046,2.4913,2.5021,2.5021,2.4996,2.4971,2.5021,2.4926,2.4951,2.4938,2.4908,2.4813,2.4424,2.4637,2.4668,2.3757,2.3024,2.2334,2.939,2.934,2.8687,2.7921,2.713,2.6954,2.713,2.7507,2.7494,2.7268,2.6866,2.6753,2.6314,2.5682,2.5431,2.5619,2.6101,2.6226,2.6603,2.713,2.7394,2.7507,2.7519,2.7657,2.772,2.7682,2.7155,2.6879,2.6889,2.6361,2.5732,2.5021,2.4607,2.3791,2.2581,2.3113,2.3678,2.4186,2.3742,2.3257,2.2823,2.2112,2.1559,2.12,2.0273,1.9307,1.8418,1.7877,1.7325,1.6748,1.6325,1.5883,1.5408,1.3515,0.0,0.0,0.0,0.0,0.0,0.0,0.0,0.0,0.0,1.3388,1.0722,0.0,1.4114,0.0,1.3083,1.5303,1.4926,1.4862,0.0,0.0,1.6388,1.6701,1.7219,1.768,1.783,1.7435,1.8528,1.9568,2.0106,2.0909,2.133,2.1263,2.1497,2.1997,2.2913,2.3319,2.3561,2.3998,2.459,2.4881,2.487,2.5507,2.6072,2.6109,2.6097,2.6076,2.6063,2.6097,2.6109,2.6076,2.6063,2.6109,2.6072,2.6097,2.6072,2.5984,2.6047,2.5766,2.4702,2.432,2.3916,2.9779,2.9779,2.9779,2.944,2.8837,2.8524,2.8574,2.8863,2.885,2.8536,2.7996,2.7758,2.7482,2.7228,2.7193,2.7392,2.7645,2.7645,2.7821,2.8097,2.8109,2.8109,2.8109,2.8109,2.8109,2.8097,2.7795,2.7645,2.7632,2.7344,2.6939,2.6352,2.6352,2.5762,2.4657,2.4456,2.4506,2.4788,2.428,2.3853,2.3484,2.2932,2.228,2.1534,2.0891,1.9924,1.8618,1.8041,1.7488,1.6923,1.6626,1.6216,1.5555,1.4482,1.3607,0.0,0.0,0.0,0.0,0.0,0.0,0.0,0.0,0.0,0.0,0.0,1.569,1.2658,1.4774,1.6415,1.665,1.6761,1.709,1.7761,1.7926,1.8105,1.8232,1.8623,1.8789,1.8603,1.9551,2.0469,2.1124,2.1689,2.1934,2.1572,2.177,2.2234,2.2837,2.3243,2.3493,2.3783,2.4595,2.5265,2.5336,2.6013,2.6487,2.6487,2.6487,2.6487,2.6487,2.6487,2.6487,2.6487,2.6487,2.6487,2.6487,2.6487,2.6487,2.6487,2.6487,2.626,2.5686,2.5215,2.4624,2.9779,2.9779,2.9779,2.9779,2.9779,2.9779,2.9779,2.9779,2.9779,2.9503,2.8976,2.8499,2.8323,2.8323,2.8323,2.8323,2.8323,2.831,2.8323,2.8323,2.8323,2.8323,2.8323,2.8335,2.8323,2.8323,2.8235,2.821,2.821,2.8147,2.7871,2.7394,2.7354,2.7077,2.6575,2.5536,2.4996,2.4888,2.4443,2.418,2.4092,2.3509,2.2711,2.1656,2.1455,2.0602,1.897,1.8468,1.7953,1.7436,1.6974,1.6463,1.5952,1.5591,1.4865,0.0,1.3594,0.0,0.0,0.0,0.0,0.0,0.0,0.0,0.0,1.5218,1.6373,1.6782,1.6939,1.7481,1.8577,1.8889,1.9091,1.9201,1.9288,1.9258,1.8987,1.9592,1.9922,1.9502,2.0674,2.165,2.2002,2.2266,2.2305,2.2031,2.2053,2.2375,2.3053,2.3162,2.3253,2.3826,2.4404,2.4793,2.6204,2.6678,2.6763,2.6738,2.6688,2.66,2.6637,2.6549,2.6487,2.6487,2.6487,2.6487,2.6487,2.6487,2.6487,2.6487,2.6487,2.644,2.6171,2.5531,2.4779,2.9779,2.9779,2.9779,2.9779,2.9779,2.9779,2.9779,2.9779,2.9779,2.9729,2.9628,2.9515,2.9478,2.9465,2.9478,2.9478,2.9478,2.9465,2.9478,2.9478,2.9478,2.9478,2.9465,2.9478,2.9478,2.9453,2.9001,2.8737,2.8725,2.831,2.8047,2.7946,2.7507,2.7266,2.714,0.0,0.0,0.0,2.5347,2.5084,2.4637,2.4117,2.3301,2.2184,2.132,0.0,1.8468,1.8254,1.794,1.7461,1.7702,0.0,0.0,0.0,0.0,0.0,0.0,0.0,0.0,0.0,0.0,0.0,1.4443,1.4379,1.472,1.5532,1.6415,1.7354,1.8265,1.8758,1.8635,1.8676,1.8956,1.9646,1.9772,1.9991,2.0605,2.0849,2.081,2.0439,2.1377,2.2314,2.274,2.2906,2.2779,2.2471,2.2685,2.2914,2.311,2.2621,2.2267,2.2321,2.2167,2.3102,2.6792,2.7582,2.7783,2.7745,2.7381,2.719,2.714,2.6788,2.6524,2.6537,2.6487,2.6512,2.6512,2.6487,2.6549,2.6499,2.6512,2.6245,2.5476,2.5158,2.4493,3.0043,2.9792,2.9779,2.9779,0.0,2.9779,2.9779,2.9779,2.9779,2.9779,2.9779,2.9779,2.9779,2.9779,2.9779,2.9779,2.9779,2.9779,2.9779,2.9779,2.9779,2.9779,2.9779,2.9779,2.9779,2.9779,2.949,2.9352,2.934,2.9076,2.88,2.8474,2.8235,2.7959,2.7682,2.7143,2.6625,2.6072,2.5749,2.5473,2.5197,2.4682,2.3866,2.2732,2.2171,0.0,0.0,0.0,0.0,0.0,0.0,0.0,0.0,0.0,0.0,1.615,1.5663,1.5221,1.4919,1.5306,1.5611,1.5733,1.6123,1.6207,1.5874,1.6149,1.6826,1.8004,1.9213,1.9736,1.929,1.9453,1.9844,2.044,2.0762,2.1084,2.1475,2.1562,2.1523,2.1535,2.1992,2.2588,2.3033,2.3101,2.3013,2.2818,2.2955,2.3101,2.3062,2.274,2.2519,2.248,2.1777,2.2654,2.6229,2.8238,2.865,2.8235,2.7871,2.7708,2.7682,2.7354,2.7077,2.7241,2.7165,2.7077,2.7253,2.7165,2.7077,2.7243,2.7467,2.717,2.6057,2.5373,2.4743,3.0482,3.008,3.008,3.008,3.008,3.0068,3.0018,2.993,0.0,0.0,0.0,2.9779,2.9779,2.9779,2.9779,2.9779,2.9779,2.9779,2.9779,2.9779,2.9779,2.9779,2.9779,2.9779,2.9779,2.9779,2.9779,2.9779,2.9779,2.9779,2.9553,2.9076,2.8938,2.8649,2.8109,2.7657,2.719,2.6637,2.6072,2.5749,2.5737,2.5234,2.4437,2.3421,2.3074,2.1998,2.02,1.9956,1.9404,1.8462,1.8499,1.8425,1.8203,1.7878,1.7653,1.7581,1.7749,1.7475,1.6648,1.7369,1.7499,1.6703,1.7695,1.8018,1.7213,1.7155,1.7613,1.8734,2.0039,2.0615,2.0195,2.0537,2.0937,2.1318,2.167,2.1894,2.1982,2.2002,2.21,2.2383,2.2539,2.2744,2.3042,2.3101,2.3101,2.3091,2.3081,2.3101,2.3101,2.3062,2.3013,2.2955,2.248,2.3114,2.5734,2.7758,2.8725,2.7886,2.7841,2.7977,2.7927,2.7799,2.7808,2.7971,2.7959,2.8058,2.8072,2.7896,2.7882,2.8059,2.8411,2.8338,2.7149,2.6178,2.5433,3.1223,3.116,3.116,3.1173,3.116,3.116,3.0909,3.047,3.0005,2.9792,2.9779,2.9779,2.9779,2.9779,2.9779,2.9779,2.9779,2.9779,2.9779,2.9779,2.9779,2.9779,2.9779,2.9779,2.9779,2.9779,2.9779,2.9779,2.9779,2.9779,2.9754,2.9616,2.9176,2.8624,2.8147,2.8034,2.772,2.7203,2.6663,2.6373,2.6361,2.5787,2.5197,2.4518,2.2945,2.1824,2.129,2.0564,1.9853,1.9265,1.9674,1.935,1.8205,1.7947,1.756,1.7135,1.6982,1.701,1.7251,1.7681,1.8218,1.8815,1.9346,1.9443,1.8984,1.8926,1.916,1.9727,2.0908,2.1523,2.1103,2.1426,2.1709,2.1777,2.1855,2.2021,2.2373,2.2422,2.2526,2.2886,2.2994,2.2994,2.3071,2.3101,2.3101,2.3101,2.3101,2.3101,2.3101,2.3101,2.3101,2.3101,2.3013,2.3692,2.5259,2.627,2.6873,2.6764,2.7152,2.7447,2.7563,2.7878,2.8135,2.8134,2.8787,2.9001,2.8398,2.836,2.8411,2.8323,2.8549,2.8512,2.799,2.7618,2.6709,3.1662,3.1399,3.1386,3.1386,3.1386,3.1386,3.126,3.1022,3.0771,3.0331,2.9804,2.9779,2.9779,2.9779,2.9779,2.9779,2.9779,2.9779,2.9779,2.9779,2.9779,2.9779,2.9779,2.9779,2.9779,2.9779,2.9779,2.9779,2.9779,2.9779,2.9779,2.9767,2.9515,2.9114,2.8599,2.8561,2.8273,2.7745,2.718,2.6801,2.6499,2.6235,2.5833,2.5259,2.4352,2.3566,2.2857,2.2169,2.1328,2.0309,2.0209,1.9703,1.8622,1.8509,1.8373,1.8175,1.8135,1.8203,1.8408,1.8594,1.8965,1.957,1.9805,1.9941,1.998,1.998,2.0166,2.0566,2.1416,2.1816,2.1621,2.1973,2.2227,2.2227,2.2412,2.2594,2.2769,2.2808,2.2886,2.3062,2.3101,2.3101,2.3101,2.3101,2.3101,2.3101,2.3101,2.3101,2.3101,2.3101,2.3101,2.3101,2.3091,2.3681,2.4766,2.4766,2.5189,2.6235,2.6701,2.7115,2.7609,2.8378,2.8912,2.9026,2.9478,2.9553,2.9001,2.9151,2.9164,2.9114,2.9139,2.9176,2.9013,2.8165,2.647,3.2164,3.1775,3.1817,3.1763,3.1763,3.1763,3.1712,3.1574,3.1562,3.1047,3.0218,3.003,2.998,2.9967,2.9854,2.9779,2.9779,2.9779,2.9779,2.9779,2.9779,2.9779,2.9779,2.9779,2.9779,2.9779,2.9779,2.9779,2.9779,2.9779,2.9779,2.9779,2.9779,2.9566,2.9139,2.9088,2.8813,2.831,2.7871,2.7331,2.67,2.6575,2.6273,2.5837,2.5436,2.4987,2.4349,2.3617,2.2677,2.1616,2.1151,2.0475,1.9423,1.9423,1.9367,1.9203,1.9252,1.9363,1.9414,1.9424,1.9609,2.0029,2.0156,2.0361,2.0654,2.0664,2.0742,2.1171,2.1816,2.2158,2.21,2.2402,2.2613,2.2676,2.2896,2.3052,2.3091,2.3101,2.3101,2.3101,2.3101,2.3101,2.3101,2.3101,2.3101,2.3101,2.3101,2.3101,2.3101,2.3101,2.3101,2.3101,2.3101,2.3387,2.4211,2.38,2.3973,2.5557,2.5911,2.6322,2.718,2.8493,2.9302,2.9084,2.8873,2.8806,2.8988,2.8924,2.8861,2.8682,2.8655,2.8861,2.8706,2.7676,2.6151,3.2998,3.2973,3.2923,3.296,3.2923,3.2923,3.2604,3.2177,3.2127,3.1813,3.1235,3.0746,3.0557,3.047,3.003,2.9817,2.9817,2.9792,2.9779,2.9779,2.9779,2.9779,2.9779,2.9779,2.9779,2.9779,2.9779,2.9779,2.9779,2.9779,2.9779,2.9779,2.9779,2.9767,2.9704,2.9691,2.9415,2.8838,2.88,2.8273,2.7256,2.6751,2.6461,2.6411,2.5113,2.4774,2.5365,2.4176,2.3412,2.3287,2.3159,2.2361,2.0842,2.0656,2.024,1.9413,1.933,1.9453,1.9814,1.9853,2.0068,2.0517,2.0879,2.1103,2.1112,2.082,2.0801,2.1338,2.2292,2.274,2.2539,2.2779,2.2994,2.2984,2.3052,2.3101,2.3101,2.3101,2.3101,2.3101,2.3101,2.3101,2.3101,2.3101,2.3101,2.3101,2.3101,2.3101,2.3101,2.3101,2.3101,2.3101,2.3101,2.3135,2.3343,2.3222,2.3343,2.3637,2.4339,2.5031,2.5817,2.7493,2.9248,2.7666,2.6801,2.6812,2.7017,2.6812,2.6976,2.7261,2.718,2.6935,2.6812,2.6607,2.5898,3.3124,3.3124,3.3124,3.3124,3.3124,3.3124,3.2943,3.2729,3.2717,3.2591,3.2328,3.18,3.1373,3.1047,3.052,3.0269,3.0256,2.9942,2.9779,2.9779,2.9779,2.9779,2.9779,2.9779,2.9779,2.9779,2.9779,2.9779,2.9779,2.9779,2.9779,2.9779,2.9779,2.9779,2.9779,2.9779,2.9666,2.944,2.9051,2.8662,2.821,2.7394,2.6977,2.6892,2.6067,2.5735,2.6004,2.5215,2.4505,2.402,2.3668,2.292,2.1678,2.1329,2.0985,2.0559,2.023,2.0234,2.0625,2.0654,2.0839,2.1359,2.1514,2.1621,2.1611,2.1445,2.1523,2.2002,2.2652,2.3013,2.2867,2.3003,2.3101,2.3101,2.3101,2.3101,2.3101,2.3101,2.3101,2.3101,2.3101,2.3101,2.3101,2.3101,2.3101,2.3101,2.3101,2.3101,2.3101,2.3101,2.3101,2.3101,2.3101,2.3101,2.3101,2.3101,2.3101,2.3178,2.3474,2.3887,2.483,2.4914,2.5755,2.6276,2.5442,2.5316,2.6472,2.6442,2.6483,2.64,2.6389,2.6348,2.563,2.5504,2.4999,3.3338,3.3269,3.3156,3.3124,3.3124,3.3124,3.3124,3.3124,3.3124,3.3124,3.3074,3.2629,3.2227,3.1788,3.1148,3.0834,3.0758,3.0269,3.0018,2.9993,2.9867,2.9779,2.9779,2.9779,2.9779,2.9779,2.9779,2.9779,2.9779,2.9779,2.9779,2.9779,2.9779,2.9779,2.9779,2.9779,2.9779,2.9754,2.9365,2.9164,2.9038,2.8235,2.767,2.7494,2.7153,2.6889,2.6713,2.6323,2.5692,2.4939,2.4541,2.3897,2.3041,2.2584,2.2174,2.1781,2.1413,2.1243,2.1387,2.1416,2.1553,2.1855,2.1973,2.206,2.208,2.2158,2.2353,2.2594,2.2925,2.3091,2.3101,2.3101,2.3101,2.3101,2.3101,2.3101,2.3101,2.3101,2.3101,2.3101,2.3101,2.3101,2.3101,2.3101,2.3101,2.3101,2.3101,2.3101,2.3101,2.3101,2.3101,2.3101,2.3101,2.3101,2.3101,2.3101,2.3101,2.3101,2.3178,2.3474,2.4168,2.3507,2.3256,2.4681,2.3681,2.3551,2.4681,2.5316,2.561,2.5568,2.5557,2.5347,2.451,2.4382,2.4006,3.3872,3.3796,3.3294,3.3162,3.3136,3.3124,3.3124,3.3124,3.3124,3.3124,3.3124,3.3074,3.3061,3.2898,3.1863,3.1373,3.1286,3.0821,3.057,3.0532,3.0093,2.9817,2.9779,2.9779,2.9804,2.9792,2.9779,2.9779,2.9779,2.9779,2.9779,2.9779,2.9779,2.9779,2.9779,2.9779,2.9779,2.9767,2.9716,2.9716,2.9666,2.9139,2.8586,2.816,2.8021,2.772,2.7318,2.7253,2.6932,2.6405,2.6333,2.5881,2.5016,2.4826,2.4132,2.2825,2.26,2.2377,2.2055,2.1938,2.1936,2.2004,2.2337,2.248,2.251,2.2773,2.2935,2.3052,2.3062,2.3101,2.3101,2.3101,2.3101,2.3101,2.3101,2.3101,2.3101,2.3101,2.3101,2.3101,2.3101,2.3101,2.3101,2.3101,2.3101,2.3101,2.3101,2.3101,2.3101,2.3101,2.3101,2.3101,2.3101,2.3101,2.3101,2.3101,2.3101,2.3101,2.3091,2.3135,2.3091,2.3135,2.3256,2.3343,2.3222,2.3178,2.3266,2.3387,2.3604,2.3681,2.3767,2.3517,2.3637,2.3343,2.3178,3.4437,3.4387,3.3834,3.3608,3.3571,3.3232,3.3124,3.3124,3.3124,3.3124,3.3124,3.3124,3.3124,3.3086,3.2696,3.2265,3.1876,3.1361,3.111,3.1085,3.0896,3.0645,3.0331,3.0319,3.0118,2.9829,2.9779,2.9779,2.9779,2.9779,2.9779,2.9779,2.9779,2.9779,2.9779,2.9779,2.9779,2.9779,2.9779,2.9779,2.9779,2.9578,2.9365,2.9151,2.8473,2.8021,2.7821,2.7821,2.7708,2.7519,2.7542,2.7363,2.6978,2.6359,2.5168,2.3495,2.32,2.353,2.4115,2.305,2.273,2.3593,2.3179,2.2944,2.2886,2.3003,2.3101,2.3135,2.3091,2.3101,2.3101,2.3101,2.3101,2.3101,2.3101,2.3101,2.3101,2.3101,2.3101,2.3101,2.3101,2.3101,2.3101,2.3101,2.3101,2.3101,2.3101,2.3101,2.3101,2.3101,2.3101,2.3101,2.3101,2.3101,2.3101,2.3101,2.3101,2.3101,2.3091,2.3091,2.3101,2.3101,2.3222,2.3212,2.3135,2.3101,2.3178,2.3178,2.3101,2.3101,2.3101,2.3101,2.3091,2.3101,2.3101,3.4843,3.463,3.4324,3.406,3.3859,3.3508,3.3244,3.3149,3.3124,3.3124,3.3124,3.3124,3.3124,3.3124,3.3124,3.2893,3.2453,3.1913,3.1662,3.1637,3.1474,3.1198,3.0922,3.0859,3.0595,3.0093,2.9867,2.9779,2.9779,2.9779,2.9779,2.9779,2.9779,2.9779,2.9779,2.9779,2.9779,2.9779,2.9779,2.9779,2.9779,2.9779,2.9779,2.9691,2.9038,2.8549,2.8386,2.8373,2.8273,2.8147,2.8109,2.8109,2.8024,2.7471,2.637,2.4948,2.4733,2.4872,2.5259,2.4377,2.4104,2.4713,2.45,2.4188,2.4178,2.356,2.3353,2.3604,2.3309,2.3101,2.3101,2.3101,2.3101,2.3101,2.3101,2.3101,2.3101,2.3101,2.3101,2.3101,2.3101,2.3101,2.3101,2.3101,2.3101,2.3101,2.3101,2.3101,2.3101,2.3101,2.3101,2.3101,2.3101,2.3101,2.3101,2.3101,2.3101,2.3101,2.3101,2.3101,2.3101,2.3101,2.3101,2.3101,2.3101,2.3101,2.3101,2.3101,2.3135,2.3135,2.3101,2.3101,2.3101,2.3101,2.3101,3.5207,3.4839,3.468,3.4462,3.4073,3.3947,3.3608,3.33,3.3156,3.3169,3.3237,3.3149,3.3124,3.3124,3.3124,3.3099,3.2905,3.2441,3.2227,3.219,3.175,3.1499,3.1399,3.1399,3.1085,3.0532,3.0055,2.9804,2.9792,2.9779,2.9779,2.9779,2.9779,2.9779,2.9779,2.9779,2.9779,2.9779,2.9779,2.9779,2.9779,2.9779,2.9779,2.9779,2.9691,2.9428,2.8913,2.89,2.8737,2.8298,2.8222,2.8134,2.8137,2.81,2.7816,2.7189,2.7155,2.6468,2.5427,2.5867,2.5648,2.5452,2.585,2.611,2.5777,2.4606,2.4016,2.4829,2.4102,2.3266,2.3266,2.3135,2.3101,2.3101,2.3101,2.3101,2.3101,2.3101,2.3101,2.3101,2.3101,2.3101,2.3101,2.3101,2.3101,2.3101,2.3101,2.3101,2.3101,2.3101,2.3101,2.3101,2.3101,2.3101,2.3101,2.3101,2.3101,2.3101,2.3101,2.3101,2.3101,2.3101,2.3101,2.3101,2.3101,2.3101,2.3178,2.3222,2.3507,2.3507,2.3343,2.3387,2.3464,2.3507,2.3178,3.5994,3.5805,3.5441,3.5157,3.4931,3.458,3.4304,3.4161,3.3822,3.3646,3.3571,3.3244,3.3124,3.3124,3.3124,3.3124,3.3111,3.288,3.2805,3.2754,3.2616,3.2303,3.2014,3.1938,3.1486,3.0721,3.0457,3.0156,2.9854,2.9804,2.9779,2.9779,2.9779,2.9779,2.9779,2.9779,2.9779,2.9779,2.9779,2.9779,2.9779,2.9779,2.9779,2.9779,2.9779,2.9691,2.9528,2.9528,2.944,2.9227,2.9264,2.8934,2.8411,2.8857,2.8804,2.798,2.7846,2.8143,2.81,2.7128,2.6801,2.686,2.6748,2.6524,2.6565,2.6337,2.6088,2.6193,2.5231,2.4606,2.4221,2.3517,2.3222,2.3101,2.3101,2.3101,2.3101,2.3101,2.3101,2.3101,2.3101,2.3101,2.3101,2.3101,2.3101,2.313,2.312,2.312,2.312,2.3179,2.3101,2.3101,2.3101,2.311,2.3101,2.3101,2.3101,2.3222,2.3299,2.343,2.3387,2.3343,2.3299,2.3101,2.3101,2.3222,2.3309,2.3551,2.3877,2.4211,2.4382,2.4339,2.4211,2.392,2.3594,3.6417,3.638,3.5994,3.5683,3.547,3.5107,3.4868,3.4688,3.4361,3.4211,3.4135,3.3859,3.3558,3.342,3.3382,3.3257,3.3149,3.3124,3.3124,3.3124,3.3124,3.2855,3.2503,3.229,3.1913,3.1286,3.0997,3.062,3.0118,3.0093,2.9993,2.9829,2.9779,2.9779,2.9779,2.9779,2.9779,2.9779,2.9779,2.9779,2.9779,2.9779,2.9779,2.9779,2.9779,2.9779,2.9779,2.9779,2.9779,2.9779,2.9779,2.9404,2.8846,2.9392,2.9495,2.8937,2.8727,2.8897,2.9067,2.8239,2.7747,2.7976,2.7867,2.7758,2.7799,2.8211,2.7999,2.7017,2.6472,2.5891,2.5105,2.4723,2.4221,2.3757,2.3353,2.3135,2.3101,2.3101,2.3101,2.3101,2.3101,2.3101,2.3101,2.3101,2.3179,2.3276,2.3335,2.3374,2.3422,2.3539,2.3442,2.3335,2.3305,2.3257,2.312,2.3101,2.3101,2.3343,2.3594,2.3844,2.4006,2.4006,2.3963,2.3299,2.3101,2.3594,2.3757,2.4211,2.4575,2.4957,2.5294,2.5136,2.4882,2.4382,2.392,3.6417,3.6417,3.6405,3.6056,3.5608,3.5545,3.5341,3.4914,3.4776,3.4763,3.4718,3.4568,3.4361,3.401,3.3872,3.3583,3.3237,3.3124,3.3124,3.3124,3.3124,3.3061,3.2973,3.2554,3.2252,3.2026,3.1637,3.116,3.0683,3.0645,3.0382,2.9955,2.9917,2.9817,2.9804,2.9779,2.9779,2.9779,2.9779,2.9779,2.9779,2.9779,2.9779,2.9779,2.9779,2.9779,2.9779,2.9779,2.9779,2.9779,2.9779,2.974,2.974,2.9779,2.9753,2.9624,2.9753,2.9236,2.8767,2.9079,2.9157,2.8518,2.9067,2.9779,2.9495,2.9365,2.9079,2.7999,2.7626,2.7005,2.611,2.5902,2.5788,2.5009,2.3884,2.3188,2.3101,2.3101,2.3101,2.3101,2.3101,2.3169,2.3266,2.3286,2.3452,2.3701,2.3828,2.3887,2.4033,2.4072,2.39,2.3812,2.3809,2.3691,2.3578,2.3569,2.3613,2.3791,2.4027,2.427,2.426,2.4145,2.4628,2.3973,2.3178,2.3714,2.4372,2.4787,2.5336,2.5839,2.5922,2.5808,2.5546,2.5126,2.451,3.6417,3.6417,3.6417,3.6329,3.6157,3.6144,3.6116,3.5881,3.5479,3.5282,3.5219,3.4889,3.4688,3.4474,3.4098,3.3809,3.3621,3.3269,3.3124,3.3124,3.3124,3.3124,3.3081,3.2918,3.2616,3.2265,3.2089,3.1725,3.1223,3.1185,3.0896,3.0419,3.0394,3.0206,2.9867,2.9829,2.9779,2.9779,2.9792,2.9779,2.9779,2.9779,2.9779,2.9779,2.9779,2.9779,2.9779,2.9779,2.9779,2.9779,2.9779,2.9779,2.9779,2.9779,2.9779,2.9779,2.9779,2.9663,2.9456,2.9585,2.9611,2.9404,2.9521,2.9779,2.9779,2.9779,2.9573,2.9079,2.853,2.7815,2.7319,2.6905,2.6546,2.6361,2.466,2.33,2.3237,2.3101,2.3101,2.312,2.3408,2.3711,2.3949,2.3988,2.4036,2.4199,2.4268,2.4365,2.456,2.4541,2.4368,2.4463,2.4414,2.4258,2.415,2.4141,2.4186,2.4342,2.4556,2.4706,2.4358,2.3764,2.4616,2.5147,2.356,2.3507,2.4542,2.5378,2.5964,2.6348,2.6748,2.6707,2.6532,2.6243,2.5462,3.6837,3.6417,3.6417,3.6417,3.6417,3.6417,3.6417,3.6355,3.6044,3.5893,3.5818,3.5579,3.5278,3.4994,3.4693,3.4449,3.4186,3.3671,3.3445,3.3382,3.3194,3.3136,3.3124,3.3111,3.2893,3.2629,3.2566,3.2252,3.1825,3.1738,3.1436,3.1035,3.0947,3.0771,3.0545,3.0218,3.0131,3.0105,2.9942,2.9779,2.9779,2.9779,2.9779,2.9779,2.9779,2.9779,2.9779,2.9779,2.9779,2.9779,2.9779,2.9779,2.9779,2.9779,2.9779,2.9779,2.9779,2.9611,2.9275,2.9456,2.9534,2.9314,2.9443,2.974,2.9779,2.9779,2.974,2.8988,2.8426,2.8176,2.8051,2.7708,2.7542,2.7294,2.5663,2.4442,2.4452,2.4004,2.354,2.3374,2.3672,2.4307,2.4787,2.4621,2.457,2.4629,2.4687,2.4902,2.5127,2.4953,2.4836,2.4873,2.4834,2.4668,2.4463,2.4404,2.4443,2.4631,2.4769,2.5023,2.4854,2.4081,2.4705,2.5232,2.3944,2.3503,2.4699,2.557,2.5755,2.6254,2.7035,2.711,2.6629,2.6396,2.5759,3.7461,3.6417,3.6417,3.6417,3.6417,3.6417,3.6417,3.6417,3.6367,3.6367,3.6342,3.6392,3.5981,3.5571,3.537,3.5194,3.4731,3.4236,3.396,3.3734,3.3445,3.3237,3.3124,3.3124,3.3099,3.298,3.3111,3.2767,3.2403,3.2303,3.2001,3.1599,3.1474,3.1411,3.1173,3.0871,3.0721,3.0608,3.0206,2.9993,2.9942,2.9867,2.9779,2.9779,2.9779,2.9779,2.9779,2.9779,2.9779,2.9779,2.9779,2.9779,2.9779,2.9779,2.9779,2.9779,2.974,2.9314,2.8557,2.9197,2.9197,2.8438,2.8949,2.9624,2.9495,2.9404,2.9234,2.8949,2.8311,2.8165,2.8116,2.848,2.8528,2.8002,2.6962,2.6594,2.6208,2.5224,2.4066,2.3457,2.4023,2.4814,2.5215,2.5146,2.4707,2.5098,2.5146,2.5273,2.5401,2.5372,2.5206,2.5117,2.5078,2.5019,2.4824,2.4648,2.4707,2.4812,2.4881,2.5089,2.563,2.5333,2.5365,2.5178,2.4563,2.4462,2.4958,2.5498,2.5668,2.609,2.6844,2.6314,2.5656,2.5679,2.5285,3.7461,3.6417,3.6417,3.6417,3.6417,3.6417,3.6417,3.6417,3.6417,3.6417,3.6417,3.6417,3.6342,3.6132,3.5721,3.5408,3.527,3.4801,3.4349,3.3897,3.3809,3.3458,3.325,3.3169,3.3149,3.3136,3.3124,3.3048,3.2923,3.278,3.2604,3.2114,3.2014,3.1825,3.1461,3.1361,3.1223,3.1135,3.0708,3.0457,3.0331,3.003,2.9829,2.9804,2.9779,2.9779,2.9779,2.9779,2.9779,2.9779,2.9779,2.9779,2.9779,2.9779,2.9779,2.9779,2.9753,2.9275,2.8557,2.8976,2.8961,2.7464,2.8108,2.8466,2.8466,2.8609,2.9105,2.9478,2.925,2.8427,2.7929,2.8792,2.8872,2.8409,2.8076,2.7711,2.71,2.5571,2.445,2.4336,2.459,2.5137,2.5596,2.5547,2.5391,2.5576,2.5596,2.5586,2.5635,2.5674,2.5538,2.5371,2.5371,2.5332,2.5273,2.506,2.506,2.507,2.5109,2.5185,2.5688,2.5843,2.5655,2.5643,2.5614,2.5533,2.5186,2.5511,2.5677,2.615,2.6455,2.6141,2.5774,2.545,2.5114,3.7415,3.6405,3.6417,3.6417,3.6417,3.6417,3.6417,3.6417,3.6417,3.6417,3.6417,3.6417,3.6417,3.6392,3.6069,3.5931,3.5793,3.5353,3.4813,3.4399,3.4286,3.4123,3.3935,3.3771,3.3658,3.3262,3.3124,3.3124,3.3124,3.3111,3.2905,3.2654,3.2604,3.2516,3.2152,3.1913,3.1788,3.1675,3.1248,3.0972,3.0884,3.0457,2.9993,2.9842,2.9779,2.9779,2.9779,2.9779,2.9779,2.9792,2.9792,2.9792,2.9779,2.9779,2.9779,2.9779,2.9779,2.9236,2.8676,2.8976,2.9079,2.7424,2.8279,2.8897,2.9093,2.9068,2.9524,3.0304,2.9844,2.8694,2.7556,2.8396,2.8699,2.8304,2.8115,2.7746,2.6791,2.5664,2.4982,2.5021,2.5234,2.5449,2.5606,2.5664,2.5674,2.5606,2.5606,2.5645,2.5645,2.5684,2.5684,2.5586,2.5615,2.5625,2.5625,2.5567,2.5518,2.5499,2.5469,2.5489,2.5709,2.5694,2.5553,2.5555,2.5504,2.5121,2.4877,2.5265,2.5462,2.5359,2.5472,2.5871,2.5816,2.5096,2.4896,3.7415,3.6417,3.6417,3.6417,3.6417,3.6417,3.6417,3.6417,3.6417,3.6417,3.6417,3.6417,3.6417,3.6405,3.6392,3.6405,3.6267,3.5906,3.5366,3.4856,3.4806,3.4713,3.46,3.4474,3.4211,3.337,3.3294,3.3257,3.3162,3.3124,3.3086,3.3086,3.3099,3.2986,3.2935,3.2629,3.2353,3.2277,3.18,3.1512,3.1424,3.1009,3.052,3.0269,3.0181,3.0193,3.0206,3.0181,3.0105,3.003,3.003,2.993,2.9792,2.9779,2.9779,2.9779,2.9779,2.9236,2.8633,2.9113,2.9421,2.8267,2.9086,2.9849,3.0109,2.9853,3.0208,3.0527,3.024,2.8645,2.7108,2.775,2.7945,2.7536,2.7437,2.6993,2.6062,2.5684,2.5586,2.5596,2.5528,2.5596,2.5645,2.5684,2.5684,2.5684,2.5684,2.5684,2.5684,2.5684,2.5684,2.5684,2.5684,2.5684,2.5684,2.5684,2.5684,2.5684,2.5684,2.5684,2.5684,2.5644,2.5582,2.533,2.5161,2.4908,2.4886,2.5201,2.5115,2.4619,2.4844,2.5561,2.5305,2.4626,2.4775,3.7461,3.6417,3.6417,3.6417,3.6417,3.6417,3.6417,3.6417,3.6417,3.6417,3.6417,3.6417,3.6417,3.6417,3.6417,3.6417,3.6355,3.6191,3.5893,3.5433,3.5345,3.5253,3.4951,3.4939,3.4675,3.4399,3.4048,3.3633,3.3219,3.3124,3.3187,3.3149,3.3124,3.3124,3.3111,3.3011,3.2855,3.2767,3.234,3.2102,3.1964,3.1562,3.1173,3.0972,3.0934,3.0972,3.1035,3.1085,3.1122,3.1135,3.1122,3.0633,3.0143,2.993,2.9905,2.993,2.9942,2.9524,2.8854,2.9625,2.9238,2.8403,2.8905,2.9701,2.9731,2.951,3.0158,3.0713,3.015,2.8449,2.6212,2.6987,2.7039,2.6658,2.6812,2.6993,2.6062,2.5684,2.5684,2.5684,2.5684,2.5684,2.5684,2.5684,2.5684,2.5684,2.5684,2.5684,2.5684,2.5684,2.5684,2.5684,2.5684,2.5684,2.5684,2.5684,2.5684,2.5684,2.5684,2.5684,2.5684,2.5684,2.5567,2.5449,2.5439,2.54,2.5391,2.5313,2.5284,2.5157,2.5284,2.5411,2.5273,2.5078,2.5146,3.6883,3.6417,3.6417,3.6417,3.6417,3.6417,3.6417,3.6417,3.6417,3.6417,3.6417,3.6417,3.6417,3.6417,3.6417,3.6417,3.6417,3.6405,3.6254,3.5981,3.5943,3.5868,3.5542,3.5542,3.5366,3.5119,3.4793,3.4274,3.3571,3.352,3.3357,3.3162,3.3124,3.3124,3.3124,3.3111,3.3124,3.2993,3.2805,3.2641,3.2591,3.2102,3.1738,3.1461,3.1411,3.1386,3.1386,3.1386,3.1373,3.1361,3.1373,3.1198,3.0959,3.0733,3.062,3.062,3.0583,3.0383,2.9905,3.0589,3.0176,2.8932,2.9317,2.9413,2.9538,2.9742,3.023,3.0112,2.9478,2.7757,2.5945,2.639,2.6245,2.5965,2.6294,2.6294,2.5917,2.5732,2.5684,2.5684,2.5713,2.5713,2.5684,2.5684,2.5684,2.5684,2.5684,2.5684,2.5684,2.5684,2.5684,2.5684,2.5684,2.5684,2.5684,2.5684,2.5684,2.5684,2.5684,2.5684,2.5684,2.5684,2.5684,2.5615,2.5674,2.5684,2.5645,2.5508,2.5615,2.5684,2.5606,2.5557,2.5586,2.5577,2.5547,3.6729,3.6417,3.6417,3.6417,3.6417,3.6417,3.6417,3.6417,3.6417,3.6417,3.6417,3.6417,3.6417,3.6417,3.6417,3.6417,3.6417,3.6417,3.638,3.6367,3.6355,3.638,3.6405,3.6367,3.6069,3.5742,3.5655,3.5082,3.4248,3.406,3.3746,3.3458,3.3312,3.3199,3.3119,3.3124,3.3124,3.3124,3.3124,3.3124,3.2955,3.2616,3.219,3.1788,3.1766,3.1829,3.1905,3.1917,3.1863,3.1892,3.1851,3.1888,3.2089,3.1942,3.1738,3.17,3.1524,3.1317,3.0993,3.1034,3.0434,2.918,2.9414,2.9259,2.932,2.9921,3.0441,2.9,2.8355,2.7258,2.6014,2.5732,2.5732,2.5732,2.5732,2.5732,2.5732,2.5684,2.5684,2.5703,2.5791,2.583,2.5791,2.5684,2.5684,2.5684,2.5684,2.5684,2.5684,2.5684,2.5684,2.5684,2.5684,2.5684,2.5684,2.5684,2.5684,2.5684,2.5684,2.5684,2.5684,2.5684,2.5693,2.5723,2.5684,2.5684,2.5684,2.5684,2.5684,2.5684,2.5684,2.5674,2.5654,2.5645,2.5625,3.7868,3.6417,3.6417,3.6417,3.6417,3.6417,3.6417,3.6417,3.6417,3.6417,3.6417,3.6417,3.6417,3.6417,3.6417,3.6417,3.6417,3.6417,3.6417,3.6417,3.6417,3.6417,3.6417,3.6417,3.6367,3.6144,3.6194,3.5629,3.4914,3.4688,3.4336,3.3909,3.3771,3.3621,3.3332,3.3345,3.3124,3.3149,3.3136,3.3124,3.3111,3.2955,3.2855,3.2805,3.278,3.2772,3.2709,3.2696,3.2747,3.2797,3.2847,3.2923,3.2973,3.2973,3.2923,3.2579,3.1968,3.0964,3.035,3.0482,3.004,2.9145,2.9071,2.9274,2.9126,2.9353,2.9138,2.6433,2.7105,2.7299,2.6131,2.5771,2.5703,2.5781,2.5879,2.584,2.5801,2.6084,2.6045,2.6006,2.6133,2.6045,2.5947,2.5801,2.5684,2.5684,2.5693,2.5742,2.581,2.5918,2.5947,2.6015,2.5986,2.5957,2.6094,2.6035,2.5986,2.5869,2.5869,2.5869,2.5937,2.5976,2.5771,2.5781,2.5742,2.5693,2.5684,2.5684,2.5684,2.5684,2.5684,2.5684,2.5684,2.5684,2.5684,3.9474,3.6845,3.6531,3.6417,3.6417,3.6417,3.6417,3.6417,3.6417,3.6417,3.6417,3.6417,3.6417,3.6417,3.6417,3.6417,3.6417,3.6417,3.6417,3.6417,3.6417,3.6417,3.6417,3.6417,3.6417,3.6417,3.6392,3.6254,3.5642,3.5265,3.4868,3.4437,3.4361,3.4299,3.3909,3.3985,3.3809,3.3583,3.3325,3.3136,3.3124,3.3136,3.3136,3.3124,3.3136,3.3124,3.3124,3.3124,3.3124,3.3124,3.3124,3.3124,3.3124,3.3111,3.3099,3.3061,3.2667,3.1803,3.0834,3.0759,2.97,2.8512,2.8143,2.7996,2.7673,2.7626,2.7615,2.5965,2.6332,2.6442,2.6241,2.6103,2.626,2.6338,2.6328,2.6357,2.6367,2.6435,2.6533,2.6494,2.6484,2.6514,2.6543,2.6533,2.6445,2.6348,2.6377,2.6426,2.6494,2.6541,2.6592,2.6562,2.6426,2.6269,2.6475,2.6572,2.6533,2.6494,2.6523,2.6514,2.6475,2.6416,2.6182,2.5977,2.5908,2.5801,2.5742,2.5684,2.5684,2.5684,2.5684,2.5684,2.5684,2.5684,2.5684,4.0123,3.7612,3.7059,3.6744,3.6619,3.6606,3.6531,3.6417,3.6417,3.6417,3.6417,3.6417,3.6417,3.6417,3.6417,3.6417,3.6417,3.6417,3.6417,3.6417,3.6417,3.6417,3.6417,3.6417,3.6417,3.6417,3.6417,3.6342,3.6241,3.5918,3.542,3.4893,3.4893,3.4756,3.468,3.4555,3.4399,3.4123,3.3784,3.3621,3.3558,3.3395,3.3375,3.3257,3.3169,3.3124,3.3124,3.3124,3.3124,3.3124,3.3124,3.3124,3.3124,3.3124,3.3124,3.3111,3.296,3.2104,3.1036,3.028,2.9396,2.8038,2.7078,2.6802,2.6149,2.5693,2.5801,2.5928,2.6163,2.6378,2.6445,2.6543,2.6641,2.6797,2.6904,2.6982,2.7012,2.6943,2.6885,2.6816,2.6924,2.7305,2.7334,2.7363,2.7256,2.7031,2.7012,2.7041,2.7194,2.7316,2.7066,2.7019,2.6996,2.682,2.6768,2.6934,2.6953,2.7021,2.7051,2.6992,2.6875,2.6719,2.6494,2.6299,2.6182,2.6211,2.6299,2.5957,2.5684,2.5684,2.5684,2.5684,2.5684,2.5684,2.5684,3.902,3.8756,3.814,3.7588,3.7172,3.7136,3.6835,3.648,3.643,3.6417,3.6417,3.6417,3.6417,3.6417,3.6417,3.6417,3.6417,3.6417,3.6417,3.6417,3.6417,3.6417,3.6417,3.6417,3.6417,3.6417,3.6417,3.6417,3.6405,3.6317,3.5906,3.5508,3.5458,3.5119,3.4919,3.4868,3.4839,3.465,3.4449,3.4424,3.4299,3.411,3.3847,3.3734,3.3395,3.3093,3.3149,3.3275,3.3338,3.3338,3.3375,3.3319,3.3395,3.3357,3.337,3.337,3.3357,3.2389,3.099,2.9931,2.8315,2.6774,2.6005,2.6201,2.5967,2.5742,2.5859,2.6328,2.666,2.6885,2.6982,2.6992,2.7051,2.7217,2.7344,2.7334,2.7324,2.7256,2.7187,2.7119,2.7324,2.7695,2.7861,2.7832,2.7705,2.748,2.7486,2.7567,2.7963,2.8086,2.7652,2.75,2.7615,2.7432,2.709,2.7197,2.7422,2.7441,2.7432,2.7295,2.7148,2.6982,2.7012,2.6885,2.6826,2.6816,2.6719,2.6396,2.6044,2.5791,2.5684,2.5684,2.5684,2.5684,2.5684,4.0082,3.9358,3.9132,3.8517,3.7663,3.7324,3.7061,3.6835,3.6556,3.6417,3.6443,3.6417,3.6417,3.6417,3.6417,3.6417,3.6417,3.6417,3.6417,3.6417,3.6417,3.6417,3.6417,3.6417,3.6417,3.6417,3.6417,3.6417,3.6417,3.6417,3.6329,3.6081,3.5994,3.5968,3.5717,3.5366,3.5207,3.5082,3.4881,3.4705,3.4675,3.4575,3.4399,3.4361,3.4286,3.4098,3.4123,3.4098,3.4085,3.4048,3.4035,3.3997,3.3985,3.3985,3.3985,3.3985,3.3972,3.3032,3.1516,3.0372,2.8763,2.7112,2.6533,2.6434,2.6387,2.6035,2.6201,2.667,2.7363,2.7607,2.7441,2.7432,2.75,2.7695,2.7754,2.7715,2.7676,2.7617,2.7627,2.7617,2.7793,2.8076,2.8184,2.8232,2.8076,2.79,2.799,2.8214,2.888,2.9228,2.8961,2.8777,2.8942,2.8224,2.7855,2.7878,2.793,2.7861,2.7783,2.7685,2.7588,2.7793,2.7783,2.7627,2.7441,2.7383,2.7178,2.6787,2.6484,2.625,2.5908,2.5684,2.5684,2.5762,2.5801,4.0503,3.9749,3.9697,3.9145,3.8253,3.7852,3.7588,3.7374,3.7048,3.6847,3.6835,3.6757,3.6656,3.6631,3.6455,3.6417,3.6417,3.6417,3.6417,3.6417,3.6417,3.6417,3.6417,3.6417,3.6417,3.6417,3.6417,3.6417,3.6417,3.6417,3.638,3.6367,3.6405,3.6355,3.6279,3.6031,3.5793,3.5667,3.5479,3.5215,3.524,3.5052,3.4919,3.4868,3.4751,3.4613,3.4542,3.4517,3.4555,3.4568,3.4593,3.463,3.4655,3.468,3.468,3.4693,3.459,3.4156,3.279,3.0889,2.9171,2.7873,2.7076,2.6994,2.6846,2.6425,2.6611,2.7139,2.7832,2.8164,2.7842,2.7861,2.79,2.8047,2.8086,2.8066,2.8086,2.8057,2.8105,2.8144,2.8271,2.8252,2.8262,2.8344,2.8744,2.8763,2.909,2.9663,3.071,3.0954,3.0783,3.0638,3.0632,2.9662,2.8658,2.8377,2.8096,2.8115,2.8066,2.8135,2.8154,2.8301,2.8281,2.8008,2.7871,2.7891,2.7734,2.7461,2.707,2.667,2.6406,2.6122,2.622,2.6377,2.6211,3.9736,3.9697,3.9697,3.9358,3.8856,3.8881,3.8479,3.8015,3.7864,3.7814,3.7739,3.7374,3.7161,3.7073,3.6832,3.6719,3.6681,3.6619,3.6606,3.6669,3.6619,3.6505,3.6455,3.6468,3.6417,3.6417,3.6417,3.6417,3.6417,3.6417,3.6417,3.6417,3.6417,3.6417,3.6417,3.6405,3.638,3.6367,3.6279,3.6216,3.6044,3.5717,3.552,3.5395,3.5215,3.5064,3.5064,3.5052,3.5077,3.5064,3.5039,3.5027,3.5002,3.4977,3.4964,3.4926,3.4889,3.4267,3.305,3.0548,2.9543,2.8863,2.7953,2.7256,2.7129,2.7041,2.7119,2.7656,2.8047,2.8262,2.8252,2.8252,2.8252,2.8262,2.8291,2.8301,2.8301,2.8301,2.8301,2.8301,2.8301,2.8291,2.8291,2.8451,2.9112,2.9535,3.0057,3.0927,3.1938,3.2129,3.1774,3.1673,3.1531,3.0514,2.9355,2.8591,2.8262,2.8291,2.8301,2.8301,2.8301,2.8301,2.8271,2.8232,2.8184,2.8096,2.8174,2.8213,2.7734,2.7275,2.6992,2.6816,2.6914,2.6875,2.667,3.9697,3.9697,3.9697,3.9597,3.9371,3.9007,3.8743,3.853,3.8203,3.8015,3.7977,3.7776,3.7739,3.7651,3.755,3.7374,3.74,3.745,3.745,3.7374,3.7086,3.6948,3.6895,3.6681,3.648,3.6417,3.6417,3.6455,3.6417,3.6417,3.6417,3.6417,3.6417,3.6417,3.6417,3.6417,3.6405,3.6405,3.6392,3.6392,3.6392,3.6169,3.6056,3.6044,3.5818,3.5717,3.5692,3.5655,3.5667,3.5667,3.5667,3.5692,3.5692,3.5705,3.5742,3.5768,3.578,3.5699,3.4924,3.3489,3.1722,3.0232,2.8724,2.7973,2.7842,2.7871,2.7969,2.8008,2.8164,2.8301,2.8281,2.8281,2.8281,2.8281,2.8301,2.8301,2.8301,2.8301,2.8301,2.8301,2.8301,2.8301,2.8301,2.8364,2.893,2.9308,2.9625,3.0805,3.1887,3.2191,3.2079,3.2079,3.1887,3.103,3.012,2.8953,2.8344,2.8291,2.8301,2.8301,2.8301,2.8301,2.8291,2.8262,2.8281,2.8301,2.8301,2.8281,2.8193,2.79,2.7529,2.7236,2.7178,2.7129,2.7012,3.9697,3.9697,3.9697,3.9697,3.9634,3.9308,3.9157,3.9094,3.8755,3.8592,3.8567,3.8429,3.8304,3.8253,3.8103,3.8002,3.8002,3.799,3.799,3.7952,3.7663,3.75,3.7324,3.7134,3.6983,3.6782,3.6669,3.6656,3.643,3.6417,3.6417,3.6417,3.643,3.6417,3.6417,3.6417,3.6417,3.6417,3.6417,3.6417,3.6405,3.638,3.638,3.638,3.6342,3.6355,3.6392,3.6417,3.6417,3.6417,3.6417,3.6417,3.6417,3.6417,3.6417,3.6417,3.6405,3.638,3.5939,3.4945,3.2979,3.1229,2.9765,2.8847,2.8441,2.8203,2.8223,2.8252,2.8301,2.8301,2.8301,2.8301,2.8301,2.8301,2.832,2.832,2.834,2.834,2.8389,2.8379,2.8379,2.8359,2.8359,2.8437,2.866,2.89,2.914,3.0433,3.1669,3.1953,3.1953,3.1688,3.1553,3.0721,2.9807,2.8847,2.8388,2.8291,2.8301,2.8301,2.8301,2.8301,2.8301,2.8301,2.8301,2.8301,2.8301,2.8262,2.8223,2.8125,2.79,2.7656,2.7471,2.7432,2.7422,3.9697,3.9697,3.9697,3.9697,3.9685,3.9647,3.9647,3.9672,3.9647,3.9609,3.9609,3.9044,3.8894,3.8781,3.8354,3.8203,3.8241,3.8216,3.8241,3.8165,3.8115,3.8052,3.8002,3.7877,3.7513,3.7299,3.7186,3.7084,3.6568,3.6732,3.6707,3.6581,3.6631,3.6606,3.6581,3.6468,3.6443,3.6417,3.6417,3.6417,3.6417,3.6417,3.6417,3.6417,3.6417,3.6417,3.6417,3.6417,3.6417,3.6417,3.6417,3.6417,3.6417,3.6417,3.6417,3.6417,3.6417,3.6417,3.6263,3.5174,3.381,3.2129,3.1019,2.9807,2.8751,2.8301,2.8301,2.8301,2.8301,2.8301,2.8301,2.8301,2.8301,2.833,2.8369,2.8379,2.8398,2.8437,2.8496,2.8525,2.8545,2.8555,2.8613,2.8638,2.879,2.8981,2.9342,2.9924,3.1042,3.172,3.1451,3.0538,3.0381,3.0172,2.9355,2.8578,2.8388,2.8291,2.8301,2.8301,2.8301,2.831,2.8301,2.8301,2.8301,2.8301,2.8301,2.8301,2.8291,2.8174,2.8076,2.8047,2.7861,2.7969,2.8008,3.9697,3.9697,3.9697,3.9697,3.9697,3.9697,3.9697,3.9697,3.9697,3.9697,3.9685,3.9534,3.9396,3.9421,3.9283,3.9195,3.917,3.9207,3.9233,3.9082,3.8743,3.8655,3.8504,3.8291,3.7977,3.7839,3.7739,3.7663,3.7538,3.7475,3.745,3.7525,3.7098,3.7033,3.6857,3.6619,3.6556,3.6505,3.6531,3.6493,3.648,3.648,3.6455,3.643,3.6417,3.6417,3.6417,3.6417,3.6417,3.6417,3.6417,3.6417,3.6417,3.6417,3.6417,3.6417,3.6417,3.6417,3.631,3.6013,3.486,3.3005,3.2011,3.0411,2.9154,2.8417,2.8427,2.8359,2.8457,2.8525,2.8535,2.8525,2.8516,2.8545,2.8623,2.873,2.8769,2.8887,2.8935,2.8984,2.9039,2.9014,2.9033,2.9062,2.9235,2.9372,2.9567,3.0028,3.0401,3.1063,3.1032,3.0122,2.9923,2.9915,2.9232,2.8452,2.8393,2.8301,2.8408,2.8467,2.8447,2.8447,2.834,2.8379,2.8506,2.8428,2.8301,2.833,2.8418,2.831,2.8223,2.8262,2.8301,2.8301,2.8301,3.9697,3.9697,3.9697,3.9697,3.9697,3.9697,3.9697,3.9697,3.9697,3.9697,3.9697,3.9685,3.9697,3.9672,3.9647,3.9634,3.9634,3.9584,3.9597,3.9496,3.9346,3.9258,3.9019,3.8818,3.8605,3.8454,3.8304,3.8191,3.814,3.8015,3.7965,3.7914,3.76,3.755,3.7425,3.7262,3.7123,3.6998,3.6872,3.6722,3.6684,3.6671,3.6631,3.648,3.6468,3.6468,3.6468,3.6468,3.6443,3.6417,3.6417,3.6417,3.6417,3.6417,3.6417,3.6417,3.6417,3.6417,3.637,3.6417,3.5054,3.3918,3.3238,3.2339,3.0621,2.9412,2.8896,2.8545,2.8711,2.8838,2.8828,2.8809,2.8818,2.8838,2.8994,2.916,2.9287,2.947,2.9538,2.9587,2.9616,2.958,2.9609,2.9619,2.9658,2.9766,2.9883,3.0121,3.024,3.0404,3.0356,2.9754,2.9832,2.9917,2.9173,2.8682,2.8769,2.8848,2.8955,2.8955,2.8779,2.8721,2.876,2.8779,2.8809,2.8721,2.8643,2.8564,2.8584,2.8486,2.8389,2.835,2.834,2.8301,2.8301,3.9788,3.9697,3.9697,3.9697,3.9697,3.9697,3.9697,3.9697,3.9697,3.9697,3.9697,3.9697,3.9697,3.9697,3.9697,3.9697,3.9697,3.9697,3.9697,3.9697,3.9622,3.9559,3.9584,3.9634,3.9207,3.9019,3.8894,3.8768,3.8354,3.8354,3.8429,3.8128,3.809,3.8078,3.804,3.7839,3.7764,3.7864,3.7626,3.7412,3.7287,3.7186,3.7071,3.6707,3.6644,3.6644,3.6631,3.6581,3.6531,3.6556,3.6518,3.6543,3.6417,3.6417,3.6417,3.6417,3.6417,3.6531,3.6581,3.6631,3.5865,3.5124,3.4909,3.4042,3.2416,2.9674,2.8716,2.9431,2.9809,2.9502,2.9346,2.9258,2.9219,2.9287,2.9424,2.9551,2.9658,2.9824,3.001,3.0059,3.0107,3.0117,3.0059,3.0068,3.0137,3.0215,3.0303,3.0449,3.0399,3.0276,2.9993,2.9685,2.9707,2.9844,2.9599,2.9248,2.9375,2.9518,2.9538,2.946,2.9209,2.9245,2.9284,2.9391,2.9443,2.9209,2.9092,2.9014,2.8896,2.874,2.8623,2.8467,2.8408,2.8467,2.833,4.0541,3.9685,3.9697,3.9697,3.9697,3.9697,3.9697,3.9697,3.9697,3.9697,3.9697,3.9697,3.9697,3.9697,3.9697,3.9697,3.9697,3.9697,3.9697,3.9697,3.9697,3.9697,3.9697,3.9685,3.9572,3.9546,3.9459,3.9346,3.9157,3.917,3.9233,3.9195,3.8931,3.8668,3.863,3.8404,3.8329,3.8605,3.8504,3.8165,3.7927,3.7839,3.7688,3.7563,3.7538,3.7475,3.7487,3.7525,3.7563,3.7588,3.7174,3.6822,3.6455,3.6455,3.643,3.6417,3.6543,3.6744,3.6945,3.6975,3.6504,3.6035,3.5649,3.4881,3.3153,3.0115,2.9148,3.0348,3.0681,3.0181,2.9853,2.9736,2.9678,2.9775,2.9863,2.9961,3.0049,3.0254,3.0488,3.0547,3.0605,3.0576,3.0508,3.0527,3.0625,3.0674,3.0713,3.0771,3.0742,3.0662,3.0427,3.0135,2.9763,2.9748,2.9678,2.9766,2.9863,2.9795,2.9746,2.9734,2.9639,2.9678,2.9756,3.0019,3.0107,2.9805,2.9551,2.9453,2.9316,2.9092,2.8965,2.8848,2.8916,2.8984,2.8652,4.169,4.0554,3.9929,3.9697,3.9697,3.9697,3.9697,3.9697,3.9697,3.9697,3.9697,3.9697,3.9697,3.9697,3.9697,3.9697,3.9697,3.9697,3.9697,3.9697,3.9697,3.9697,3.9697,3.9697,3.9685,3.9685,3.9685,3.9659,3.9697,3.9672,3.9622,3.9647,3.9333,3.9207,3.917,3.8919,3.8856,3.9271,3.9207,3.9007,3.863,3.853,3.8216,3.814,3.8015,3.804,3.8002,3.8002,3.799,3.7965,3.7663,3.7513,3.7236,3.7199,3.7149,3.7149,3.7247,3.7224,3.745,3.7503,3.7344,3.7057,3.7223,3.6777,3.6874,3.422,3.2544,3.3246,3.1208,3.0507,3.0487,3.0342,3.0332,3.0391,3.043,3.0478,3.0518,3.0615,3.0723,3.0742,3.0781,3.0771,3.0723,3.0723,3.0791,3.0791,3.0879,3.0879,3.0889,3.0898,3.0703,3.0527,3.0156,3.0117,3.0303,3.0332,3.0322,3.0215,3.0049,3.0185,3.0273,3.0234,3.0293,3.0449,3.0469,3.0244,3.0029,2.9902,2.9668,2.9424,2.9336,2.9268,2.9375,2.9463,2.9209,4.3026,4.1752,4.0516,3.9981,3.9917,3.9981,3.9839,3.9697,3.9697,3.9697,3.9697,3.9697,3.9697,3.9697,3.9697,3.9697,3.9697,3.9697,3.9697,3.9697,3.9697,3.9697,3.9697,3.9697,3.9697,3.9697,3.9697,3.9697,3.9697,3.9697,3.9697,3.9697,3.9697,3.9685,3.9697,3.9672,3.9609,3.9584,3.9584,3.9634,3.9459,3.9258,3.8793,3.8429,3.8228,3.8216,3.8228,3.8228,3.8241,3.8203,3.8216,3.7977,3.7852,3.7751,3.7789,3.7764,3.7739,3.7877,3.809,3.8128,3.8166,3.8291,3.8806,3.8956,3.8892,3.8072,3.6343,3.4395,3.238,3.0918,3.0888,3.082,3.082,3.082,3.084,3.085,3.0859,3.0879,3.0889,3.0898,3.0898,3.0898,3.0898,3.0898,3.0898,3.0898,3.0898,3.0898,3.0898,3.0898,3.081,3.0762,3.0605,3.0674,3.0801,3.0732,3.0615,3.0635,3.0527,3.0742,3.085,3.0654,3.0596,3.0732,3.0693,3.0518,3.043,3.0312,3.0059,2.9834,2.9717,2.9707,2.9873,2.9932,2.9805,4.4317,4.3013,4.1739,4.1219,4.1219,4.1219,4.0655,3.9788,3.9749,3.9697,3.9697,3.9697,3.9697,3.9697,3.9697,3.9697,3.9697,3.9697,3.9697,3.9697,3.9697,3.9697,3.9697,3.9697,3.9697,3.9697,3.9697,3.9697,3.9697,3.9697,3.9697,3.9697,3.9697,3.9697,3.9697,3.9697,3.9697,3.9697,3.9697,3.9697,3.9697,3.9559,3.9546,3.9396,3.9383,3.9371,3.9371,3.9371,3.9371,3.9258,3.8931,3.8542,3.8329,3.8216,3.8228,3.8291,3.8266,3.8417,3.8567,3.868,3.8781,3.9107,3.9383,3.9421,3.942,3.9368,3.7534,3.5534,3.3452,3.1325,3.0869,3.0869,3.0869,3.0869,3.0879,3.0879,3.0889,3.0889,3.0889,3.0898,3.0898,3.0898,3.0898,3.0898,3.0898,3.0898,3.0898,3.0898,3.0898,3.0898,3.0898,3.0898,3.0898,3.0889,3.0869,3.0859,3.0801,3.0869,3.0898,3.0898,3.0898,3.0898,3.0898,3.0898,3.0898,3.0781,3.0713,3.0605,3.0615,3.041,3.0195,3.0146,3.0322,3.0371,3.0234]}]]